     2              OBSERVATION DATA    GPS                 RINEX VERSION / TYPE
TurboRhino 92 8 25 16 23 59                                 PGM / RUN BY / DATE
TurboRogue rinex formatter V1.0                             COMMENT
rval                                                        MARKER NAME
CB                                                          OBSERVER / AGENCY
115 0TurboRogue Fri 08/21 16:28:52                          REC # / TYPE / VERS
115 0D. AND M. C146-6-1                                     ANT # / TYPE
        0.0614        0.0000        0.0000                  ANTENNA: DELTA H/E/N
 -2240354.0000 -4717758.0000  3651637.0000                  APPROX POSITION XYZ
    30                                                      INTERVAL
                                                            COMMENT
PANGA GPS Data Analysis Center                              COMMENT
Department of Geology                                       COMMENT
Central Washington University                               COMMENT
Ellensburg, WA 98926                                        COMMENT
                                                            COMMENT
http://www.panga.cwu.edu                                    COMMENT
ftp://panga.cwu.edu                                         COMMENT
                                                            COMMENT
     1     1                                                WAVELENGTH FACT L1/2
     5    C1    L1    L2    P1    P2                        # / TYPES OF OBSERV
    92     8    21     0     0    0.0000000                 TIME OF FIRST OBS
    92     8    21    23    59   30.0000000                 TIME OF LAST OBS
                                                            END OF HEADER
 92  8 21  0  0  0.0000000  0  6 23 21 26 03 28 17
  23194824.09806 -21347278.91506 -16634188.09709  23194692.31406  23194694.33406
  25004830.69106 -11987627.51106  -9340979.05609  25004699.06706  25004702.63506
  25549144.71706  -7600134.27306  -5922144.31509  25549013.37206  25549015.97206
  23761994.61206 -13440974.08206 -10473467.85609  23761863.36706  23761866.65906
  26124919.15106  -8457933.99006  -6590593.15009  26124787.19106  26124790.28306
  23221155.35606 -14943749.25406 -11644453.01209  23221023.62606  23221025.88106
 92  8 21  0  0 30.0000000  0  6 23 21 26 03 28 17
  23196198.39606 -21340056.26406 -16628560.05309  23196066.69206  23196068.70506
  24993945.14506 -12044831.54806  -9385553.56809  24993813.53706  24993817.02806
  25562964.23106  -7527513.10406  -5865556.40709  25562832.84206  25562835.46006
  23776844.75606 -13362936.66206 -10412659.50809  23776713.39806  23776716.75406
  26108694.95506  -8543192.58806  -6657028.37609  26108562.99206  26108566.09606
  23225762.99906 -14919535.93906 -11625585.49109  23225631.33006  23225633.56806
 92  8 21  0  1  0.0000000  0  6 23 21 26 03 28 17
  23197636.47006 -21332499.33506 -16622671.53309  23197504.67506  23197506.68106
  24983100.78806 -12101819.12906  -9429959.41509  24982969.15206  24982972.58306
  25576857.60806  -7454502.35906  -5808664.93509  25576726.18106  25576728.82006
  23791793.09706 -13284382.20306 -10351448.27409  23791661.83206  23791665.18806
  26092512.34506  -8628232.75406  -6723293.39409  26092380.38106  26092383.41806
  23230415.79506 -14895085.39706 -11606533.11309  23230284.09306  23230286.32306
 92  8 21  0  1 30.0000000  0  6 23 21 26 03 28 17
  23199136.74206 -21324615.03006 -16616527.91409  23199005.01006  23199007.03306
  24972297.42406 -12158590.35006  -9474196.66409  24972165.86306  24972169.41206
  25590823.21406  -7381111.87106  -5751477.56809  25590691.98706  25590694.62306
  23806839.75306 -13205312.04306 -10289835.19809  23806708.40106  23806711.76306
  26076371.12206  -8713053.34606  -6789387.31209  26076239.21406  26076242.31906
  23235109.34006 -14870420.27806 -11587313.53009  23234977.70406  23234979.88406
 92  8 21  0  2  0.0000000  0  6 23 21 26 03 28 17
  23200698.70806 -21316407.56206 -16610132.47509  23200566.89906  23200568.88306
  24961537.16706 -12215135.14106  -9518257.46609  24961405.60406  24961409.21706
  25604865.75906  -7307317.87606  -5693975.78209  25604734.46006  25604737.07506
  23821986.71506 -13125714.22106 -10227810.95909  23821855.39406  23821858.75906
  26060274.44206  -8797643.09406  -6855301.34509  26060142.42906  26060145.51506
  23239843.82506 -14845540.73706 -11567926.86509  23239712.10706  23239714.28506
 92  8 21  0  2 30.0000000  0  6 23 21 26 03 28 17
  23202320.36806 -21307884.67506 -16603491.25409  23202188.63406  23202190.69706
  24950819.72606 -12271456.04906  -9562143.81609  24950688.08906  24950691.60106
  25618986.28906  -7233115.21006  -5636155.55409  25618854.89706  25618857.59606
  23837233.17006 -13045593.20206 -10165379.02509  23837101.92106  23837105.34306
  26044221.88006  -8882000.43506  -6921034.28009  26044089.88806  26044092.95406
  23244617.30106 -14820456.21006 -11548380.46909  23244485.53506  23244487.76306
 92  8 21  0  3  0.0000000  0  6 23 21 26 03 28 17
  23204004.01906 -21299037.67506 -16596597.47509  23203872.22306  23203874.22106
  24940149.43006 -12327528.22906  -9605836.35809  24940017.91106  24940021.28106
  25633184.70406  -7158502.77206  -5578016.02309  25633053.18206  25633055.86506
  23852579.14506 -12964950.45506 -10102540.54309  23852447.78406  23852451.14406
  26028216.21606  -8966109.22406  -6986573.53409  26028084.36906  26028087.53006
  23249431.11006 -14795158.94206 -11528668.30309  23249299.44006  23249301.63706
 92  8 21  0  3 30.0000000  0  6 23 21 26 03 28 17
  23205747.52906 -21289875.54906 -16589458.14709  23205615.76806  23205617.72706
  24929528.55406 -12383340.54006  -9649326.40509  24929397.03606  24929400.43006
  25647462.55606  -7083471.57506  -5519550.18809  25647331.08506  25647333.80606
  23868024.20906 -12883785.79506 -10039295.38709  23867892.91406  23867896.28706
  26012258.74206  -9049966.68206  -7051916.93709  26012126.71306  26012129.88706
  23254288.51306 -14769632.98406 -11508777.93709  23254156.84106  23254159.04206
 92  8 21  0  4  0.0000000  0  6 23 21 26 03 28 17
  23207554.50906 -21280379.03006 -16582058.24609  23207422.80306  23207424.80806
  24918957.60306 -12438890.84506  -9692612.28409  24918825.98206  24918829.40806
  25661824.73406  -7007998.95906  -5460740.39209  25661693.19406  25661695.93106
  23883570.25006 -12802090.90806  -9975637.07009  23883438.94206  23883442.33306
  25996351.80006  -9133556.79606  -7117052.02109  25996219.97406  25996222.93006
  23259196.58506 -14743840.91406 -11488680.21409  23259064.92406  23259067.10606
 92  8 21  0  4 30.0000000  0  6 23 21 26 03 28 17
  23209425.66306 -21270547.16806 -16574397.04009  23209293.81806  23209295.77006
  24908430.96706 -12494208.61606  -9735716.96609  24908299.44706  24908302.81106
  25676266.91106  -6932103.85506  -5401601.38309  25676135.57606  25676138.25006
  23899213.27106 -12719886.54706  -9911581.76009  23899081.99206  23899085.39406
  25980494.47506  -9216887.64006  -7181985.07009  25980362.61206  25980365.56006
  23264155.24406 -14717782.92006 -11468375.27909  23264023.56706  23264025.78106
 92  8 21  0  5  0.0000000  0  6 23 21 26 03 28 17
  23211354.76806 -21260408.60206 -16566496.84109  23211223.08506  23211225.06306
  24897939.03606 -12549345.08606  -9778680.38109  24897807.37506  24897810.71806
  25690783.58506  -6855819.13406  -5342158.77709  25690652.10006  25690654.83406
  23914944.09006 -12637220.23406  -9847166.48409  23914812.87506  23914816.25806
  25964677.87706  -9300003.54406  -7246750.63509  25964546.00006  25964548.98406
  23269156.70306 -14691500.50406 -11447895.47309  23269024.95006  23269027.14006
 92  8 21  0  5 30.0000000  0  6 23 21 26 03 28 17
  23213341.57706 -21249968.30206 -16558361.52409  23213209.77706  23213211.73606
  24887479.95606 -12604307.42606  -9821508.11109  24887348.29206  24887351.62006
  25705376.75306  -6779130.85406  -5282401.70909  25705245.34306  25705248.07606
  23930763.97606 -12554086.53006  -9782387.01009  23930632.68506  23930636.10306
  25948902.53806  -9382903.65706  -7311348.04709  25948770.66706  25948773.54006
  23274202.14106 -14664986.42706 -11427235.15009  23274070.40106  23274072.58406
 92  8 21  0  6  0.0000000  0  6 23 21 26 03 28 17
  23215392.68206 -21239189.25706 -16549962.25009  23215260.96406  23215262.92106
  24877059.67406 -12659065.28406  -9864176.50109  24876928.06606  24876931.39206
  25720050.54706  -6702020.04606  -5222315.39409  25719919.12206  25719921.93006
  23946677.73406 -12470459.69106  -9717223.27009  23946546.39706  23946549.76706
  25933173.87506  -9465559.98106  -7375755.49309  25933041.82606  25933044.69506
  23279295.18906 -14638222.17006 -11406379.88009  23279163.50606  23279165.67406
 92  8 21  0  6 30.0000000  0  6 23 21 26 03 28 17
  23217514.62106 -21228038.59706 -16541273.40509  23217382.84606  23217384.80406
  24866687.02206 -12713573.71806  -9906650.54009  24866555.43606  24866558.76606
  25734809.72306  -6624459.42006  -5161878.56509  25734678.34306  25734681.13606
  23962692.35606 -12386301.92606  -9651645.82509  23962561.04706  23962564.52206
  25917498.59406  -9547932.96206  -7439942.15409  25917366.70506  25917369.59006
  23284439.90106 -14611186.19106 -11385312.87809  23284308.25006  23284310.42606
 92  8 21  0  7  0.0000000  0  6 23 21 03 26 28 17
  23219708.34906 -21216510.52606 -16532290.47609  23219576.52806  23219578.47206
  24856369.71806 -12767791.95806  -9948898.45909  24856238.12406  24856241.35106
  23978812.89706 -12301587.43506  -9585634.56809  23978681.76506  23978685.17306
  25749657.55106  -6546433.78606  -5101079.39109  25749526.21406  25749529.01006
  25901881.40806  -9630001.67206  -7503891.72609  25901749.45406  25901752.33606
  23289639.87606 -14583860.69806 -11364020.28309  23289508.16906  23289510.32406
 92  8 21  0  7 30.0000000  0  6 23 21 03 26 28 17
  23221969.66306 -21204626.42806 -16523030.12209  23221837.96206  23221839.90206
  24846109.69606 -12821709.06006  -9990911.72809  24845978.02606  24845981.24206
  23995037.99206 -12216324.74506  -9519196.14609  23994906.76406  23994910.16806
  25764587.15506  -6467978.50006  -5039945.41909  25764455.74506  25764458.54006
  25886320.52806  -9711774.68806  -7567610.88709  25886188.53706  25886191.32806
  23294890.38806 -14556269.01706 -11342520.27009  23294758.66006  23294760.82606
 92  8 21  0  8  0.0000000  0  6 23 21 03 26 28 17
  23224300.26306 -21192379.08906 -16513486.72509  23224168.47706  23224170.43806
  24835909.76906 -12875309.11106 -10032677.94209  24835778.16106  24835781.40406
  24011367.02706 -12130514.76606  -9452331.26009  24011235.82006  24011239.29006
  25779596.59306  -6389103.45206  -4978484.36309  25779465.11906  25779467.90006
  25870816.82306  -9793246.90306  -7631095.66109  25870684.86006  25870687.67606
  23300188.87406 -14528424.45706 -11320823.20909  23300057.27406  23300059.42206
 92  8 21  0  8 30.0000000  0  6 23 21 03 26 28 17
  23226699.25506 -21179772.12406 -16503663.10109  23226567.50406  23226569.45906
  24825771.03806 -12928588.15006 -10074194.01509  24825639.45606  24825642.64206
  24027802.29206 -12044146.63306  -9385031.45009  24027671.14306  24027674.66506
  25794686.90406  -6309803.29406  -4916692.05009  25794555.42006  25794558.24206
  25855373.15906  -9874402.91906  -7694334.05009  25855241.16706  25855243.88306
  23305538.26306 -14500314.21706 -11298919.13009  23305406.51706  23305408.69706
 92  8 21  0  9  0.0000000  0  6 23 21 03 26 28 17
  23229164.05606 -21166819.76006 -16493570.33409  23229032.28906  23229034.25406
  24815692.07706 -12981553.46406 -10115465.63409  24815560.44106  24815563.59406
  24044341.21206 -11957234.66806  -9317307.88009  24044209.99006  24044213.45606
  25809853.72506  -6230101.27306  -4854586.59309  25809722.32606  25809725.11006
  25839987.17106  -9955255.90206  -7757336.30909  25839855.31806  25839858.12506
  23310934.39206 -14471957.12506 -11276822.70309  23310802.68006  23310804.84706
 92  8 21  0  9 30.0000000  0  6 23 21 03 26 28 17
  23231688.84406 -21153552.47206 -16483232.17709  23231556.98306  23231558.92806
  24805664.79806 -13034247.14406 -10156525.59009  24805533.15406  24805536.29906
  24060976.15006 -11869817.85606  -9249190.92309  24060844.86506  24060848.38906
  25825091.23006  -6150027.05806  -4792191.11309  25824959.90306  25824962.70606
  25824654.10606 -10035831.98406  -7820122.80309  25824522.18806  25824525.07806
  23316370.51006 -14443389.90406 -11254562.54209  23316238.83906  23316241.03406
 92  8 21  0 10  0.0000000  0  6 23 21 03 26 28 17
  23234264.10106 -21140019.06406 -16472686.65809  23234132.34006  23234134.29006
  24795675.87406 -13086738.63006 -10197427.99409  24795544.31106  24795547.51506
  24077697.11006 -11781948.84006  -9180721.59409  24077565.83506  24077569.31106
  25840393.00406  -6069616.23606  -4729533.34409  25840261.67106  25840264.42806
  25809366.49006 -10116169.18106  -7882723.15709  25809234.49106  25809237.34606
  23321842.38406 -14414635.03706 -11232156.16209  23321710.70506  23321712.91306
 92  8 21  0 10 30.0000000  0  6 21 23 03 26 28 17
  24785723.77506 -13139037.12606 -10238180.01509  24785592.10906  24785595.33006
  23236888.83806 -21126225.65206 -16461938.54009  23236757.09506  23236759.02306
  24094503.60406 -11693629.84706  -9111901.63509  24094372.40806  24094375.86506
  25855758.88206  -5988868.22806  -4666612.83309  25855627.46606  25855630.16706
  25794125.15506 -10196261.87506  -7945132.99109  25793993.22306  25793996.14106
  23327354.31706 -14385669.89906 -11209585.93309  23327222.60006  23327224.78906
 92  8 21  0 11  0.0000000  0  6 21 23 26 03 28 17
  24775811.60306 -13191125.28506 -10278768.13809  24775679.99006  24775683.22706
  23239567.08906 -21112151.53706 -16450971.69309  23239435.27406  23239437.21006
  25871192.51206  -5907764.38406  -4603415.04709  25871061.05906  25871063.81206
  24111397.05606 -11604853.40406  -9042725.22309  24111265.98406  24111269.56706
  25778933.48106 -10276095.42606  -8007340.89909  25778801.51006  25778804.28706
  23332909.65306 -14356476.36306 -11186837.73009  23332777.93506  23332780.14706
 92  8 21  0 11 30.0000000  0  6 21 23 26 03 28 17
  24765938.14306 -13243010.98206 -10319198.50109  24765806.46706  24765809.65106
  23242300.57606 -21097787.01906 -16439778.55709  23242168.77406  23242170.68506
  25886696.92306  -5826287.47106  -4539926.55809  25886565.52506  25886568.38406
  24128378.73206 -11515614.87506  -8973188.75009  24128247.59306  24128251.09106
  25763793.13006 -10355658.30906  -8069337.90009  25763661.11406  25763663.84506
  23338513.20106 -14327029.96706 -11163892.49009  23338381.43506  23338383.62706
 92  8 21  0 12  0.0000000  0  6 21 23 26 03 28 17
  24756107.18006 -13294673.10106 -10359454.64609  24755975.51406  24755978.70506
  23245095.51106 -21083099.94506 -16428334.07909  23244963.66806  23244965.58206
  25902278.05606  -5744407.32806  -4476123.86209  25902146.75806  25902149.58206
  24145454.43506 -11425882.13706  -8903267.17509  24145323.16506  24145326.67806
  25748707.92606 -10434930.91006  -8131108.71009  25748576.00206  25748578.72506
  23344172.32006 -14297290.77706 -11140719.09909  23344040.60006  23344042.82606
 92  8 21  0 12 30.0000000  0  6 21 23 26 03 28 17
  24746323.20306 -13346087.05306 -10399517.41209  24746191.72206  24746194.94606
  23247956.80806 -21068063.47106 -16416617.34109  23247825.02506  23247826.93806
  25917939.83806  -5662104.83606  -4411992.06609  25917808.53706  25917811.33306
  24162628.58006 -11335631.58406  -8832942.10409  24162497.26206  24162500.84006
  25733682.09606 -10513891.73606  -8192636.58109  25733550.25306  25733552.92006
  23349889.10306 -14267248.74906 -11117309.73609  23349757.38506  23349759.58806
 92  8 21  0 13  0.0000000  0  6 21 23 26 03 28 17
  24736587.11406 -13397250.58806 -10439385.04909  24736455.47906  24736458.64806
  23250886.62106 -21052667.41606 -16404620.40809  23250754.79106  23250756.70706
  25933684.31306  -5579367.30406  -4347521.28109  25933552.99406  25933555.79706
  24179902.00106 -11244859.75506  -8762210.85609  24179770.65606  24179774.20006
  25718717.29706 -10592532.10106  -8253914.73909  25718585.35606  25718588.17506
  23355660.27706 -14236920.95106 -11093677.69109  23355528.60606  23355530.78506
 92  8 21  0 13 30.0000000  0  6 21 23 26 03 28 17
  24726892.57006 -13448195.29306 -10479082.17509  24726760.94406  24726763.99706
  23253878.02506 -21036946.91106 -16392370.65509  23253746.29706  23253748.24606
  25949506.89906  -5496219.14606  -4282730.52009  25949375.56406  25949378.31006
  24197269.47906 -11153592.72806  -8691093.73809  24197138.19906  24197141.72606
  25703809.60006 -10670872.53706  -8314959.18809  25703677.60706  25703680.35706
  23361479.94506 -14206338.96006 -11069847.57009  23361348.17306  23361350.40106
 92  8 21  0 14  0.0000000  0  6 21 23 26 03 28 17
  24717237.83606 -13498930.99806 -10518616.44609  24717106.30006  24717109.39506
  23256926.75406 -21020926.22706 -16379886.99509  23256794.90206  23256796.84806
  25965401.48906  -5412691.97906  -4217644.42409  25965270.12506  25965273.00206
  24214726.59706 -11061855.18906  -8619609.98409  24214595.29706  24214598.87406
  25688955.64506 -10748930.37606  -8375783.43109  25688823.68806  25688826.46806
  23367342.19806 -14175532.07206 -11045842.19709  23367210.49706  23367212.68806
 92  8 21  0 14 30.0000000  0  6 21 23 26 03 28 17
  24707618.72306 -13549479.99606 -10558005.22709  24707487.10306  24707490.26406
  23260025.39206 -21004641.96506 -16367197.95109  23259893.59006  23259895.54106
  25981360.45506  -5328827.66506  -4152295.61809  25981229.09106  25981231.91006
  24232265.70306 -10969686.82106  -8547790.51709  24232134.43306  24232137.93006
  25674151.74106 -10826725.32306  -8436402.82609  25674019.87506  25674022.60206
  23373239.41206 -14144542.21906 -11021694.25309  23373107.65206  23373109.83306
 92  8 21  0 15  0.0000000  0  6 21 23 26 03 28 17
  24698029.10306 -13599873.87206 -10597273.14109  24697897.45006  24697900.59606
  23263166.98706 -20988132.86206 -16354333.71709  23263035.19406  23263037.14506
  25997376.32106  -5244663.65506  -4086713.30709  25997244.93606  25997247.80306
  24249879.94806 -10877123.35006  -8475663.19409  24249748.73906  24249752.27306
  25659390.32306 -10904296.09606  -8496847.56409  25659258.56006  25659261.29206
  23379165.07006 -14113402.68206 -10997429.68009  23379033.23606  23379035.45506
 92  8 21  0 15 30.0000000  0  6 21 23 26 03 28 17
  24688467.20906 -13650122.65406 -10636428.02909  24688335.52406  24688338.52106
  23266348.68406 -20971412.81406 -16341305.12909  23266216.90206  23266218.84706
  26013442.05006  -5160238.24006  -4020927.33909  26013310.66406  26013313.55306
  24267566.43406 -10784179.90306  -8403239.81509  24267435.28106  24267438.88306
  25644669.06606 -10981656.57906  -8557128.47609  25644537.28306  25644540.04306
  23385119.27606 -14082112.82306 -10973047.99509  23384987.63006  23384989.83706
 92  8 21  0 16  0.0000000  0  6 23 21 26 03 28 17
  23269576.75306 -20954448.99006 -16328086.55509  23269445.05306  23269446.98906
  24678940.62106 -13700184.27906 -10675437.04509  24678808.94006  24678811.90506
  26029559.60806  -5075540.61406  -3954929.20809  26029428.11706  26029430.97106
  24285331.41706 -10690825.12906  -8330495.88309  24285200.16606  24285203.81306
  25629995.03106 -11058769.22606  -8617216.21009  25629863.19006  25629866.01906
  23391109.57006 -14050633.82806 -10948518.90009  23390977.85206  23390980.07406
 92  8 21  0 16 30.0000000  0  6 23 21 26 03 28 17
  23272857.86306 -20937207.69106 -16314651.75909  23272726.02906  23272727.93406
  24669457.95006 -13750015.12506 -10714266.21209  24669326.32206  24669329.44606
  26045738.15906  -4990521.34906  -3888680.42909  26045606.65606  26045609.59306
  24303183.39406 -10597012.92006  -8257395.49409  24303052.06706  24303055.62806
  25615378.38106 -11135581.57806  -8677069.92609  25615246.39406  25615249.21606
  23397142.42406 -14018931.21406 -10923815.54909  23397010.65706  23397012.87106
 92  8 21  0 17  0.0000000  0  6 23 21 26 03 28 17
  23276201.35506 -20919636.28306 -16300959.73709  23276069.65706  23276071.58306
  24660032.95106 -13799544.48006 -10752860.45009  24659901.30506  24659904.36106
  26061987.74906  -4905129.00106  -3822140.94209  26061856.31206  26061859.26906
  24321133.39006 -10502685.20306  -8183893.40909  24321002.07106  24321005.69206
  25600831.53506 -11212025.11406  -8736636.26009  25600699.55606  25600702.25906
  23403228.01406 -13986950.57006 -10898895.55709  23403096.35206  23403098.52706
 92  8 21  0 17 30.0000000  0  6 23 21 26 03 28 17
  23279615.02906 -20901698.12706 -16286981.94009  23279483.17306  23279485.08906
  24650676.13106 -13848715.42306 -10791175.41509  24650544.47006  24650547.36606
  26078318.14906  -4819312.30006  -3755270.79109  26078186.82006  26078189.65206
  24339190.46306 -10407794.52306  -8109952.65909  24339059.16606  24339062.83506
  25586367.05606 -11288035.65206  -8795865.19609  25586235.14106  25586237.77306
  23409376.54206 -13954639.52706 -10873718.11209  23409244.90306  23409247.03206
 92  8 21  0 18  0.0000000  0  6 23 21 26 03 28 17
  23283097.17606 -20883398.66106 -16272722.60109  23282965.46806  23282967.36906
  24641386.30006 -13897533.09906 -10829215.11509  24641254.67606  24641257.62306
  26094734.17606  -4733045.07906  -3688049.59409  26094602.84106  26094605.78006
  24357353.75406 -10312345.98906  -8035577.23109  24357222.48906  24357226.09006
  25571984.37506 -11363617.86506  -8854760.37309  25571852.37406  25571855.00606
  23415585.88206 -13922010.20206 -10848292.66009  23415454.09106  23415456.26306
 92  8 21  0 18 30.0000000  0  6 23 21 26 03 28 17
  23286645.33406 -20864753.08606 -16258193.56909  23286513.50806  23286515.39706
  24632156.74206 -13946032.88806 -10867007.09809  24632025.19006  24632028.29606
  26111235.01706  -4646334.02006  -3620482.54909  26111103.52706  26111106.32006
  24375618.68306 -10216363.25706  -7960785.53909  24375487.37906  24375491.03706
  25557677.11206 -11438801.78406  -8913345.19109  25557545.23606  25557547.87206
  23421850.50106 -13889088.93206 -10822639.72209  23421718.81506  23421720.99406
 92  8 21  0 19  0.0000000  0  6 23 21 26 03 28 17
  23290261.75906 -20845748.36606 -16243384.68509  23290129.98806  23290131.90306
  24622987.78406 -13994217.09706 -10904553.17509  24622856.14806  24622859.14406
  26127818.28406  -4559187.70006  -3552576.34209  26127686.91806  26127689.63706
  24393984.71906 -10119848.85506  -7885579.55009  24393853.47506  24393857.21106
  25543444.44506 -11513595.58406  -8971626.02309  25543312.50506  25543315.09306
  23428174.86806 -13855853.94506 -10796742.33009  23428043.18806  23428045.34806
 92  8 21  0 19 30.0000000  0  6 23 21 26 03 28 17
  23293947.88206 -20826377.80906 -16228290.73109  23293816.10306  23293818.03406
  24613873.51106 -14042113.32906 -10941874.86209  24613741.81906  24613744.71106
  26144487.66206  -4471590.09006  -3484318.47909  26144356.01506  26144358.88306
  24412451.99606 -10022802.89406  -7809959.35509  24412320.75706  24412324.51206
  25529282.23806 -11588017.73406  -9029617.25509  25529150.23606  25529152.83206
  23434560.83606 -13822295.67806 -10770593.03209  23434429.10506  23434431.29906
 92  8 21  0 20  0.0000000  0  6 23 21 26 03 28 17
  23297703.07606 -20806644.27806 -16212913.94309  23297571.29106  23297573.20606
  24604810.03206 -14089741.42906 -10978987.61309  24604678.35406  24604681.30106
  26161237.32106  -4383570.04106  -3415731.44709  26161105.80806  26161108.61806
  24431017.15306  -9925243.10506  -7733938.77509  24430885.81506  24430889.54406
  25515186.88706 -11662089.55506  -9087335.50809  25515054.97206  25515057.49106
  23441007.18706 -13788419.76806 -10744196.22609  23440875.44606  23440877.60806
 92  8 21  0 20 30.0000000  0  6 23 21 26 03 28 17
  23301518.58606 -20786593.25706 -16197289.76009  23301386.83206  23301388.73706
  24595792.32506 -14137129.09306 -11015913.00709  24595660.71806  24595663.67406
  26178054.44806  -4295196.05206  -3346868.61609  26177922.78206  26177925.61306
  24449672.63806  -9827207.88806  -7657547.73709  24449541.32106  24449545.05106
  25501151.76106 -11735844.61106  -9144806.93309  25501019.81806  25501022.39106
  23447508.63306 -13754254.37906 -10717573.85409  23447376.93506  23447379.14406
 92  8 21  0 21  0.0000000  0  6 23 21 26 03 28 17
  23305392.89106 -20766234.21106 -16181425.55909  23305261.05006  23305262.95406
  24586821.81906 -14184269.57306 -11052645.79209  24586690.21906  24586693.12506
  26194934.18806  -4206491.93106  -3277748.53909  26194802.60806  26194805.45206
  24468416.15906  -9728709.31506  -7580795.64709  24468284.95206  24468288.70706
  25487177.06406 -11809280.54806  -9202029.69209  25487045.14306  25487047.78006
  23454062.50506 -13719813.87706 -10690737.10909  23453930.74206  23453932.93606
 92  8 21  0 21 30.0000000  0  6 23 21 26 03 28 17
  23309328.99806 -20745549.65406 -16165307.71309  23309197.22206  23309199.10406
  24577906.48506 -14231119.97406 -11089152.54009  24577774.81706  24577777.74906
  26211881.19006  -4117434.57406  -3208353.21209  26211749.64606  26211752.59106
  24487253.16406  -9629720.73506  -7503661.73409  24487121.91206  24487125.62406
  25473271.20406 -11882357.37306  -9258972.62809  25473139.18906  25473141.76206
  23460671.37706 -13685084.18306 -10663675.01709  23460539.61606  23460541.81406
 92  8 21  0 22  0.0000000  0  6 23 21 26 03 28 17
  23313329.04506 -20724528.90306 -16148927.90109  23313197.27906  23313199.16306
  24569051.71106 -14277651.45206 -11125410.77209  24568920.08506  24568923.04406
  26228894.05506  -4028031.81606  -3138688.73809  26228762.44706  26228765.38306
  24506185.05106  -9530233.66706  -7426139.38609  24506053.71006  24506057.46906
  25459439.82606 -11955041.55806  -9315609.61009  25459307.96106  25459310.49906
  23467335.76206 -13650062.92406 -10636385.73309  23467204.01706  23467206.18206
 92  8 21  0 22 30.0000000  0  6 23 21 26 03 28 17
  23317390.80706 -20703183.67706 -16132295.25009  23317259.10006  23317261.00206
  24560256.38806 -14323871.25106 -11161426.14009  24560124.72706  24560127.59206
  26245970.26306  -3938295.34306  -3068764.23009  26245838.72906  26245841.73006
  24525210.05106  -9430257.13306  -7348235.64609  24525078.65906  24525082.44706
  25445682.95206 -12027333.85506  -9371941.23109  25445551.15106  25445553.61006
  23474050.57406 -13614776.14606 -10608889.54809  23473918.88906  23473921.09606
 92  8 21  0 23  0.0000000  0  6 23 21 26 03 28 17
  23321517.78906 -20681496.93906 -16115396.48609  23321385.93406  23321387.84506
  24551520.96706 -14369776.16906 -11197196.15809  24551389.28406  24551392.07406
  26263114.81306  -3848200.37806  -2998560.37909  26262983.26206  26262986.18506
  24544330.20106  -9329779.39206  -7269941.35409  24544198.99106  24544202.73506
  25432004.02106 -12099217.22106  -9427954.20009  25431872.12506  25431874.65206
  23480817.05306 -13579217.97706 -10581181.89309  23480685.35006  23480687.51106
 92  8 21  0 23 30.0000000  0  6 23 21 26 03 28 17
  23325708.63506 -20659473.19406 -16098235.11809  23325576.89706  23325578.79506
  24542842.98606 -14415378.73206 -11232730.57209  24542711.33406  24542714.23506
  26280330.39206  -3757731.09506  -2928064.85409  26280199.00906  26280201.83206
  24563546.75406  -9228795.36806  -7191252.53609  24563415.62406  24563419.40506
  25418404.65206 -12170682.84106  -9483641.65109  25418272.69106  25418275.08406
  23487638.98406 -13543368.54706 -10553247.27909  23487507.24606  23487509.42606
 92  8 21  0 24  0.0000000  0  6 23 21 26 03 28 17
  23329958.13806 -20637141.81006 -16080834.02809  23329826.35806  23329828.28406
  24534214.80906 -14460720.02106 -11268061.39509  24534083.16406  24534086.01606
  26297612.31106  -3666914.04606  -2857298.34609  26297481.00306  26297483.82406
  24582854.94706  -9127331.08106  -7112189.49709  24582723.64006  24582727.48806
  25404879.27206 -12241758.90206  -9539025.54609  25404747.28706  25404749.71206
  23494514.06706 -13507239.71206 -10525094.94309  23494382.33606  23494384.52406
 92  8 21  0 24 30.0000000  0  6 23 21 26 03 28 17
  23334263.81906 -20614515.51106 -16063203.13709  23334132.01506  23334133.90406
  24525633.65206 -14505813.98506 -11303199.50309  24525502.01706  24525504.89406
  26314959.19506  -3575755.55106  -2786265.77509  26314827.83806  26314830.82006
  24602252.09106  -9025399.48306  -7032762.33309  24602120.68706  24602124.49406
  25391424.13706 -12312465.36006  -9594121.43509  25391292.23806  25391294.68906
  23501442.01606 -13470833.25806 -10496726.28109  23501310.26806  23501312.44006
 92  8 21  0 25  0.0000000  0  6 23 21 26 03 28 17
  23338625.32606 -20591595.51806 -16045343.39009  23338493.54606  23338495.44806
  24517100.74906 -14550654.30106 -11338139.96509  24516969.08106  24516971.98406
  26332373.73606  -3484241.96106  -2714956.50909  26332242.24406  26332245.17506
  24621738.39606  -8922998.01606  -6952969.04109  24621607.05006  24621610.83106
  25378041.96906 -12382789.16006  -9648919.14609  25377909.97106  25377912.42506
  23508426.81706 -13434128.00106 -10468124.78209  23508295.04306  23508297.24906
 92  8 21  0 26  0.0000000  4  1
 -2240354.0000 -4717758.0000  3651637.0000                  APPROX POSITION XYZ
 92  8 21  0 25 30.0000000  0  6 23 21 26 03 28 17
  23343041.69606 -20568387.44706 -16027259.16609  23342909.89906  23342911.82106
  24508616.97706 -14595236.61206 -11372879.38409  24508485.31106  24508488.13306
  26349854.79606  -3392378.62406  -2643374.71709  26349723.37506  26349726.31906
  24641314.41606  -8820125.42206  -6872808.63609  24641183.10906  24641186.94006
  25364733.04406 -12452727.98906  -9703416.88109  25364601.05006  25364603.46106
  23515470.61506 -13397112.85406 -10439281.80809  23515338.77706  23515340.96406
 92  8 21  0 26  0.0000000  0  6 23 21 26 03 28 17
  23347511.57106 -20544898.04106 -16008955.72409  23347379.80506  23347381.71906
  24500181.75606 -14639564.05906 -11407420.21009  24500050.13006  24500052.86306
  26367396.64006  -3300195.07006  -2571543.40809  26367265.23406  26367268.30006
  24660976.47106  -8716800.71406  -6792295.92609  24660845.20606  24660848.98406
  25351494.85206 -12522294.07306  -9757624.16309  25351362.88606  25351365.32606
  23522567.78706 -13359816.26106 -10410219.52609  23522436.08806  23522438.26906
 92  8 21  0 26 30.0000000  0  6 23 21 26 03 28 17
  23352034.48906 -20521129.87306 -15990435.06209  23351902.68006  23351904.56406
  24491791.67306 -14683654.05006 -11441776.00209  24491660.03206  24491662.91506
  26384996.22706  -3207708.96806  -2499476.35409  26384864.74506  26384867.76206
  24680720.05606  -8613047.36906  -6711449.21209  24680588.82706  24680592.61206
  25338326.39006 -12591493.43306  -9811545.68909  25338194.47706  25338196.88206
  23529713.81606 -13322263.95806 -10380957.98809  23529582.06906  23529584.22506
 92  8 21  0 27  0.0000000  0  6 23 21 26 03 28 17
  23356614.50906 -20497061.29106 -15971680.31009  23356482.72406  23356484.62306
  24483452.16406 -14727478.16406 -11475924.60809  24483320.53506  24483323.44906
  26402658.32506  -3114894.59406  -2427153.50609  26402526.91106  26402529.95306
  24700550.50106  -8508838.07206  -6630247.21509  24700419.19906  24700423.08606
  25325235.21906 -12660288.04806  -9865151.83009  25325103.37206  25325105.60706
  23536913.24906 -13284430.06006 -10351477.03109  23536781.52606  23536783.73206
 92  8 21  0 27 30.0000000  0  6 23 21 26 03 28 17
  23361256.84906 -20472665.53506 -15952670.61909  23361125.10306  23361127.01906
  24475165.80106 -14771023.30706 -11509855.84709  24475034.13406  24475036.82906
  26420386.04006  -3021734.26006  -2354561.07709  26420254.79906  26420257.79606
  24720470.26306  -8404159.11906  -6548679.25409  24720338.96206  24720342.84506
  25312223.77806 -12728665.15306  -9918432.64209  25312091.80106  25312094.03106
  23544165.86706 -13246317.79606 -10321779.15809  23544034.10906  23544036.31706
 92  8 21  0 28  0.0000000  0  6 23 21 26 03 28 17
  23365961.16006 -20447944.16606 -15933407.20509  23365829.39806  23365831.27706
  24466929.49206 -14814305.26806 -11543582.02209  24466797.82906  24466800.46406
  26438178.87406  -2928232.50806  -2281702.61009  26438047.54906  26438050.58506
  24740475.62306  -8299030.32706  -6466760.77509  24740344.38206  24740348.24706
  25299290.12506 -12796632.17306  -9971393.91109  25299158.14406  25299160.31206
  23551469.60606 -13207936.08806 -10291871.33509  23551337.94406  23551340.14806
 92  8 21  0 28 30.0000000  0  6 23 21 26 03 28 17
  23370717.82106 -20422947.91606 -15913929.60009  23370586.07706  23370587.96206
  24458736.60706 -14857357.97006 -11577129.54609  24458605.02706  24458607.89206
  26456031.46006  -2834416.06506  -2208598.93309  26455900.15006  26455903.16606
  24760559.62306  -8193488.12106  -6384520.15009  24760428.38806  24760432.34506
  25286426.06406 -12864233.49606 -10024070.22209  25286294.05906  25286296.25106
  23558819.16206 -13169314.19106 -10261776.34709  23558687.39306  23558689.64106
 92  8 21  0 29  0.0000000  0  6 23 21 26 03 28 17
  23375522.72106 -20397698.18306 -15894254.47609  23375390.96206  23375392.84506
  24450587.72706 -14900180.88906 -11610498.00709  24450456.12306  24450458.99906
  26473943.54106  -2740287.53306  -2135252.07309  26473812.35206  26473815.33706
  24780721.83706  -8087534.60206  -6301959.01709  24780590.70306  24780594.64206
  25273628.51906 -12931484.26206 -10076473.37909  25273496.53706  25273498.76506
  23566212.59206 -13130461.17006 -10231501.26109  23566080.80506  23566083.00006
 92  8 21  0 29 30.0000000  0  6 23 21 26 03 28 17
  23380377.27606 -20372187.13806 -15874375.73309  23380245.49906  23380247.38206
  24442483.25706 -14942771.08806 -11643685.13809  24442351.56806  24442354.18706
  26491915.57806  -2645844.81006  -2061660.38809  26491784.19406  26491787.19106
  24800963.23806  -7981166.49006  -6219074.82109  24800831.86906  24800835.87006
  25260898.89506 -12998378.28606 -10128598.55609  25260766.95406  25260769.23206
  23573653.89006 -13091356.70706 -10201030.25109  23573522.19106  23573524.37506
 92  8 21  0 30  0.0000000  0  6 23 21 26 03 28 17
  23385282.20306 -20346410.99606 -15854290.41909  23385150.44606  23385152.31906
  24434428.27606 -14985099.96206 -11676668.64809  24434296.57906  24434299.16806
  26509947.58806  -2551085.91006  -1987822.33509  26509816.23606  26509819.37206
  24821286.24906  -7874368.30606  -6135855.50309  24821154.93606  24821158.92306
  25248243.05706 -13064886.08006 -10180422.77709  25248111.03906  25248113.34106
  23581149.55206 -13051966.28606 -10170336.42009  23581017.87506  23581020.08406
 92  8 21  0 30 30.0000000  0  6 23 21 03 26 28 17
  23390242.05506 -20320346.81106 -15833980.65609  23390110.26706  23390112.16006
  24426430.86806 -15027125.49906 -11709415.78209  24426299.28406  24426302.06706
  24841697.31706  -7767106.77606  -6052275.13909  24841566.15906  24841570.15906
  26528042.90306  -2455994.14606  -1913724.90609  26527911.65906  26527914.75106
  25235667.60806 -13130968.96006 -10231915.90009  25235535.71806  25235538.02606
  23588702.82506 -13012274.15306 -10139407.48409  23588571.08106  23588573.29006
 92  8 21  0 31  0.0000000  0  6 21 23 03 26 28 17
  24418497.56406 -15068815.76306 -11741901.65609  24418365.89806  24418368.71106
  23395267.66006 -20293937.14506 -15813401.68909  23395135.88806  23395137.76506
  24862204.65106  -7659340.63306  -5968301.58309  24862073.40406  24862077.46906
  26546208.09406  -2360537.01606  -1839342.77109  26546076.63106  26546079.65306
  25223185.22206 -13196563.74706 -10283028.69009  25223053.34706  25223055.70406
  23596322.39806 -12972232.83706 -10108206.46309  23596190.69906  23596192.85706
 92  8 21  0 31 30.0000000  0  6 21 23 03 26 28 17
  24410629.64406 -15110162.23506 -11774119.65009  24410497.99606  24410500.60506
  23400363.94106 -20267156.44806 -15792533.60609  23400232.15306  23400234.02706
  24882808.67706  -7551066.52706  -5883932.21509  24882677.33406  24882681.41606
  26564441.21106  -2264720.90306  -1764680.90909  26564309.84506  26564312.93006
  25210799.56306 -13261651.48706 -10333746.38009  25210667.65806  25210669.99206
  23604010.72406 -12931830.23806 -10076723.92509  23603879.04606  23603881.22806
 92  8 21  0 32  0.0000000  0  6 21 23 03 26 28 17
  24402824.14106 -15151178.83806 -11806080.60709  24402692.57006  24402695.23906
  23405528.72006 -20240015.49406 -15771384.80409  23405396.92806  23405398.79206
  24903506.69806  -7442297.69106  -5799177.34109  24903375.39606  24903379.50906
  26582739.52706  -2168563.32106  -1689752.96509  26582608.16306  26582611.27206
  25198508.14206 -13326243.24106 -10384077.59109  25198376.13906  25198378.42706
  23611762.95606 -12891092.33406 -10044980.10609  23611631.21706  23611633.46106
 92  8 21  0 32 30.0000000  0  6 21 23 03 26 28 17
  24395068.16406 -15191937.40606 -11837840.49209  24394936.47406  24394939.17206
  23410753.59106 -20212558.28506 -15749989.57009  23410621.81806  23410623.71406
  24924289.36206  -7333083.78306  -5714075.65409  24924158.18006  24924162.25806
  26601092.90906  -2072115.70706  -1614599.02309  26600961.49006  26600964.55806
  25186298.67906 -13390403.71306 -10434072.73409  25186166.67906  25186168.92406
  23619570.49106 -12850063.54206 -10013009.62209  23619438.73106  23619440.95206
 92  8 21  0 33  0.0000000  0  6 21 23 03 26 28 17
  24387355.38206 -15232469.38206 -11869423.81209  24387223.67606  24387226.34706
  23416033.34506 -20184812.99206 -15728369.85509  23415901.55906  23415903.42706
  24945152.50906  -7223447.93706  -5628645.17909  24945021.26706  24945025.31006
  26619498.41406  -1975394.23506  -1539231.68009  26619366.86806  26619370.01606
  25174165.25106 -13454163.92306 -10483755.98409  25174033.41606  25174035.67006
  23627429.91706 -12808762.42306  -9980826.93609  23627298.07506  23627300.31806
 92  8 21  0 33 30.0000000  0  6 21 23 03 26 28 17
  24379684.17806 -15272779.85306 -11900834.52909  24379552.63306  24379555.38706
  23421360.84306 -20156816.92706 -15706554.73509  23421229.05606  23421230.93206
  24966091.13106  -7113415.17806  -5542905.42009  24965959.91106  24965963.98506
  26637955.12506  -1878404.07806  -1463654.97209  26637823.57606  26637826.72406
  25162103.22006 -13517550.38306 -10533147.99509  25161971.34706  25161973.61206
  23635336.12406 -12767214.86906  -9948452.22309  23635204.34506  23635206.55306
 92  8 21  0 34  0.0000000  0  6 21 23 03 26 28 17
  24372052.04306 -15312886.94906 -11932086.76509  24371920.46706  24371923.12206
  23426727.24406 -20128615.72006 -15684579.76209  23426595.52906  23426597.42806
  24987101.77706  -7003004.08106  -5456870.85909  24986970.44206  24986974.54506
  26656461.24806  -1781154.58806  -1387876.18209  26656329.55606  26656332.75206
  25150109.11006 -13580581.33606 -10582262.98509  25149977.15306  25149979.32906
  23643285.80606 -12725438.74206  -9915899.40209  23643154.11506  23643156.27006
 92  8 21  0 34 30.0000000  0  6 21 23 03 28 26 17
  24364461.39106 -15352777.80606 -11963170.51609  24364329.62606  24364332.11306
  23432134.03206 -20100203.17406 -15662440.11409  23432002.25906  23432004.13206
  25008184.82006  -6892212.18306  -5370539.56909  25008053.50306  25008057.60206
  25138185.12406 -13643242.89606 -10631090.13009  25138053.13406  25138055.33106
  26675019.54006  -1683630.18306  -1311883.17609  26674887.81706  26674891.02506
  23651279.49906 -12683431.54506  -9883166.52209  23651147.82706  23651150.00106
 92  8 21  0 35  0.0000000  0  6 21 23 03 28 26 17
  24356920.46206 -15392404.36306 -11994048.32109  24356788.85706  24356791.49506
  23437585.79406 -20071553.71406 -15640115.85809  23437454.06206  23437455.94606
  25029344.71406  -6781017.11306  -5283894.11909  25029213.33306  25029217.34206
  25126339.79006 -13705489.26406 -10679593.74609  25126207.90106  25126210.16106
  26693635.69406  -1585801.56806  -1235653.12609  26693504.05206  26693507.27406
  23659320.83806 -12641174.22606  -9850238.74709  23659189.09606  23659191.26106
 92  8 21  0 35 30.0000000  0  6 21 23 03 28 26 17
  24349434.36506 -15431742.60906 -12024701.45309  24349302.77906  24349305.60906
  23443085.73906 -20042651.79606 -15617594.88209  23442953.92206  23442955.79806
  25050584.23106  -6669402.55506  -5196921.78709  25050452.86606  25050456.95406
  25114579.18506 -13767290.29806 -10727750.34709  25114447.40406  25114449.70006
  26712310.15106  -1487666.44006  -1159184.23209  26712178.64306  26712181.94906
  23667415.52906 -12598636.28106  -9817092.30009  23667283.80706  23667285.96706
 92  8 21  0 36  0.0000000  0  6 21 23 03 28 26 17
  24342001.73906 -15470802.63006 -12055137.79209  24341870.05206  24341872.68406
  23448635.55306 -20013487.05506 -15594869.11009  23448503.83506  23448505.71706
  25071902.97006  -6557370.76006  -5109624.35009  25071771.85706  25071775.89206
  25102904.18706 -13828643.49906 -10775557.98609  25102772.35606  25102774.64606
  26731037.12606  -1389255.11306  -1082500.12109  26730905.74306  26730908.92406
  23675563.83106 -12555816.71406  -9783726.40809  23675432.09906  23675434.28006
 92  8 21  0 36 30.0000000  0  6 21 23 03 28 26 17
  24334619.78006 -15509594.52906 -12085365.21209  24334488.15906  24334490.73906
  23454236.12006 -19984055.90606 -15571935.74709  23454104.31606  23454106.19206
  25093298.54206  -6444937.29606  -5022013.92109  25093167.31706  25093171.40506
  25091312.07506 -13889561.74906 -10823026.69909  25091180.03506  25091182.30406
  26749812.89806  -1290587.03606  -1005615.94409  26749681.67806  26749684.89206
  23683763.73506 -12512725.99806  -9750149.23109  23683632.01106  23683634.18806
 92  8 21  0 37  0.0000000  0  6 21 23 03 28 26 17
  24327286.86706 -15548128.72706 -12115391.82009  24327155.27506  24327157.96506
  23459882.04806 -19954385.60006 -15548816.02709  23459750.39706  23459752.27806
  25114766.96206  -6332121.20806  -4934105.34009  25114635.51106  25114639.63406
  25079796.56906 -13950075.53006 -10870180.24409  25079664.55606  25079666.80806
  26768632.70106  -1191689.19206   -928552.72309  26768501.31406  26768504.57506
  23692014.11306 -12469370.22506  -9716365.51509  23691882.32906  23691884.52906
 92  8 21  0 37 30.0000000  0  6 21 23 03 28 26 17
  24320008.27106 -15586378.42206 -12145196.73909  24319876.57106  24319879.27406
  23465580.32506 -19924441.92406 -15525483.28709  23465448.48906  23465450.43106
  25136314.22006  -6218889.07406  -4845872.56509  25136182.90806  25136186.93906
  25068364.69306 -14010148.84806 -10916990.57209  25068232.76406  25068235.01206
  26787502.33106  -1092527.75806   -851284.11009  26787371.02306  26787374.34706
  23700322.94906 -12425706.67206  -9682341.97309  23700191.09606  23700193.32906
 92  8 21  0 38  0.0000000  0  6 21 23 03 28 26 17
  24312781.91306 -15624352.76306 -12174787.09709  24312650.31706  24312652.98806
  23471332.84706 -19894211.62406 -15501927.20509  23471201.14706  23471203.03206
  25157939.51606  -6105245.69106  -4757319.34509  25157808.52406  25157812.68706
  25057017.64606 -14069778.53906 -10963455.22309  25056885.71706  25056888.00406
  26806424.57906   -993091.74506   -773801.53809  26806293.08306  26806296.38606
  23708688.17806 -12381747.00906  -9648087.69009  23708556.45706  23708558.64106
 92  8 21  0 38 30.0000000  0  6 21 23 03 28 26 17
  24305603.19406 -15662077.14806 -12204182.68309  24305471.53906  24305474.15406
  23477133.84106 -19863727.66206 -15478173.46409  23477002.00806  23477003.91406
  25179638.23806  -5991218.64606  -4668467.17409  25179507.20406  25179511.38506
  25045752.70206 -14128975.36706 -11009582.58209  25045620.79006  25045623.07806
  26825397.72606   -893388.02906   -696110.36609  26825266.16606  26825269.44806
  23717106.33106 -12337509.13706  -9613616.62009  23716974.62306  23716976.82306
 92  8 21  0 39  0.0000000  0  6 21 23 03 28 26 17
  24298470.64806 -15699558.67106 -12233389.03209  24298339.04206  24298341.53606
  23482983.31806 -19832987.77306 -15454220.29709  23482851.57906  23482853.46306
  25201409.87506  -5876809.87806  -4579317.55609  25201278.54806  25201282.68406
  25034574.45906 -14187717.38606 -11055355.54809  25034442.52606  25034444.79206
  26844422.42506   -793413.48406   -618208.16009  26844290.81706  26844294.07106
  23725578.56506 -12292987.62606  -9578924.53309  23725446.79806  23725448.98806
 92  8 21  0 39 30.0000000  0  6 21 23 03 28 26 17
  24291382.41706 -15736807.16706 -12262413.80309  24291250.82006  24291253.39006
  23488881.35006 -19801993.38106 -15430068.81609  23488749.57706  23488751.47906
  25223253.40706  -5762021.70606  -4489872.29809  25223122.01906  25223126.20206
  25023487.25106 -14245981.10506 -11100755.82009  25023355.32006  25023357.58506
  26863497.71406   -693172.89306   -540098.64609  26863366.03806  26863369.26406
  23734103.95906 -12248186.57206  -9544014.61709  23733972.19506  23733974.34806
 92  8 21  0 40  0.0000000  0  6 21 23 03 28 26 17
  24284339.84306 -15773816.93906 -12291252.55209  24284208.11006  24284210.73406
  23494827.82606 -19770744.37906 -15405718.93709  23494696.06606  23494697.95706
  25245168.71106  -5646855.20606  -4400132.24109  25245037.40106  25245041.76806
  25012491.09806 -14303766.86206 -11145783.65709  25012358.99806  25012361.22906
  26882622.99706   -592668.27106   -461783.38609  26882491.44406  26882494.66206
  23742680.28806 -12203117.78206  -9508896.07409  23742548.49206  23742550.63406
 92  8 21  0 40 30.0000000  0  6 21 23 03 28 26 17
  24277344.88506 -15810575.60906 -12319895.63909  24277213.21606  24277215.75106
  23500822.55506 -19739242.00806 -15381171.62709  23500690.78506  23500692.67306
  25267158.13106  -5531300.97706  -4310090.06609  25267026.73506  25267031.13106
  25001586.70806 -14361069.35606 -11190434.93309  25001454.77906  25001457.06906
  26901799.30206   -491896.32706   -383259.82909  26901667.60306  26901670.93406
  23751311.76006 -12157758.75906  -9473551.38409  23751180.00606  23751182.15506
 92  8 21  0 41  0.0000000  0  6 21 23 03 28 26 17
  24270403.65506 -15847050.51506 -12348317.61409  24270272.09106  24270274.60106
  23506869.34406 -19707466.37506 -15356411.38509  23506737.50406  23506739.40506
  25289226.46006  -5415331.74806  -4219724.51609  25289095.04606  25289099.43206
  24990775.35006 -14417882.16006 -11234704.63709  24990643.47306  24990645.77706
  26921029.14306   -390841.58506   -304515.90709  26920897.69906  26920900.84706
  23760002.05606 -12112090.63206  -9437965.83909  23759870.35306  23759872.46706
 92  8 21  0 41 30.0000000  0  6 21 23 03 28 26 17
  24263520.32206 -15883222.42406 -12376503.48909  24263388.77506  24263391.30806
  23512971.21106 -19675400.12406 -15331424.68709  23512839.50806  23512841.41306
  25311377.30206  -5298928.41806  -4129020.69609  25311245.94906  25311250.26206
  24980057.51706 -14474205.44106 -11278592.89609  24979925.62906  24979927.87006
  26940316.62406   -289485.37706   -225537.07409  26940185.18506  26940188.34706
  23768751.60706 -12066111.63606  -9402138.05709  23768619.93006  23768622.08106
 92  8 21  0 42  0.0000000  0  6 21 23 03 28 26 17
  24256699.05006 -15919069.24406 -12404436.05209  24256567.44806  24256569.97106
  23519137.30006 -19642998.02706 -15306176.28909  23519005.47206  23519007.35206
  25333616.92506  -5182057.37906  -4037952.42009  25333485.79506  25333490.15906
  24969438.48706 -14530008.49206 -11322075.78009  24969306.63306  24969308.85506
  26959669.85206   -187785.00206   -146290.05809  26959538.17906  26959541.42106
  23777567.64506 -12019782.87006  -9366037.72609  23777435.84406  23777438.02006
 92  8 21  0 42 30.0000000  0  6 26 21 23 03 28 17
  26979090.19706    -85731.14306    -66767.59509  26978958.48006  26978961.69306
  24249940.14606 -15954587.94806 -12432112.94109  24249808.47606  24249810.99606
  23525367.54706 -19610257.18506 -15280663.93509  23525235.80906  23525237.65606
  25355946.55406  -5064714.47206  -3946516.45809  25355815.41606  25355819.81106
  24958920.81106 -14585279.51306 -11365144.08709  24958788.92806  24958791.07806
  23786453.27806 -11973089.07406  -9329652.96609  23786321.47006  23786323.68106
 92  8 21  0 43  0.0000000  0  6 26 21 23 03 28 17
  26998568.01806     16625.91306     12991.12709  26998436.30406  26998439.52806
  24243235.76906 -15989819.05006 -12459565.72209  24243104.10906  24243106.67706
  23531655.82906 -19577212.18106 -15254914.57209  23531523.98806  23531525.90706
  25378357.21606  -4946947.42706  -3854749.99209  25378225.90806  25378230.24806
  24948498.25006 -14640050.78406 -11407822.97809  24948366.25206  24948368.50406
  23795397.40706 -11926087.37006  -9293028.27809  23795265.63306  23795267.80106
 92  8 21  0 43 30.0000000  0  6 26 21 23 03 28 17
  27018103.62006    119286.47906     92986.35109  27017972.09306  27017975.25906
  24236585.21606 -16024767.89506 -12486798.55909  24236453.57806  24236456.07006
  23538005.14106 -19543845.88606 -15228914.85409  23537873.44106  23537875.29606
  25400847.50706  -4828760.59706  -3762656.43109  25400716.13506  25400720.57206
  24938175.82306 -14694294.13806 -11450090.50109  24938043.88006  24938046.17406
  23804403.86206 -11878758.03506  -9256148.28909  23804272.13106  23804274.30506
 92  8 21  0 44  0.0000000  0  6 26 21 23 03 28 17
  27037697.59806    222252.15806    173219.31909  27037565.80306  27037569.03006
  24229994.41106 -16059403.30506 -12513787.16709  24229862.72206  24229865.12306
  23544416.59706 -19510153.82806 -15202661.29709  23544284.77806  23544286.62906
  25423419.57706  -4710143.09806  -3670227.28209  25423288.35106  25423292.76006
  24927959.09706 -14747983.80906 -11491926.57709  24927827.17406  24927829.39306
  23813480.04006 -11831062.56206  -9218983.00009  23813348.31806  23813350.45906
 92  8 21  0 44 30.0000000  0  6 26 21 23 03 28 17
  27057346.97906    325511.07506    253680.78509  27057215.25506  27057218.45706
  24223466.46406 -16093707.26506 -12540517.49809  24223334.77006  24223337.35206
  23550888.29206 -19476144.22406 -15176160.30409  23550756.59806  23550758.44706
  25446073.27706  -4591097.13606  -3577464.26709  25445942.04106  25445946.42606
  24917846.22506 -14801127.95806 -11533337.56709  24917714.32706  24917716.43706
  23822625.57106 -11783002.34506  -9181533.49409  23822493.84806  23822496.01606
 92  8 21  0 45  0.0000000  0  6 26 21 23 03 28 17
  27077048.89506    429045.05006    334356.57909  27076917.25806  27076920.38706
  24217002.43606 -16127675.40906 -12566986.14809  24216870.83006  24216873.39406
  23557419.36906 -19441823.75606 -15149417.08109  23557287.54806  23557289.44106
  25468806.79206  -4471632.26406  -3484374.82909  25468675.56006  25468679.99306
  24907835.53506 -14853734.80206 -11574329.87209  24907703.52306  24907705.59406
  23831839.96006 -11734580.45806  -9143802.16209  23831708.26006  23831710.42206
 92  8 21  0 45 30.0000000  0  6 26 21 23 03 28 17
  27096795.84406    532815.61406    415216.73109  27096664.11406  27096667.36906
  24210595.75006 -16161343.91606 -12593221.32009  24210464.00706  24210466.39506
  23563998.08806 -19407252.06606 -15122478.10409  23563866.37906  23563868.25606
  25491611.87306  -4351792.07106  -3390992.93309  25491480.48606  25491484.86906
  24897918.14206 -14905851.30606 -11614940.08709  24897786.09806  24897788.20706
  23841115.10306 -11685839.33906  -9105822.07809  23840983.38806  23840985.54506
 92  8 21  0 46  0.0000000  0  6 26 21 23 03 28 17
  27116580.07606    636782.73706    496230.04109  27116448.41006  27116451.62206
  24204238.95306 -16194747.91006 -12619250.38609  24204107.38806  24204109.79906
  23570616.13406 -19372474.54206 -15095378.73709  23570484.35906  23570486.22306
  25514480.67506  -4231616.27406  -3297349.52209  25514349.25706  25514353.78306
  24888084.94506 -14957524.47906 -11655204.85109  24887952.97606  24887955.17806
  23850439.54006 -11636838.93206  -9067639.95309  23850307.83706  23850310.05506
 92  8 21  0 46 30.0000000  0  6 26 21 23 03 28 17
  27136397.88606    740927.57606    577381.83509  27136266.45806  27136269.65006
  24197926.91606 -16227917.27206 -12645096.61209  24197795.36806  24197797.89206
  23577271.46406 -19337500.69706 -15068126.39209  23577139.70506  23577141.59806
  25537408.86806  -4111126.48706  -3203461.45509  25537277.72506  25537282.16206
  24878333.11806 -15008769.35606 -11695135.87809  24878201.21206  24878203.47406
  23859806.72606 -11587614.20406  -9029283.02709  23859674.98506  23859677.19006
 92  8 21  0 47  0.0000000  0  6 26 21 23 03 28 17
  27156246.49606    845233.26806    658658.96009  27156115.13006  27156118.38306
  24191655.99606 -16260872.43206 -12670775.92809  24191524.32306  24191526.71606
  23583961.04106 -19302346.97706 -15040733.88809  23583829.23306  23583831.13606
  25560393.90806  -3990338.32206  -3109340.89109  25560262.93806  25560267.43506
  24868663.04606 -15059585.92806 -11734733.16309  24868531.09206  24868533.33306
  23869215.77706 -11538168.65106  -8990754.03009  23869084.05206  23869086.28406
 92  8 21  0 47 30.0000000  0  6 26 21 23 03 28 17
  27176121.81106    949679.02306    740045.22809  27175990.55006  27175993.81006
  24185420.67706 -16293638.54806 -12696307.94409  24185289.07606  24185291.46106
  23590682.46706 -19267025.26806 -15013210.48209  23590550.78106  23590552.63406
  25583433.77906  -3869264.35306  -3014997.61809  25583302.63506  25583307.16306
  24859072.93006 -15109982.57106 -11774003.22909  24858940.98106  24858943.16606
  23878664.62406 -11488514.36506  -8952062.38109  23878532.91206  23878535.11906
 92  8 21  0 48  0.0000000  0  6 26 21 23 03 28 17
  27196014.20006   1054213.64406    821500.74009  27195882.90606  27195886.07506
  24179211.47006 -16326267.17006 -12721732.81709  24179079.90806  24179082.40506
  23597429.26606 -19231571.14106 -14985583.89409  23597297.43506  23597299.31206
  25606519.04206  -3747951.48306  -2920468.18709  25606387.83906  25606392.36506
  24849554.25406 -15160003.13306 -11812980.24709  24849422.32606  24849424.42706
  23888148.37006 -11438677.84306  -8913228.72809  23888016.62206  23888018.82606
 92  8 21  0 48 30.0000000  0  6 26 21 23 03 28 17
  27215920.77406   1158822.23806    903013.89509  27215789.39206  27215792.67206
  24173027.96106 -16358762.70206 -12747053.98209  24172896.31606  24172898.76506
  23604197.82306 -19196001.82906 -14957867.55409  23604066.06706  23604067.96906
  25629647.82806  -3626409.51506  -2825760.24309  25629516.47806  25629521.14106
  24840106.84106 -15209648.89106 -11851665.21309  24839974.84006  24839976.95206
  23897668.04506 -11388651.58406  -8874247.22909  23897536.34706  23897538.55106
 92  8 21  0 49  0.0000000  0  7 26 11 21 23 03 28 17
  27235848.54106   1263544.51406    984615.63409  27235717.25306  27235720.57006
  28353155.05516        -0.98916        -0.56719  28353023.33616  28353028.21016
  24166876.75006 -16391087.45106 -12772242.07109  24166745.06706  24166747.51706
  23610995.28306 -19160280.90906 -14930033.07509  23610863.50806  23610865.38206
  25652827.09906  -3504601.72706  -2730845.16709  25652695.75206  25652700.43106
  24830739.90706 -15258872.78506 -11890021.45709  24830607.98006  24830610.03106
  23907230.81606 -11338399.06306  -8835089.42209  23907099.06706  23907101.28506
 92  8 21  0 49 30.0000000  0  7 26 11 21 23 03 28 17
  27255808.36306   1368432.65906   1066346.62309  27255676.90706  27255680.17006
  28333871.01406   -101336.17906    -78963.03809  28333739.89106  28333745.00106
  24160765.80506 -16423199.07506 -12797264.08609  24160634.26306  24160636.72806
  23617832.53906 -19124350.87006 -14902035.64409  23617700.80806  23617702.65806
  25676064.96706  -3382486.95906  -2635690.88309  25675933.55706  25675938.11506
  24821461.95006 -15307628.86606 -11928013.17509  24821329.93306  24821332.02106
  23916842.63506 -11287888.74806  -8795730.73509  23916710.88006  23916713.07406
 92  8 21  0 50  0.0000000  0  7 26 11 21 23 03 28 17
  27275810.55006   1473544.82906   1148252.18209  27275679.03906  27275682.23606
  28314585.20506   -202683.92306   -157935.28209  28314454.13106  28314459.00406
  24154704.80606 -16455052.16406 -12822084.65109  24154573.04706  24154575.42606
  23624716.67306 -19088174.60806 -14873846.34909  23624584.90506  23624586.72606
  25699368.94506  -3260024.02806  -2540265.29709  25699237.53906  25699242.07006
  24812281.46906 -15355872.70706 -11965605.75209  24812149.53306  24812151.60006
  23926510.17106 -11237085.32706  -8756143.65309  23926378.40706  23926380.63006
 92  8 21  0 50 30.0000000  0  7 26 11 21 23 03 28 17
  27295866.76406   1578941.02006   1230379.05309  27295735.37806  27295738.62806
  28295307.56406   -303989.09706   -236874.33309  28295176.21406  28295181.34606
  24148701.39306 -16486600.12006 -12846667.45209  24148569.64906  24148572.02906
  23631657.08706 -19051701.89906 -14845426.05809  23631525.33306  23631527.19106
  25722748.50806  -3137162.93806  -2444529.46009  25722617.24206  25722621.92006
  24803209.89006 -15403543.57606 -12002751.86309  24803078.03406  24803080.14406
  23936240.11206 -11185954.15006  -8716301.18209  23936108.39906  23936110.58106
 92  8 21  0 51  0.0000000  0  7 26 11 21 23 03 28 17
  27315982.00606   1684646.51806   1312746.95009  27315850.42406  27315853.73406
  28276041.25306   -405233.80006   -315766.24209  28275910.02806  28275915.01206
  24142756.94706 -16517836.38106 -12871007.36409  24142625.32106  24142627.82406
  23638656.73406 -19014918.66606 -14816763.79909  23638524.93606  23638526.76106
  25746206.21506  -3013890.80806  -2348473.33509  25746075.15406  25746079.89906
  24794247.88906 -15450638.81606 -12039449.43709  24794116.01406  24794118.13306
  23946034.18406 -11134486.08806  -8676196.20609  23945902.45206  23945904.61606
 92  8 21  0 51 30.0000000  0  7 26 11 21 23 03 28 17
  27336158.63906   1790675.61006   1395366.99409  27336027.11606  27336030.44206
  28256789.71406   -506401.90006   -394598.47809  28256658.35506  28256663.19606
  24136875.92606 -16548742.54506 -12895090.05909  24136744.21606  24136746.59206
  23645715.02206 -18977827.10306 -14787861.28409  23645583.23306  23645585.03806
  25769744.57406  -2890197.04206  -2252088.67409  25769613.42306  25769618.04006
  24785395.90206 -15497157.05906 -12075697.40809  24785263.99306  24785265.98906
  23955896.29306 -11082659.97706  -8635812.22809  23955764.55806  23955766.77206
 92  8 21  0 52  0.0000000  0  7 26 11 21 23 03 28 17
  27356390.46206   1896992.74106   1478211.48509  27356258.71006  27356262.05106
  28237547.28606   -607520.35906   -473392.03609  28237416.07006  28237420.90006
  24131054.45006 -16579334.65106 -12918928.04009  24130922.71706  24130925.10706
  23652823.30006 -18940472.83906 -14758754.06309  23652691.53706  23652693.41806
  25793357.13206  -2766113.38506  -2155400.19809  25793225.77406  25793230.41606
  24776651.72806 -15543109.06906 -12111504.15609  24776519.63706  24776521.56006
  23965822.58006 -11030497.15206  -8595165.87809  23965690.84706  23965693.03006
 92  8 21  0 52 30.0000000  0  7 26 11 21 23 03 28 17
  27376667.99706   2003552.72906   1561245.21109  27376536.39806  27376539.63706
  28218308.53506   -708622.71406   -552173.03809  28218177.04406  28218181.84506
  24125285.93806 -16609647.06406 -12942548.06909  24125154.31306  24125156.81506
  23659976.12206 -18902884.26706 -14729464.26609  23659844.34706  23659846.18806
  25817036.24906  -2641678.95206  -2058438.39509  25816904.92906  25816909.61006
  24768009.64706 -15588522.68506 -12146891.37909  24767877.58106  24767879.51506
  23975808.14206 -10978022.68106  -8554276.69309  23975676.44206  23975678.62306
 92  8 21  0 53  0.0000000  0  7 26 11 21 23 03 28 17
  27396981.47206   2110300.34906   1644425.14109  27396849.74106  27396853.01806
  28199065.83206   -809742.98806   -630968.00909  28198934.43806  28198939.50406
  24119567.35506 -16639699.79706 -12965965.75609  24119435.56306  24119437.90406
  23667166.91506 -18865096.40806 -14700019.18109  23667035.17706  23667037.03706
  25840774.57606  -2516933.16306  -1961233.98009  25840643.42806  25840648.11306
  24759463.11606 -15633435.50206 -12181888.37409  24759331.11506  24759333.08506
  23985848.50706 -10925260.30006  -8513163.16809  23985716.78806  23985719.01906
 92  8 21  0 53 30.0000000  0  7 26 11 21 23 03 28 17
  27417327.80206   2217222.41206   1727741.00809  27417196.39206  27417199.65706
  28179820.37306   -910878.64406   -709774.95209  28179688.83206  28179693.68506
  24113900.14106 -16669480.92506 -12989171.80109  24113768.38006  24113770.78506
  23674398.38506 -18827095.17006 -14670407.81909  23674266.55306  23674268.47106
  25864571.82906  -2391878.28606  -1863788.71109  25864440.61406  25864445.40806
  24751017.11906 -15677818.75806 -12216472.71809  24750885.12806  24750887.11406
  23995944.57806 -10872205.58806  -8471821.84609  23995812.80706  23995815.05206
 92  8 21  0 54  0.0000000  0  7 26 11 21 23 03 28 17
  27437707.03906   2324314.70106   1811189.52909  27437575.44506  27437578.89506
  28160573.42006  -1012022.57306   -788588.33809  28160441.70906  28160446.75006
  24108284.84106 -16698988.24506 -13012164.47909  24108153.18406  24108155.61606
  23681675.16406 -18788854.42106 -14640609.82309  23681543.44106  23681545.34706
  25888428.19606  -2266513.16006  -1766101.68709  25888296.89306  25888301.65806
  24742673.92806 -15721662.53906 -12250636.68709  24742541.92606  24742543.98506
  24006097.10306 -10818853.14806  -8430248.53109  24005965.38606  24005967.63906
 92  8 21  0 54 30.0000000  0  7 26 11 21 23 03 28 17
  27458119.87406   2431586.64906   1894778.04009  27457988.52306  27457991.94606
  28141327.41106  -1113161.22806   -867397.61309  28141195.66506  28141200.52306
  24102721.78406 -16728223.10906 -13034944.86009  24102590.05206  24102592.34806
  23688999.59006 -18750365.40206 -14610618.36809  23688867.68706  23688869.60006
  25912345.20706  -2140828.83706  -1668165.93509  25912213.86306  25912218.64706
  24734430.08706 -15764982.98406 -12284392.86009  24734298.19106  24734300.24706
  24016306.35006 -10765202.68106  -8388442.99109  24016174.65806  24016176.89606
 92  8 21  0 55  0.0000000  0  7 26 11 21 23 03 28 17
  27478571.46106   2539060.10606   1978523.56609  27478440.09606  27478443.54506
  28122087.40506  -1214266.60206   -946180.96009  28121955.95506  28121960.78106
  24097214.79006 -16757162.09206 -13057494.68709  24097083.08606  24097085.43306
  23696376.15406 -18711600.32106 -14580411.79909  23696244.48306  23696246.33906
  25936327.05306  -2014803.24106  -1569964.25709  25936195.75806  25936200.61506
  24726291.76506 -15807750.30406 -12317718.02509  24726159.85406  24726161.80506
  24026574.92006 -10711241.58306  -8346395.39809  24026443.20606  24026445.48306
 92  8 21  0 55 30.0000000  0  7 26 11 21 23 03 28 17
  27499065.60106   2646756.87706   2062443.10709  27498934.20306  27498937.58206
  28102858.13306  -1315318.06506  -1024922.32509  28102726.31506  28102731.23406
  24091763.84906 -16785806.82206 -13079815.21709  24091632.14706  24091634.58806
  23703808.64306 -18672542.77706 -14549977.33609  23703676.79006  23703678.69306
  25960377.03206  -1888420.83406  -1471484.54709  25960245.69406  25960250.46806
  24718262.98806 -15849941.59006 -12350594.32809  24718130.97006  24718132.81206
  24036904.95406 -10656956.79306  -8304095.57709  24036773.23406  24036775.53806
 92  8 21  0 56 30.0000000  4  1
 -2240354.0000 -4717758.0000  3651637.0000                  APPROX POSITION XYZ
 92  8 21  0 56  0.0000000  0  7 26 11 21 23 03 28 17
  27519600.59306   2754669.79706   2146531.08009  27519469.17206  27519472.63106
  28083638.81406  -1416315.05406  -1103621.24509  28083507.11706  28083512.10006
  24086365.06806 -16814177.79806 -13101922.43809  24086233.35106  24086235.64106
  23711293.62306 -18633208.48806 -14519327.22709  23711161.93206  23711163.80106
  25984494.08806  -1761686.44706  -1372730.56709  25984362.54206  25984367.30506
  24710341.79406 -15891568.94906 -12383031.20509  24710209.70806  24710211.41906
  24047296.36806 -10602350.11606  -8261544.93409  24047164.61106  24047166.87506
 92  8 21  0 56 30.0000000  0  7 26 11 21 23 03 28 17
  27540171.89206   2862772.07906   2230766.60009  27540040.42206  27540043.88706
  28064426.77506  -1517274.37106  -1182290.81309  28064295.30906  28064300.18006
  24081013.10906 -16842302.11706 -13123837.46309  24080881.42006  24080883.73706
  23718825.53206 -18593628.67406 -14488485.80009  23718693.73406  23718695.60606
  26008673.49106  -1634622.24206  -1273719.57709  26008542.12906  26008546.87106
  24702526.95506 -15932637.21106 -12415032.41809  24702394.89806  24702396.57806
  24057745.65106 -10547438.20106  -8218756.44009  24057613.98006  24057616.27706
 92  8 21  0 57  0.0000000  0  7 26 11 21 23 03 28 17
  27560769.49806   2971013.69906   2315110.69509  27560638.12206  27560641.50006
  28045214.59906  -1618236.08906  -1260962.24809  28045082.91706  28045087.80506
  24075701.49606 -16870214.28906 -13145587.17509  24075569.83906  24075572.19906
  23726396.99706 -18553839.74906 -14457481.43009  23726265.27206  23726267.09906
  26032906.76206  -1507274.11506  -1174487.35309  26032775.64806  26032780.62706
  24694812.56806 -15973176.99006 -12446621.82409  24694680.40706  24694682.08506
  24068248.25606 -10492247.01406  -8175750.33309  24068116.50906  24068118.78206
 92  8 21  0 57 30.0000000  0  7 26 11 21 23 03 28 17
  27581391.05306   3079380.70206   2399552.49409  27581259.77706  27581263.14606
  28025999.47806  -1719212.10806  -1339644.82809  28025867.78606  28025872.62506
  24070429.91606 -16897916.36206 -13167173.17309  24070298.28906  24070300.62106
  23734004.15206 -18513863.95906 -14426331.45309  23733872.41706  23733874.23206
  26057191.12906  -1379659.12506  -1075047.18809  26057060.02106  26057065.09606
  24687195.10506 -16013206.66006 -12477813.74209  24687062.97006  24687064.75206
  24078802.89206 -10436782.33906  -8132531.11909  24078671.17406  24078673.46206
 92  8 21  0 58  0.0000000  0  7 26 11 21 23 03 28 17
  27602038.57606   3187885.03006   2484101.30109  27601907.38206  27601910.73606
  28006783.81606  -1820190.94706  -1418329.58909  28006652.09806  28006656.97406
  24065204.79406 -16925374.96306 -13188569.45309  24065073.11906  24065075.39206
  23741647.38806 -18473698.99506 -14395034.06909  23741515.56806  23741517.38006
  26081527.62606  -1251771.04406   -975394.22209  26081396.46806  26081401.42106
  24679675.26006 -16052721.15906 -12508604.22909  24679543.34006  24679545.28206
  24089411.61206 -10381033.06006  -8089090.13209  24089279.89006  24089282.18106
 92  8 21  0 58 30.0000000  0  7 26 11 21 23 03 28 17
  27622716.52706   3296548.66606   2568774.24509  27622585.46106  27622588.85506
  27987569.31806  -1921164.15606  -1497009.96809  27987437.52706  27987442.30606
  24060030.11406 -16952567.59806 -13209758.48509  24059898.52406  24059900.82606
  23749328.62806 -18433333.26706 -14363580.24109  23749196.87906  23749198.68406
  26105916.67606  -1123607.45106   -875526.56309  26105785.35706  26105790.20806
  24672253.56006 -16091721.05606 -12538993.72609  24672121.71706  24672123.77106
  24100075.36506 -10324995.14006  -8045424.22209  24099943.60106  24099945.85206
 92  8 21  0 59  0.0000000  0  7 26 11 21 23 03 28 17
  27643426.56106   3405379.37406   2653577.57309  27643295.17506  27643298.69506
  27968355.35106  -2022134.99406  -1575688.30209  27968223.36006  27968228.16006
  24054906.35306 -16979492.84006 -13230738.96509  24054774.72006  24054777.05506
  23757045.84606 -18392779.04506 -14331979.34909  23756914.02006  23756915.81206
  26130356.42806   -995176.41806   -775450.32009  26130224.80906  26130229.72906
  24664926.45206 -16130224.82106 -12568996.44209  24664794.54906  24664796.57406
  24110793.41506 -10268671.01806  -8001535.10309  24110661.69106  24110663.91306
 92  8 21  0 59 30.0000000  0  7 26 11 21 23 03 28 17
  27664167.22006   3514373.10306   2738507.73009  27664035.89906  27664039.43806
  27949141.15706  -2123105.40306  -1654366.49609  27949009.36906  27949014.13706
  24049829.65606 -17006171.62906 -13251527.60509  24049697.99106  24049700.21906
  23764796.36706 -18352050.03106 -14300242.45209  23764664.62406  23764666.44706
  26154845.02806   -866486.20906   -675172.32709  26154713.78806  26154718.88706
  24657694.74706 -16168229.31306 -12598610.30709  24657562.78206  24657564.67906
  24121563.62106 -10212072.77006  -7957432.57709  24121432.01606  24121434.26206
 92  8 21  1  0  0.0000000  0  7 26 11 21 23 03 28 17
  27684939.88706   3623534.07106   2823568.20409  27684808.58806  27684812.18906
  27929926.54406  -2224079.49906  -1733047.56109  27929794.53406  27929799.16406
  24044795.04706 -17032627.56306 -13272142.59109  24044663.47406  24044665.74806
  23772576.63606 -18311163.80506 -14268383.05709  23772444.93706  23772446.76906
  26179381.60706   -737545.95906   -574699.49309  26179250.40506  26179255.50506
  24650557.81306 -16205735.52606 -12627835.90009  24650425.72006  24650427.48106
  24132385.65106 -10155202.88606  -7913118.38309  24132253.98906  24132256.28506
 92  8 21  1  0 30.0000000  0  7 26 11 21 23 03 28 17
  27705745.05206   3732865.80206   2908761.73909  27705613.87206  27705617.33806
  27910712.75406  -2325047.61606  -1811723.96709  27910580.84206  27910585.66606
  24039800.05406 -17058877.48506 -13292597.04909  24039668.35006  24039670.59706
  23780387.74406 -18270116.46006 -14236398.11609  23780255.98506  23780257.84206
  26203966.60106   -608351.68706   -474028.73009  26203835.30406  26203840.58106
  24643518.44006 -16242728.25306 -12656661.37509  24643386.34206  24643388.03406
  24143259.51306 -10098059.76906  -7868591.27809  24143127.90806  24143130.16206
 92  8 21  1  1  0.0000000  0  7 26 11 21 23 03 28 17
  27726578.43606   3842345.64106   2994070.68209  27726447.05706  27726450.61806
  27891501.50706  -2426002.26806  -1890389.88109  27891369.86106  27891374.67306
  24034843.14006 -17084925.81206 -13312894.42209  24034711.46206  24034713.77106
  23788227.84306 -18228916.74006 -14204294.44309  23788096.05906  23788097.92506
  26228600.68806   -478901.44406   -373158.50609  26228468.98806  26228474.08006
  24636579.99306 -16279189.65406 -12685072.83109  24636447.82506  24636449.55006
  24154186.19206 -10040639.78406  -7823848.43409  24154054.55906  24154056.85606
 92  8 21  1  1 30.0000000  0  7 26 11 21 23 03 28 17
  27747435.16706   3951948.47206   3079475.46409  27747303.89806  27747307.44706
  27872293.04706  -2526943.74006  -1969045.53209  27872161.29306  27872165.90806
  24029924.07706 -17110775.30606 -13333036.85509  24029792.43506  24029794.72006
  23796097.73206 -18187559.79606 -14172068.26109  23795965.95206  23795967.83906
  26253281.66806   -349201.16506   -272093.44709  26253150.14006  26253155.24106
  24629744.40206 -16315110.22606 -12713062.86609  24629612.31206  24629614.08506
  24165163.07206  -9982956.10706  -7778900.11009  24165031.37606  24165033.71106
 92  8 21  1  2  0.0000000  0  8 26 11 21 23 03 12 28 17
  27768308.76306   4061639.26506   3164948.79009  27768177.42406  27768180.78106
  27853082.12306  -2627897.93606  -2047711.10409  27852950.33906  27852955.01906
  24025039.51706 -17136444.16706 -13353038.54309  24024907.80606  24024909.97906
  23803994.56106 -18146061.96706 -14139732.30109  23803862.80406  23803864.64006
  26278004.32806   -219282.44906   -170858.18009  26277872.92006  26277878.00706
  28424904.42716        -0.65516        -0.69319  28424773.36316  28424780.65216
  24623004.75606 -16350526.68206 -12740660.08409  24622872.78906  24622874.61206
  24176184.60906  -9925037.71406  -7733768.89709  24176052.88806  24176055.19606
 92  8 21  1  2 30.0000000  0  8 26 11 21 23 03 12 28 17
  27789197.51306   4171410.86206   3250485.07809  27789066.06706  27789069.55106
  27833873.82406  -2728838.54706  -2126366.09009  27833741.89506  27833746.58606
  24020196.11406 -17161895.35806 -13372870.61609  24020064.50706  24020066.82206
  23811925.49206 -18104384.56706 -14107256.41609  23811793.71106  23811795.54806
  26302772.11206    -89124.23006    -69436.29909  26302641.04706  26302646.53906
  28411295.11706    -71518.26606    -55728.56009  28411163.66106  28411171.29506
  24616365.90406 -16385412.40706 -12767843.75209  24616234.06506  24616236.06606
  24187255.46906  -9866860.04206  -7688435.65309  24187123.73306  24187126.07706
 92  8 21  1  3  0.0000000  0  8 26 11 21 23 03 12 28 17
  27810109.53406   4281302.99506   3336115.28409  27809978.02406  27809981.56106
  27814678.12306  -2829711.60906  -2204968.43509  27814546.45306  27814551.08406
  24015407.00006 -17187063.46206 -13392482.10209  24015275.24706  24015277.54206
  23819902.26706 -18062466.15306 -14074592.73109  23819770.51706  23819772.39306
  26327595.35506     41321.46106     32209.58609  26327464.28106  26327469.65406
  28397703.12206   -142944.93806   -111385.64209  28397571.83606  28397578.91706
  24609838.73506 -16419712.53606 -12794571.11509  24609706.86806  24609708.92406
  24198386.41606  -9808366.13906  -7642855.99009  24198254.78106  24198257.05806
 92  8 21  1  3 30.0000000  0  8 26 11 21 23 03 12 28 17
  27831049.16906   4391340.86206   3421859.04909  27830917.64906  27830921.06806
  27795497.15506  -2930508.29806  -2283511.26709  27795365.34206  27795370.10706
  24010675.35306 -17211927.81606 -13411856.90209  24010543.63606  24010545.94806
  23827928.34906 -18020288.84506 -14041727.31209  23827796.62106  23827798.48106
  26352473.83806    172057.93206    134082.04809  26352342.75406  26352348.25606
  28384129.95106   -214271.05306   -166964.34909  28383998.77306  28384006.10206
  24603423.41206 -16453427.65106 -12820842.62209  24603291.35206  24603293.36406
  24209578.73106  -9749549.94306  -7597025.20109  24209447.07706  24209449.42406
 92  8 21  1  4  0.0000000  0  8 26 11 21 23 12 03 28 17
  27852014.62506   4501516.68706   3507710.30709  27851883.39806  27851886.87606
  27776326.54506  -3031249.68706  -2362010.99909  27776194.90706  27776199.56006
  24005997.10606 -17236512.22506 -13431013.56209  24005865.39406  24005867.59306
  23835998.75206 -17977879.15306 -14008680.81109  23835866.91006  23835868.74006
  28370572.07606   -285517.29706   -222480.83109  28370441.08506  28370448.29706
  26377402.65106    303058.34906    236160.18009  26377271.44006  26377276.77906
  24597113.37506 -16486587.62406 -12846681.54609  24596981.25906  24596983.20706
  24220827.88606  -9690435.11906  -7550961.71509  24220696.30206  24220698.62506
 92  8 21  1  4 30.0000000  0  8 26 11 21 23 12 03 28 17
  27873006.36906   4611828.29706   3593667.38209  27872874.93506  27872878.46206
  27757166.53206  -3131935.49906  -2440467.41609  27757034.97606  27757039.64506
  24001369.97906 -17260827.42406 -13449960.45409  24001238.36506  24001240.61906
  23844110.33706 -17935251.84106 -13975464.73609  23843978.59206  23843980.44606
  28357029.34206   -356682.40206   -277934.06209  28356898.69906  28356905.89006
  26402380.12406    434316.84406    338439.41309  26402249.07806  26402254.49406
  24590909.50106 -16519188.56206 -12872084.85809  24590777.48406  24590779.41206
  24232131.36906  -9631035.71006  -7504676.47809  24231999.63806  24232001.95906
 92  8 21  1  5  0.0000000  0  8 26 11 21 23 12 03 28 17
  27894026.85906   4722291.62106   3679742.66609  27893895.50106  27893899.01006
  27738016.39206  -3232569.66106  -2518883.58809  27737884.82406  27737889.56606
  23996789.90306 -17284895.26306 -13468714.59009  23996658.35106  23996660.61406
  23852261.73006 -17892416.72006 -13942086.73109  23852129.92506  23852131.79806
  28343502.43706   -427769.61906   -333326.63709  28343371.12106  28343378.37306
  26427405.24206    565824.51706    440912.83009  26427274.31006  26427279.59606
  24584808.58106 -16551248.23406 -12897066.40309  24584676.58306  24584678.45906
  24243483.96706  -9571377.18806  -7458189.34109  24243352.27106  24243354.62806
 92  8 21  1  5 30.0000000  0  8 26 11 21 23 12 03 28 17
  27915075.12706   4832901.20206   3765931.92209  27914943.85406  27914947.41306
  27718873.62906  -3333166.40506  -2597270.59609  27718741.89806  27718746.51406
  23992251.29006 -17308747.03206 -13487300.36909  23992119.57606  23992121.71206
  23860447.67006 -17849398.75106 -13908566.24609  23860315.94506  23860317.82806
  28329987.42506   -498792.27406   -388668.88809  28329856.24806  28329863.35606
  26452473.90906    697560.98706    543564.52209  26452342.93106  26452348.42006
  24578806.91206 -16582786.71406 -12921641.82509  24578674.98606  24578676.82906
  24254882.20706  -9511479.30906  -7411515.69709  24254750.51806  24254752.84306
 92  8 21  1  6 30.0000000  0  8 28 17 03 11 12 26 21 23
  21566502.15216        -0.80816        -0.79419  21566370.14216  21566371.80316
  21277217.93216        -0.01716        -0.45319  21277086.20916  21277088.57316
  23502144.43316         0.19116         0.15219  23502013.10516  23502018.67216
  24680000.71416         0.21616         0.40319  24679868.96716  24679873.59216
  25302387.71916        -0.19716         0.08519  25302256.49416  25302263.69216
  24956647.79116         0.32416         0.01919  24956516.58716  24956520.07116
  20982682.03116         0.01516        -0.15419  20982550.32116  20982552.55616
  20876315.35616        -0.90416        -0.23919  20876183.65816  20876185.55016
 92  8 21  1  7  0.0000000  0  8 28 17 03 11 12 26 21 23
  21560808.45706    -29922.01106    -23315.99309  21560676.34406  21560678.03606
  21288764.21906     60675.77806     47279.35409  21288632.42706  21288634.82706
  23527340.93706    132407.13406    103174.27309  23527209.47406  23527215.02806
  24660882.72506   -100466.12506    -78284.98809  24660750.90506  24660755.40106
  25288914.07206    -70806.31306    -55173.45909  25288782.50506  25288789.67506
  24977766.90006    110980.55006     86478.09109  24977635.47206  24977638.99406
  20978262.43706    -23224.60706    -18097.25109  20978130.71706  20978132.89906
  20884596.56806     43516.34106     33909.29609  20884464.75006  20884466.62706
 92  8 21  1  7 30.0000000  0  8 28 17 03 11 12 26 21 23
  21555224.45106    -59265.66606    -46181.15709  21555092.46806  21555094.23506
  21300374.92706    121689.91506     94822.80609  21300243.13006  21300245.47606
  23552581.55706    265048.57606    206531.12109  23552450.20506  23552455.84706
  24641777.09206   -200866.41106   -156518.91009  24641645.35906  24641649.76406
  25275458.08806   -141516.23306   -110272.01909  25275326.75306  25275333.79706
  24998907.65206    222076.94806    173046.68309  24998776.45406  24998779.99906
  20973890.87606    -46196.81406    -35997.66109  20973759.23206  20973761.45006
  20892910.11106     87205.09406     67952.47809  20892778.36306  20892780.24006
 92  8 21  1  8  0.0000000  0  8 28 17 03 11 12 26 21 23
  21549754.92106    -88008.15506    -68577.88209  21549622.84406  21549624.74806
  21312054.52306    183067.17006    142649.21809  21311922.80806  21311925.14306
  23577869.91206    397939.31606    310082.22109  23577738.66506  23577744.21706
  24622687.84206   -301180.23806   -234685.46209  24622556.17006  24622560.64606
  25262024.35606   -212108.69706   -165279.04109  25261893.25006  25261900.84606
  25020070.52906    333288.15306    259704.73909  25019939.20606  25019942.78406
  20969573.87206    -68883.38206    -53675.49409  20969442.19106  20969444.38006
  20901258.73206    131077.12906    102138.47809  20901126.92306  20901128.79106
 92  8 21  1  8 30.0000000  0  8 28 17 03 11 12 26 21 23
  21544400.98206   -116143.44806    -90501.46709  21544268.97706  21544270.86906
  21323807.18406    244827.85306    190774.40409  21323675.50306  21323677.85206
  23603207.51306    531088.56106    413834.75709  23603076.24806  23603081.75406
  24603618.09606   -401392.06606   -312772.53609  24603486.40106  24603490.84906
  25248616.16706   -282567.33006   -220181.78209  25248485.30706  25248492.81606
  25041257.56506    444627.42406    346462.58809  25041126.31906  25041129.83906
  20965312.54706    -91275.80306    -71124.11809  20965181.00406  20965183.24406
  20909646.94006    175157.43406    136486.76709  20909515.18806  20909516.98806
 92  8 21  1  9  0.0000000  0  8 28 17 03 11 12 26 21 23
  21539160.05606   -143683.72706   -111961.40509  21539028.10706  21539029.99506
  21335631.03106    306962.61906    239191.08109  21335499.35206  21335501.72106
  23628594.05906    664494.15406    517787.03909  23628462.71806  23628468.24706
  24584568.47606   -501498.62106   -390777.57709  24584436.70506  24584441.15006
  25235234.72406   -352888.32706   -274977.26109  25235103.53006  25235110.83206
  25062468.24906    556090.01306    433316.53309  25062336.98406  25062340.56206
  20961102.45306   -113400.65606    -88364.25109  20960970.80206  20960972.97306
  20918074.40906    219443.64906    170995.50909  20917942.61906  20917944.48906
 92  8 21  1  9 30.0000000  0  8 28 17 03 11 12 26 21 23
  21534029.54106   -170644.70206   -132969.94009  21533897.60606  21533899.46606
  21347514.59406    369410.95806    287852.10509  21347382.88706  21347385.27006
  23654025.81806    798139.62706    621926.25109  23653894.58906  23653900.23106
  24565536.80606   -601510.39006   -468708.75509  24565405.04206  24565409.44006
  25221877.54206   -423081.00106   -329672.76309  25221746.46706  25221753.61306
  25083700.26006    667664.55806    520257.71809  25083569.08206  25083572.59706
  20956938.66006   -135281.32406   -105414.11009  20956806.97306  20956809.18706
  20926538.54106    263923.33906    205655.01209  20926406.76706  20926408.65106
 92  8 21  1 10  0.0000000  0  8 28 17 03 11 12 26 21 23
  21529004.89606   -197050.08206   -153545.54309  21528872.79806  21528874.54706
  21359447.97506    432121.43206    336717.38609  21359316.32006  21359318.65706
  23679500.62206    932012.40106    726242.57909  23679369.64706  23679375.52406
  24546521.84506   -701434.33106   -546571.50209  24546390.09706  24546394.44906
  25208543.09406   -493151.83206   -384273.31309  25208412.34706  25208419.40206
  25104952.39406    779345.22806    607281.59609  25104821.18106  25104824.67806
  20952817.02206   -156940.06506   -122291.03309  20952685.46406  20952687.70506
  20935037.28506    308584.82706    240456.17609  20934905.52206  20934907.40306
 92  8 21  1 10 30.0000000  0  8 28 17 03 11 12 26 21 23
  21524088.65306   -222884.73106   -173676.42009  21523956.64006  21523958.33606
  21371432.49206    495099.90906    385791.51609  21371300.75906  21371303.12006
  23705022.53406   1066130.79706    830750.30009  23704891.68806  23704897.47506
  24527528.18406   -801246.11006   -624346.84609  24527396.50006  24527400.87406
  25195237.60306   -563075.75606   -438759.40309  25195106.15206  25195113.34206
  25126230.54106    891162.69506    694412.06709  25126099.37606  25126102.81806
  20948741.57906   -178357.87406   -138980.21909  20948609.86206  20948612.00406
  20943575.91106    353455.71806    275420.51309  20943444.15106  20943446.03106
 92  8 21  1 11  0.0000000  0  8 28 17 03 11 12 26 21 23
  21519283.46706   -248134.41806   -193351.48609  21519151.56106  21519153.39406
  21383465.16706    558332.30206    435063.50009  21383333.44106  21383335.81406
  23730590.92006   1200490.28306    935445.88009  23730459.62406  23730465.14106
  24508556.25006   -900943.81306   -702033.30409  24508424.53906  24508428.96406
  25181959.88006   -632850.20606   -493129.01809  25181828.46806  25181835.50906
  25147534.92106   1003117.73806    781649.74309  25147403.65206  25147407.16606
  20944715.14706   -199515.90106   -155466.98009  20944583.50706  20944585.73006
  20952151.85106    398522.36506    310537.38709  20952020.09606  20952021.96506
 92  8 21  1 11 30.0000000  0  8 11 21 23 12 28 17 03 26
  24489601.92706  -1000548.76606   -779647.48709  24489470.26206  24489474.70806
  20940736.30606   -220424.85706   -171759.65609  20940604.66806  20940606.86206
  20960763.01406    443774.09006    345798.47709  20960631.21206  20960633.09306
  25168706.52406   -702495.63406   -547398.11209  25168575.32906  25168582.50906
  21514588.60006   -272806.64606   -212576.58709  21514456.71006  21514458.57206
  21395543.01206    621801.48606    484519.99509  21395411.22706  21395413.62506
  23756200.06306   1335064.60106   1040308.87109  23756068.53906  23756073.81106
  25168859.64306   1115179.26306    868970.38909  25168728.31006  25168731.83906
 92  8 21  1 12  0.0000000  0  8 28 17 03 11 12 26 21 23
  21510002.55506   -296906.41106   -231355.61909  21509870.64106  21509872.42006
  21407669.02906    685524.00606    534173.89409  21407537.24606  21407539.64906
  23781845.43006   1469832.13906   1145322.42409  23781713.88606  23781719.46506
  24470662.52506  -1100075.97206   -857201.09509  24470530.88106  24470535.31206
  25155475.42406   -772026.26606   -601577.77609  25155344.22806  25155351.18206
  25190201.64806   1227331.70406    956361.87709  25190070.23306  25190073.68506
  20936800.35406   -241109.34106   -187877.42409  20936668.62006  20936670.71406
  20969406.43906    489195.89706    381192.09809  20969274.66506  20969276.53106
 92  8 21  1 12 30.0000000  0  8 28 17 03 11 12 26 21 23
  21505538.71306   -320365.38506   -249635.33509  21505406.69406  21505408.41806
  21419856.88706    749571.52906    584081.03809  21419725.04506  21419727.49206
  23807534.97906   1604833.21806   1250517.94509  23807403.74806  23807409.63306
  24451746.64406  -1199479.43306   -934658.28409  24451614.92806  24451619.43706
  25142274.68106   -841395.42406   -655631.62709  25142143.59606  25142150.52406
  25211569.39006   1339620.31406   1043859.46809  25211437.93206  25211441.62606
  20932916.07406   -261520.27506   -203782.03209  20932784.43006  20932786.62206
  20978090.46706    534831.25706    416752.12409  20977958.71606  20977960.58006
 92  8 21  1 13  0.0000000  0  8 23 28 17 11 12 03 26 21
  20986818.53706    580697.22706    452491.84709  20986686.74306  20986688.60406
  21501200.62106   -343163.35806   -267399.98409  21501068.45306  21501070.10206
  21432111.66106    813970.72506    634262.21409  21431979.82606  21431982.22106
  24432857.71406  -1298740.54906  -1012004.56109  24432726.16206  24432730.52706
  25129108.37606   -910583.90106   -709544.69309  25128977.58306  25128984.44306
  23833271.42706   1740080.53206   1355905.34209  23833140.39506  23833146.39406
  25232964.65706   1452052.02306   1131468.56809  25232833.16006  25232836.66706
  20929085.86206   -281648.71606   -219466.51609  20928954.14906  20928956.29406
 92  8 21  1 14 30.0000000  0  8 23 28 17 11 12 03 26 21
  21013329.17216        -0.07516        -0.22519  21013197.43516  21013199.32116
  21488972.57116        -0.69816        -0.85419  21488840.70616  21488842.48416
  21469344.29316        -0.82116        -0.91219  21469212.64716  21469215.08016
  24376421.58916        -0.03916         0.34719  24376289.98116  24376294.44016
  25089885.46416        -0.45016         0.37519  25089754.27316  25089761.33316
  23910820.32516        -0.26516        -0.71019  23910688.62316  23910694.16616
  25297375.46616        -0.21216         0.32819  25297244.17016  25297247.76816
  20917970.49116         0.47916        -0.37019  20917838.82516  20917841.01316
 92  8 21  1 15  0.0000000  0  8 23 28 17 11 12 03 26 21
  21022270.73006     46987.82806     36613.82009  21022139.00006  21022140.84306
  21485145.81606    -20110.75806    -15670.93709  21485013.84806  21485015.63206
  21481904.00606     65999.97806     51428.36109  21481772.26406  21481774.65106
  24357685.96506    -98456.49306    -76718.83109  24357554.35406  24357558.67306
  25076903.29106    -68223.31406    -53160.12009  25076772.03206  25076778.87206
  23936777.94206    136407.64806    106291.14109  23936646.20306  23936651.88006
  25318913.38306    113181.69706     88194.11409  25318782.00706  25318785.62506
  20914395.22106    -18788.34506    -14640.90109  20914263.48706  20914265.60506
 92  8 21  1 15 30.0000000  0  8 23 28 17 11 12 03 26 21
  21031242.21706     94133.03406     73350.34809  21031110.38906  21031112.23206
  21481423.66706    -39669.87606    -30911.80509  21481291.65106  21481293.52506
  21494516.60206    132279.50306    103074.73309  21494384.87606  21494387.32606
  24338970.06106   -196808.61906   -153356.80009  24338838.48506  24338842.88006
  25063948.55606   -136300.02406   -106206.85309  25063817.36206  25063824.26006
  23962769.10506    272993.56606    212721.60209  23962637.60306  23962643.51206
  25340462.45906    226422.74306    176433.89709  25340330.97506  25340334.59006
  20910868.03006    -37323.38106    -29083.76609  20910736.37006  20910738.49506
 92  8 21  1 16  0.0000000  0  8 23 28 17 11 12 03 26 21
  21040237.29806    141402.97006    110184.06309  21040105.57706  21040107.42706
  21477804.45206    -58689.82906    -45732.54909  21477672.42306  21477674.28106
  21507175.23306    198801.22406    154909.82009  21507043.49406  21507045.91606
  24320269.30606   -295081.65606   -229933.13609  24320137.69506  24320142.00506
  25051017.05206   -204254.91306   -159158.59409  25050885.89906  25050892.88406
  23988788.09706    409726.65306    319266.72409  23988657.02106  23988663.06906
  25362015.15106    339681.04406    264687.12909  25361883.33106  25361886.95606
  20907385.77406    -55622.57206    -43342.85309  20907254.10506  20907256.24506
 92  8 21  1 16 30.0000000  0  8 23 28 17 11 12 03 26 21
  21049259.00106    188811.88006    147126.06809  21049127.20106  21049129.03806
  21474294.20506    -77136.72406    -60106.75209  21474162.28806  21474164.10606
  21519883.41306    265583.72606    206948.11509  21519751.76706  21519754.15606
  24301587.81706   -393253.05206   -306430.26109  24301456.30706  24301460.53206
  25038112.91206   -272064.98306   -211997.50409  25037981.94306  25037988.85006
  24014838.73206    546623.24606    425939.25009  24014707.69006  24014713.90206
  25383572.43506    452965.92506    352961.06509  25383440.89006  25383444.31106
  20903950.35006    -73675.87806    -57410.34009  20903818.64206  20903820.77006
 92  8 21  1 17  0.0000000  0  8 23 28 17 11 12 03 26 21
  21058301.87506    236332.42406    184155.05709  21058170.07606  21058171.88506
  21470893.13106    -95008.71206    -74032.97409  21470761.22506  21470763.04706
  21532637.87506    332608.86706    259175.48009  21532506.21306  21532508.66806
  24282922.18106   -491342.14606   -382863.25409  24282790.51706  24282794.77706
  25025233.38106   -339748.86006   -264738.07409  25025102.00106  25025108.89606
  24040916.05906    683658.26706    532719.62609  24040784.84706  24040790.98506
  25405130.85706    566256.97106    441239.81709  25404999.38506  25405002.83506
  20900555.90706    -91513.38506    -71309.67309  20900424.22606  20900426.36706
 92  8 21  1 17 30.0000000  0  8 23 28 17 11 12 03 26 21
  21067371.99506    283997.05706    221296.31909  21067240.27906  21067242.12006
  21467606.53506   -112281.09106    -87491.97409  21467474.50806  21467476.30106
  21545441.54706    399892.56106    311604.31809  21545309.83406  21545312.24406
  24264276.48006   -589325.85106   -459214.11809  24264144.70106  24264149.05306
  25012382.04706   -407282.55306   -317361.61109  25012250.61706  25012257.63806
  24067022.52506    820848.12106    639620.67409  24066891.42106  24066897.50506
  25426698.18606    679594.64006    529554.91209  25426566.73206  25426570.24206
  20897204.90306   -109123.10806    -85031.51109  20897073.24406  20897075.37406
 92  8 21  1 18  0.0000000  0  8 23 28 17 11 12 03 26 21
  21076471.09006    331812.78406    258555.31709  21076339.34006  21076341.21506
  21464429.99006   -128972.98206   -100498.64709  21464297.94706  21464299.73706
  21558293.47206    467429.52906    364230.51309  21558161.74406  21558164.18206
  24245650.09706   -687208.12206   -535485.94509  24245518.36206  24245522.52706
  24999558.48006   -474669.83006   -369871.05309  24999427.30206  24999434.11806
  24093156.43006    958183.22006    746634.89609  24093025.40506  24093031.61106
  25448275.07806    792981.62906    617908.44309  25448143.66306  25448147.17506
  20893894.25506   -126520.38406    -98587.80809  20893762.59606  20893764.68906
 92  8 21  1 18 30.0000000  0  8 23 28 17 11 12 03 21 26
  21085594.41706    379755.64406    295913.37709  21085462.59106  21085464.44806
  21461358.19206   -145114.57106   -113076.51509  21461226.17306  21461227.98506
  21571193.19306    535217.86106    417052.58009  21571061.44506  21571063.88206
  24227040.00506   -785004.99506   -611691.23309  24226908.12406  24226912.38006
  24986759.66806   -541925.87906   -422278.24309  24986628.71406  24986635.44006
  24119314.52906   1095641.37306    853744.98109  24119183.07106  24119189.08006
  20890618.78806   -143733.18506   -112000.35709  20890487.12806  20890489.18106
  25469859.05606    906406.90706    706291.82609  25469727.77206  25469731.06906
 92  8 21  1 19  0.0000000  0  8 23 28 17 11 12 03 21 26
  21094742.95606    427832.25806    333375.65909  21094611.22306  21094613.10006
  21458390.71206   -160709.57306   -125228.47109  21458258.82506  21458260.53806
  21584141.71706    603262.90606    470074.67609  21584010.00106  21584012.40706
  24208446.84806   -882712.15706   -687826.62309  24208315.15906  24208319.25306
  24973987.03506   -609045.71706   -474579.31109  24973856.09506  24973862.76506
  24145495.06606   1233221.18906    960949.90409  24145363.67106  24145369.68706
  20887378.77606   -160759.36106   -125267.48309  20887247.11206  20887249.24506
  25491451.56206   1019875.89506    794709.27009  25491320.10206  25491323.47106
 92  8 21  1 19 30.0000000  0  8 23 28 17 11 12 03 21 26
  21103923.43306    476075.71006    370967.94209  21103791.70706  21103793.52906
  21455529.88206   -175743.86506   -136943.50809  21455397.93006  21455399.63006
  21597144.34206    671591.73006    523317.90109  21597012.54506  21597014.94806
  24189877.67606   -980292.51506   -763863.21509  24189746.07406  24189750.26106
  24961247.59706   -675991.84606   -526745.04909  24961116.59406  24961123.41606
  24171704.35606   1370953.35206   1068273.52109  24171573.31706  24171579.53606
  20884176.75106   -177586.17806   -138379.27009  20884045.05606  20884047.15206
  25513059.19806   1133423.75206    883188.17109  25512927.43606  25512930.84606
 92  8 21  1 20  0.0000000  0  8 23 28 17 11 12 03 21 26
  21113135.68006    524485.83006    408690.09709  21113003.90606  21113005.76606
  21452778.92306   -190200.83406   -148208.68309  21452646.83606  21452648.63406
  21610206.91706    740235.77206    576806.75109  21610075.11006  21610077.51306
  24171337.17106  -1077724.24006   -839783.99109  24171205.42006  24171209.66206
  24948545.41606   -742741.56206   -578757.73309  24948414.56306  24948421.41306
  24197945.97606   1508853.61206   1175728.11009  24197815.01606  24197821.29106
  20881014.50506   -194204.38706   -151328.50909  20880882.80606  20880884.85606
  25534680.62506   1247047.21206    971725.98709  25534549.31806  25534552.75506
 92  8 21  1 20 30.0000000  0  8 23 28 17 11 12 03 21 26
  21122377.19906    573050.86406    446532.96709  21122245.45606  21122247.30906
  21450138.59806   -204074.55706   -159019.38209  21450006.57906  21450008.40206
  21623329.63306    809196.24306    630542.16909  21623197.83206  21623200.24006
  24152825.95906  -1175001.28306   -915584.24109  24152694.17606  24152698.32306
  24935882.08306   -809288.26306   -630612.21609  24935750.90906  24935757.82706
  24224219.25806   1646921.61506   1283313.41409  24224088.41606  24224094.78706
  20877892.56706   -210608.66006   -164111.03709  20877761.01006  20877763.13706
  25556314.57906   1360732.19406   1060311.72809  25556182.79206  25556186.23406
 92  8 21  1 21  0.0000000  0  8 23 28 17 11 12 03 21 26
  21131649.82606    621778.48806    484502.52909  21131518.07706  21131519.93106
  21447611.88406   -217353.15706   -169366.34609  21447479.94006  21447481.77606
  21636510.33506    878461.32106    684514.94209  21636378.56106  21636380.94006
  24134345.14106  -1272116.99506   -991258.78109  24134213.60306  24134217.79806
  24923258.49206   -875624.83206   -682302.99709  24923127.55306  24923134.32506
  24250525.56806   1785158.24306   1391030.11409  24250394.26106  24250400.53506
  20874812.61006   -226795.50606   -176724.14709  20874680.83806  20874682.86706
  25577960.17906   1474481.12906   1148947.29509  25577828.37806  25577831.69806
 92  8 21  1 21 30.0000000  0  8 23 28 17 11 12 03 21 26
  21140949.80206    670650.15406    522584.32909  21140818.02806  21140819.88106
  21445196.68706   -230044.12606   -179255.41209  21445064.80506  21445066.64406
  21649745.16306    948010.65506    738709.21409  21649613.39906  21649615.81806
  24115893.59306  -1369080.69206  -1066814.85809  24115762.01106  24115766.15006
  24910673.62906   -941760.00606   -733836.82309  24910542.40406  24910549.25706
  24276860.42406   1923548.37706   1498866.43909  24276729.14306  24276735.50406
  20871771.95506   -242773.07006   -189174.18609  20871640.32406  20871642.43906
  25599615.72206   1588281.71306   1237623.12109  25599483.82706  25599487.46306
 92  8 21  1 22  0.0000000  0  8 23 28 17 11 12 03 21 26
  21150278.73006    719673.93606    560784.66309  21150147.01206  21150148.87406
  21442899.38306   -242116.65906   -188662.58009  21442767.44806  21442769.34906
  21663037.59306   1017863.66806    793140.11809  21662905.88806  21662908.39106
  24097474.28706  -1465875.00506  -1142238.95009  24097342.60506  24097346.72706
  24898130.13506  -1007675.78606   -785199.70109  24897998.94106  24898005.81006
  24303226.89406   2062102.90306   1606830.84109  24303095.34106  24303101.61006
  20868781.68906   -258487.82606   -201419.43909  20868649.97606  20868652.01606
  25621282.80806   1702143.15106   1326346.35509  25621150.73206  25621154.16806
 92  8 21  1 22 30.0000000  0  8 23 28 17 11 12 03 21 26
  21159636.73806    768850.64006    599104.15609  21159504.95906  21159506.85006
  21440719.86506   -253570.80306   -197587.88209  21440587.86706  21440589.62606
  21676382.33606   1087990.24306    847784.18309  21676250.56506  21676253.08306
  24079085.11106  -1562510.29706  -1217539.12309  24078953.51906  24078957.62206
  24885626.23106  -1073381.91306   -836399.21109  24885495.32806  24885502.39706
  24329621.31306   2200805.21906   1714910.42809  24329489.70606  24329495.80606
  20865842.58806   -273932.61606   -213454.32909  20865710.93406  20865712.94206
  25642959.67106   1816056.33106   1415109.89709  25642827.79506  25642831.19606
 92  8 21  1 23  0.0000000  0  8 23 28 17 11 12 03 26 21
  21169027.05906    818197.17506    637555.98609  21168895.29206  21168897.19806
  21438660.23806   -264394.03906   -206021.56009  21438528.27606  21438530.00506
  21689781.49206   1158402.99706    902651.24509  21689649.69606  21689652.21906
  24060727.95806  -1658977.80706  -1292708.54909  24060596.33806  24060600.39906
  24873164.43806  -1138869.08806   -887428.10509  24873033.42506  24873040.49106
  24356043.67606   2339657.97306   1823107.23909  24355912.43806  24355918.97906
  25664648.48306   1930032.31406   1503922.38509  25664516.65406  25664520.14106
  20862956.40206   -289099.23306   -225272.45909  20862824.73706  20862826.84506
 92  8 21  1 23 30.0000000  0  8 23 28 17 11 12 03 26 21
  21178452.27206    867726.95706    676150.60909  21178320.50106  21178322.41406
  21436723.76406   -274570.22506   -213951.04109  21436591.80606  21436593.48206
  21703240.29706   1229129.47906    957762.76909  21703108.53206  21703111.02206
  24042406.38606  -1755259.26106  -1367732.99509  24042274.54806  24042278.58406
  24860747.84106  -1204118.71106   -938271.87409  24860616.81106  24860623.87606
  24382497.49106   2478673.36106   1931430.75809  24382366.29706  24382372.91006
  25686349.74406   2044072.34206   1592784.75909  25686217.72706  25686221.08406
  20860126.98606   -303968.77006   -236859.10609  20859995.21806  20859997.24106
 92  8 21  1 24  0.0000000  0  8 23 28 17 11 12 03 26 21
  21187909.53606    917424.98006    714876.32709  21187777.76306  21187779.66206
  21434908.78106   -284108.72906   -221383.62609  21434776.74206  21434778.43006
  21716759.84506   1300175.45306   1013123.24709  21716628.13406  21716630.58906
  24024118.59506  -1851361.99806  -1442618.17409  24023986.75506  24023990.78606
  24848375.17706  -1269137.29106   -988935.61409  24848244.24406  24848251.05206
  24408979.37606   2617838.03706   2039870.60709  24408848.44506  24408855.19206
  25708057.56906   2158148.56206   1681675.32809  25707925.81906  25707929.07606
  20857351.05906   -318554.54006   -248224.63109  20857219.52906  20857221.59906
 92  8 21  1 24 30.0000000  0  8 23 28 17 11 12 03 26 21
  21197401.91106    967307.46506    753745.78509  21197270.11406  21197272.02006
  21433214.56906   -293011.35906   -228320.72409  21433082.50706  21433084.25206
  21730341.84706   1371548.97006   1068738.95009  21730210.12106  21730212.60006
  24005867.08306  -1947273.70806  -1517354.49609  24005735.30206  24005739.31306
  24836049.10406  -1333912.16506  -1039409.45509  24835917.86006  24835924.78506
  24435491.61206   2757158.04706   2148431.51009  24435360.28406  24435366.96606
  25729773.74206   2272270.42506   1770601.49109  25729642.31506  25729645.73406
  20854625.78306   -332877.79206   -259385.60509  20854494.01006  20854495.98506
 92  8 21  1 25  0.0000000  0  8 23 28 17 11 12 03 21 26
  21206932.79306   1017392.72606    792773.25009  21206800.97006  21206802.86506
  21431645.08806   -301258.50006   -234747.05509  21431513.20606  21431515.01706
  21743992.85006   1443285.86906   1124637.81509  21743861.18106  21743863.63206
  23987657.68206  -2042964.12706  -1591918.38509  23987525.93006  23987530.03106
  24823775.18406  -1398412.45506  -1089669.32009  24823644.10006  24823650.59606
  24462037.71006   2896657.35606   2257132.11809  24461906.34306  24461912.76206
  20851951.09706   -346931.99406   -270336.92909  20851819.50106  20851821.56306
  25751503.87706   2386462.76406   1859582.54609  25751372.35106  25751375.93106
 92  8 21  1 25 30.0000000  0  8 23 28 17 11 21 12 03 26
  21216502.97206   1067684.66606    831961.76709  21216371.26306  21216373.15906
  21430202.88406   -308837.52506   -240652.77809  21430070.90106  21430072.63306
  21757712.98906   1515385.36706   1180819.21709  21757581.23806  21757583.80006
  23969492.76706  -2138421.14706  -1666300.40009  23969361.03306  23969365.03106
  20849327.13206   -360721.15806   -281081.72209  20849195.46706  20849197.58506
  24811555.79506  -1462625.53406  -1139705.38009  24811424.56106  24811431.17106
  24488619.22306   3036342.06506   2365977.21209  24488487.60506  24488494.01806
  25773251.27906   2500746.81206   1948635.07509  25773119.83406  25773123.30906
 92  8 21  1 26  0.0000000  0  7 23 28 17 11 12 03 21
  21226102.87606   1118131.80206    871271.21509  21225971.04106  21225973.02206
  21428878.15506   -315799.16706   -246077.42609  21428746.08006  21428747.73106
  21771487.62306   1587771.16706   1237223.70509  21771355.86006  21771358.33506
  23951362.54306  -2233695.19506  -1740539.85009  23951230.97306  23951234.89306
  24799381.13106  -1526601.43706  -1189556.63209  24799250.19506  24799256.83406
  24515224.74806   3176155.32606   2474922.47309  24515093.36606  24515099.82606
  20846743.62106   -374298.13106   -291661.18709  20846611.90906  20846613.95006
 92  8 21  1 26 30.0000000  4  1
 -2240354.0000 -4717758.0000  3651637.0000                  APPROX POSITION XYZ
 92  8 21  1 26 30.0000000  0  7 23 28 17 11 12 03 21
  21235725.35706   1168698.88706    910674.13109  21235593.62706  21235595.58406
  21427664.76606   -322175.87606   -251046.28309  21427532.73606  21427534.39006
  21785306.91206   1660392.17706   1293811.47409  21785175.26106  21785177.66406
  23933260.23506  -2328823.28306  -1814665.56909  23933128.57206  23933132.61206
  24787245.27606  -1590376.58606  -1239251.43809  24787114.19506  24787120.64306
  24541846.26706   3316054.12206   2583934.38109  24541714.99406  24541721.85306
  20844191.93906   -387706.13706   -302108.97909  20844060.38406  20844062.47506
 92  8 21  1 28  0.0000000  0  7 23 28 17 11 12 03 21
  21264754.73816        -0.89316        -0.91719  21264622.93416  21264624.84116
  21424735.89816         0.14816        -0.01419  21424604.02916  21424605.99816
  21827069.19016        -0.16716        -0.84019  21826937.47516  21826939.94316
  23879160.81016        -0.39316         0.17519  23879029.21216  23879033.17416
  24751108.04216        -0.37116        -0.06419  24750976.97516  24750983.24216
  24621838.90116        -0.35416        -0.18719  24621707.75516  24621714.78516
  20836781.22416        -0.04816         0.02919  20836649.50716  20836651.47116
 92  8 21  1 28 30.0000000  0  7 23 28 17 11 12 03 21
  21274491.11706     51164.66706     39868.34909  21274359.37806  21274361.29506
  21423997.13706     -3882.45706     -3025.42309  21423865.24706  21423867.21406
  21841103.33406     73750.09106     57466.87109  21840971.60206  21840974.14006
  23861206.46806    -94351.46306    -73520.09009  23861074.79606  23861078.70806
  24739162.37206    -62774.67806    -48914.98609  24739031.36506  24739037.60906
  24648551.19606    140371.40006    109380.24609  24648419.86006  24648426.70106
  20834405.67706    -12482.56206     -9726.59309  20834274.08706  20834276.12906
 92  8 21  1 29  0.0000000  0  7 23 28 17 11 12 03 21
  21284262.14706    102511.72206     79879.04009  21284130.40606  21284132.35306
  21423374.10806     -7156.68606     -5576.77209  21423242.24806  21423244.12806
  21855198.66606    147821.65606    115184.94809  21855066.97506  21855069.55006
  23843295.05906   -188476.37306   -146864.12609  23843163.36206  23843167.35606
  24727270.60106   -125265.69106    -97609.17709  24727139.54606  24727145.79306
  24675288.70306    280877.75706    218865.56209  24675157.41106  24675164.23406
  20832081.96806    -24694.49406    -19242.36809  20831950.22806  20831952.20706
 92  8 21  1 29 30.0000000  0  7 23 28 17 11 12 03 21
  21294075.89306    154083.09306    120064.52009  21293944.11806  21293945.99306
  21422872.12506     -9796.45206     -7633.73509  21422740.09106  21422741.87906
  21869361.13806    222245.21206    173177.30409  21869229.35206  21869231.90806
  23825434.80106   -282331.43506   -219997.88909  23825303.34106  23825307.24006
  24715441.37006   -187429.55106   -146048.45309  24715310.09706  24715316.32806
  24702059.20806    421556.15406    328484.92209  24701927.68906  24701934.55406
  20829818.72706    -36586.90406    -28509.16909  20829687.10106  20829689.09606
 92  8 21  1 30  0.0000000  0  7 23 28 17 11 12 03 21
  21303926.90106    205850.40006    160402.67509  21303795.15706  21303797.07606
  21422485.37406    -11829.62606     -9218.02709  21422353.28406  21422355.02706
  21883583.70306    296985.17506    231416.21109  21883451.94606  21883454.47306
  23807619.53906   -375952.52806   -292949.34109  23807487.77206  23807491.70106
  24703667.17606   -249301.33306   -194260.09509  24703536.15806  24703542.50506
  24728853.84606    562364.58106    438205.62009  24728722.76706  24728729.79106
  20827605.21406    -48219.39606    -37573.43309  20827473.51606  20827475.50806
 92  8 21  1 30 30.0000000  0  7 23 28 17 11 12 03 21
  21313808.64806    257779.33106    200866.77209  21313676.92906  21313678.83006
  21422213.33806    -13257.67706    -10330.79809  21422081.32406  21422083.03906
  21897861.90306    372017.68506    289883.07709  21897730.16306  21897732.71806
  23789845.36506   -469355.76406   -365731.03009  23789713.59406  23789717.62806
  24691945.85306   -310896.97606   -242256.57809  24691814.75906  24691821.07906
  24755669.29106    703280.65206    548010.19509  24755538.22106  24755545.43506
  20825433.86106    -59629.94806    -46464.75809  20825302.21806  20825304.23206
 92  8 21  1 31  0.0000000  0  7 23 28 17 11 12 03 21
  21323718.39006    309854.60706    241444.90409  21323586.55306  21323588.45906
  21422058.13206    -14072.88406    -10966.02709  21421926.19906  21421927.88406
  21912193.07206    447328.47406    348566.77809  21912061.29606  21912063.93306
  23772113.05106   -562539.09006   -438341.36109  23771981.35706  23771985.35806
  24680277.75406   -372214.03006   -290035.98709  24680146.51206  24680152.68106
  24782504.35306    844300.12406    657895.34109  24782373.37906  24782380.60806
  20823304.18006    -70820.60106    -55184.72809  20823172.65106  20823174.67606
 92  8 21  1 31 30.0000000  0  7 23 28 17 11 12 03 21
  21333651.54806    362054.20306    282119.90709  21333519.74506  21333521.64706
  21422021.95306    -14264.26406    -11115.15609  21421889.81406  21421891.51606
  21926576.36806    522912.71806    407463.56609  21926444.61506  21926447.19306
  23754421.98006   -655505.64906   -510782.78409  23754290.51906  23754294.36906
  24668662.00606   -433255.05606   -337600.29209  24668530.64006  24668536.82906
  24809357.52906    985413.87606    767853.96609  24809226.67606  24809233.82106
  20821215.13306    -81799.83606    -63739.96109  20821083.39506  20821085.36506
 92  8 21  1 32  0.0000000  0  7 23 28 17 11 12 03 21
  21343611.55106    414394.46406    322904.51909  21343479.83006  21343481.76906
  21422108.90506    -13806.31006    -10758.30909  21421976.94206  21421978.66806
  21941016.51106    598796.39406    466593.67409  21940884.73006  21940887.32706
  23736775.80206   -748236.13906   -583040.25509  23736644.37806  23736648.34806
  24657102.39606   -494000.82906   -384934.58309  24656971.12806  24656977.22806
  24836231.25706   1126634.53506    877895.85809  24836100.18406  24836107.61106
  20819169.80606    -92546.78706    -72114.19109  20819038.27606  20819040.31506
 92  8 21  1 32 30.0000000  0  7 23 28 17 11 12 03 21
  21353598.39806    466875.67606    363798.96609  21353466.60606  21353468.52906
  21422318.36306    -12705.66006     -9900.66009  21422186.40306  21422188.17506
  21955513.81206    674980.19706    525957.65109  21955382.02406  21955384.65406
  23719175.65106   -840726.47406   -655110.58909  23719044.01306  23719047.90906
  24645599.68306   -554446.43906   -432034.94409  24645468.68706  24645474.75006
  24863125.12806   1267959.94806    988019.38009  24862993.78306  24863001.24606
  20817174.83806   -103031.61806    -80284.17009  20817043.09006  20817045.06506
 92  8 21  1 33  0.0000000  0  7 23 28 17 11 12 03 21
  21363616.10506    519519.17306    404819.86409  21363484.35506  21363486.24906
  21422645.46706    -10986.77306     -8561.27209  21422513.49706  21422515.42306
  21970066.96806    751456.98306    585549.93309  21969935.12706  21969937.73006
  23701619.85406   -932982.77406   -726998.55409  23701488.16506  23701492.08006
  24634153.19606   -614597.83706   -478906.05409  24634022.03106  24634028.26306
  24890036.22806   1409378.08406   1098215.16309  24889904.90206  24889912.37406
  20815231.49806   -113243.06106    -88241.12509  20815099.90206  20815101.87906
 92  8 21  1 33 30.0000000  0  7 23 28 17 11 12 03 21
  21373661.97306    572310.18906    445955.71009  21373530.20106  21373532.08806
  21423088.38106     -8659.38106     -6747.72609  21422956.38106  21422958.27006
  21984673.47406    828214.79206    645361.19509  21984541.72406  21984544.28306
  23684106.74406  -1025014.87406   -798711.81109  23683975.01006  23683978.90206
  24622760.71906   -674464.33406   -525555.15809  24622629.72906  24622635.94406
  24916961.98106   1550872.60106   1208470.47709  24916830.54806  24916837.75506
  20813337.64906   -123195.48706    -95996.24209  20813205.99106  20813207.99606
 92  8 21  1 34  0.0000000  0  7 23 28 17 11 12 03 21
  21383740.43906    625272.84206    487225.30409  21383608.64106  21383610.56206
  21423649.01406     -5713.65906     -4452.36309  21423517.05106  21423518.79106
  21999337.33206    905273.94606    705407.26609  21999205.59606  21999208.13606
  23666640.15406  -1116802.21806   -870234.34909  23666508.40206  23666512.28906
  24611426.75406   -734025.22206   -571966.11509  24611295.74206  24611301.62206
  24943904.41506   1692457.87306   1318796.51609  24943773.34906  24943780.43006
  20811496.22506   -132872.17606   -103536.50509  20811364.56506  20811366.54106
 92  8 21  1 34 30.0000000  0  7 23 28 17 11 12 03 21
  21393849.80906    678397.70406    528621.29309  21393718.02606  21393719.91906
  21424324.59406     -2164.12506     -1686.49709  21424192.52306  21424194.23006
  22014057.22506    982627.56906    765682.79409  22013925.43706  22013928.03806
  23649219.64906  -1208347.34906   -941568.14509  23649087.90106  23649091.70706
  24600150.40806   -793282.63206   -618140.57509  24600019.11206  24600025.17706
  24970863.13306   1834125.02106   1429186.32109  24970731.88806  24970739.08206
  20809704.10906   -142289.48306   -110874.64909  20809572.50206  20809574.49906
 92  8 21  1 35  0.0000000  0  7 23 28 17 11 12 03 21
  21403988.85006    731678.67306    570138.92509  21403857.02806  21403858.92606
  21425117.48706      2002.94106      1560.56109  21424985.43006  21424987.17106
  22028835.73006   1060288.93206    826198.12109  22028704.02606  22028706.55306
  23631847.30406  -1299639.90506  -1012705.12509  23631715.41106  23631719.21906
  24588933.58506   -852225.84506   -664070.20509  24588802.52306  24588808.44206
  24997838.17706   1975878.14506   1539643.09409  24997706.79506  24997714.15306
  20807958.54206   -151462.57806   -118022.49609  20807826.88306  20807828.87106
 92  8 21  1 35 30.0000000  0  7 23 28 17 11 12 03 21
  21414152.94306    785091.59406    611759.37509  21414021.14306  21414023.05206
  21426028.96906      6793.55406      5293.49809  21425896.98506  21425898.73206
  22043673.25506   1138259.93106    886954.72709  22043541.42006  22043544.01506
  23614523.29706  -1390677.36206  -1083643.32109  23614391.51906  23614395.26706
  24577777.22206   -910852.29606   -709753.00209  24577646.12606  24577652.20606
  25024828.75906   2117713.50306   1650163.96109  25024697.33806  25024704.65806
  20806257.48806   -160401.87106   -124988.16409  20806125.78706  20806127.79906
 92  8 21  1 36  0.0000000  0  7 23 28 17 11 12 03 21
  21424349.05706    838672.52906    653510.74409  21424217.26606  21424219.14606
  21427063.02606     12226.32006      9526.81509  21426930.98506  21426932.70906
  22058575.55906   1216572.50606    947977.48909  22058443.74606  22058446.35506
  23597252.91906  -1481433.09606  -1154361.99309  23597121.19306  23597124.99406
  24566686.09106   -969134.82006   -755167.77909  24566555.13006  24566561.07006
  25051838.67006   2259651.53406   1760764.84809  25051707.32306  25051714.78206
  20804603.59306   -169092.68706   -131760.21309  20804471.94706  20804473.94306
 92  8 21  1 36 30.0000000  0  7 23 28 11 17 12 03 21
  21434578.50906    892429.14606    695399.00609  21434446.76906  21434448.65706
  21428222.34606     18318.95406     14274.31709  21428090.30206  21428092.02706
  23580038.27306  -1571895.06506  -1224851.75909  23579906.79006  23579910.54606
  22073543.13606   1295227.71906   1009267.24209  22073411.37106  22073413.99906
  24555663.28906  -1027061.14706   -800305.01509  24555532.13006  24555538.01206
  25078869.19306   2401697.95206   1871450.19109  25078737.82106  25078745.47506
  20802997.90706   -177530.70206   -138335.27709  20802866.26006  20802868.25506
 92  8 21  1 37  0.0000000  0  7 23 28 17 11 12 03 21
  21444833.70206    946320.17106    737392.00109  21444701.92006  21444703.81906
  21429504.38306     25057.75206     19525.32309  21429372.47006  21429374.22206
  22088568.04206   1374184.71706   1070792.15909  22088436.36506  22088438.93506
  23562874.43006  -1662091.77506  -1295134.83109  23562742.89806  23562746.66606
  24544702.25106  -1084659.62306   -845186.76509  24544571.27506  24544577.10706
  25105913.86506   2543817.82206   1982192.75109  25105782.55206  25105790.28206
  20801433.06806   -185753.84206   -144742.90809  20801301.43406  20801303.40006
 92  8 21  1 37 30.0000000  0  7 23 28 11 17 12 03 21
  21455110.83506   1000327.08006    779475.29809  21454979.10306  21454980.99006
  21430903.33906     32408.96906     25253.54009  21430771.39706  21430773.22006
  23545756.10606  -1752049.05006  -1365231.33309  23545624.54006  23545628.23506
  22103642.67006   1453402.35206   1132520.16109  22103511.00206  22103513.61006
  24533799.34406  -1141955.59606   -889832.80109  24533668.17706  24533673.87906
  25132966.30306   2685979.25006   2092967.69309  25132835.05606  25132843.08006
  20799904.07106   -193789.52006   -151004.46709  20799772.31506  20799774.26906
 92  8 21  1 38  0.0000000  0  7 23 28 11 17 12 03 21
  21465413.93306   1054469.75706    821664.39409  21465282.13306  21465284.00006
  21432421.87506     40388.44806     31471.31009  21432289.95206  21432291.79506
  23528686.82806  -1841748.89406  -1435127.24409  23528555.20506  23528558.87806
  22118767.63306   1532884.50606   1194454.28509  22118635.93106  22118638.63406
  24522957.09806  -1198931.07906   -934229.11109  24522825.97006  24522831.72706
  25160029.31106   2828193.85506   2203784.05209  25159897.87906  25159905.84506
  20798413.78006   -201619.93006   -157106.07309  20798282.21106  20798284.21506
 92  8 21  1 38 30.0000000  0  7 23 28 11 17 12 03 21
  21475747.76806   1108774.82006    863980.02709  21475616.04406  21475617.89506
  21434065.68906     49026.63406     38202.35909  21433933.74506  21433935.55806
  23511673.20506  -1931156.09606  -1504795.12809  23511541.60006  23511545.10106
  22133947.01506   1612652.29306   1256610.97509  22133815.26106  22133817.90106
  24512182.68806  -1255550.38506   -978347.88709  24512051.56406  24512057.24406
  25187107.50706   2970490.68506   2314664.49709  25186976.30206  25186984.05306
  20796971.55406   -209199.38306   -163012.13309  20796839.86206  20796841.84006
 92  8 21  1 39  0.0000000  0  7 23 28 11 17 12 03 21
  21486112.16306   1163239.79406    906420.26209  21485980.37006  21485982.25806
  21435833.48706     58315.92606     45440.76609  21435701.42706  21435703.10106
  23494715.72606  -2020268.26906  -1574233.13109  23494584.07906  23494587.61006
  22149183.02406   1692717.69106   1318999.57609  22149051.24706  22149053.92206
  24501476.41806  -1311811.06706  -1022187.21809  24501345.29106  24501351.07306
  25214200.65006   3112866.01106   2425606.12909  25214069.50706  25214077.40306
  20795578.53306   -216519.38506   -168716.02309  20795446.90906  20795448.90606
 92  8 21  1 39 30.0000000  0  7 23 28 11 17 12 03 21
  21496510.04406   1217881.43306    948998.15909  21496378.33806  21496380.23106
  21437720.69306     68232.82106     53168.21909  21437588.59806  21437590.25006
  23477813.74606  -2109088.72606  -1643443.82509  23477682.02506  23477685.61206
  22164475.59506   1773080.56906   1381619.98009  22164343.79306  22164346.51606
  24490837.78206  -1367716.07806  -1065749.41209  24490706.71906  24490712.45506
  25241306.96706   3255309.76406   2536601.08609  25241175.76106  25241183.79306
  20794237.70506   -223565.72906   -174206.66809  20794106.06206  20794108.01306
 92  8 21  1 40  0.0000000  0  7 23 28 11 17 12 03 21
  21506936.27806   1272671.20806    991691.48809  21506804.52306  21506806.41206
  21439726.76206     78775.64806     61383.41409  21439594.75206  21439596.46706
  23460964.46006  -2197632.03306  -1712438.56609  23460832.73906  23460836.32806
  22179822.74106   1853730.33906   1444463.93709  22179690.98906  22179693.63206
  24480264.18306  -1423279.93006  -1109045.75709  24480133.27706  24480138.94506
  25268422.40706   3397801.33206   2647633.28609  25268291.28506  25268299.19606
  20792947.45106   -230345.98406   -179489.97409  20792815.81406  20792817.79106
 92  8 21  1 40 30.0000000  0  7 23 28 11 17 12 03 21
  21517385.34406   1327581.66206   1034478.85409  21517253.62506  21517255.59006
  21441849.46806     89930.92606     70075.83809  21441717.44406  21441719.30306
  23444164.93206  -2285914.67306  -1781230.19409  23444033.13306  23444036.61406
  22195223.50906   1934662.23606   1507527.73409  22195091.81806  22195094.49606
  24469752.47206  -1478518.91206  -1152088.98009  24469621.42006  24469627.13806
  25295543.03706   3540318.23906   2758685.22709  25295411.50406  25295419.34006
  20791703.69806   -236881.67706   -184582.71309  20791572.08706  20791574.03906
 92  8 21  1 41  0.0000000  0  7 23 28 11 17 12 03 21
  21527850.19906   1382575.18906   1077330.95409  21527718.52906  21527720.45406
  21444084.10406    101674.84206     79226.93809  21443952.18106  21443954.00906
  23427410.68106  -2373957.60006  -1849835.04109  23427279.02006  23427282.58406
  22210675.02606   2015860.41406   1570799.02509  22210543.34906  22210546.02106
  24459298.72506  -1533453.85806  -1194895.30009  24459167.63306  24459173.25106
  25322662.56306   3682832.81906   2869735.38709  25322531.31106  25322538.94106
  20790501.46506   -243199.79006   -189505.91109  20790369.80306  20790371.74206
 92  8 21  1 41 30.0000000  0  7 23 28 11 17 12 03 21
  21538327.27806   1437632.59906   1120232.83009  21538195.58306  21538197.52806
  21446430.42506    114003.65606     88833.80209  21446298.47106  21446300.40206
  23410701.97406  -2461762.00606  -1918254.03409  23410570.40906  23410573.91806
  22226174.56706   2097310.52006   1634266.62509  22226042.77906  22226045.45906
  24448902.67606  -1588085.45406  -1237465.24209  24448771.46706  24448777.03606
  25349780.66106   3825338.03206   2980778.22709  25349649.26206  25349657.09906
  20789337.01006   -249318.40606   -194273.65209  20789205.42406  20789207.40106
 92  8 21  1 42  0.0000000  0  7 23 28 11 17 12 03 21
  21548818.28206   1492762.84806   1163191.46309  21548686.53806  21548688.49606
  21448893.55006    126947.28406     98919.74009  21448761.56206  21448763.47806
  23394044.68906  -2549296.68606  -1986462.85209  23393913.05806  23393916.66006
  22241726.46506   2179036.58006   1697949.24509  22241594.63006  22241597.41006
  24438570.04106  -1642382.71306  -1279774.66809  24438439.02206  24438444.53106
  25376901.57206   3967858.45906   3091832.90509  25376770.12706  25376777.98106
  20788210.87806   -255236.87806   -198885.43409  20788079.17906  20788081.08406
 92  8 21  1 42 30.0000000  0  7 23 28 11 17 12 03 21
  21559328.91106   1547996.43106   1206230.61609  21559197.14106  21559199.05906
  21451471.91806    140497.63606    109478.44809  21451339.95506  21451341.79006
  23377442.49506  -2636541.29006  -2054445.63609  23377310.95206  23377314.52406
  22257333.44406   2261051.33906   1761856.83009  22257201.58606  22257204.28506
  24428304.97306  -1696324.93606  -1321807.43909  24428174.00306  24428179.51006
  25404028.07406   4110408.46406   3202910.64409  25403896.59206  25403904.66306
  20787123.70906   -260949.35906   -203336.70309  20786992.11906  20786994.06106
 92  8 21  1 43  0.0000000  0  7 23 11 28 17 12 03 21
  21569865.69406   1603368.05506   1249377.33609  21569734.02006  21569735.91706
  23360900.56806  -2723470.37706  -2122182.56409  23360768.85006  23360772.45106
  21454168.19606    154666.00506    120518.72709  21454036.23206  21454038.02406
  22272995.93206   2343358.31706   1825992.12009  22272864.17006  22272866.89306
  24418112.60506  -1749886.62406  -1363543.69909  24417981.36506  24417986.86806
  25431163.82906   4253007.13806   3314026.30309  25431032.30406  25431040.38306
  20786079.49406   -266437.39906   -207613.08309  20785947.80506  20785949.73306
 92  8 21  1 43 30.0000000  0  7 23 11 28 17 12 03 21
  21580437.08606   1658920.44306   1292664.90809  21580305.29606  21580307.18306
  23344421.04706  -2810070.69006  -2189663.30209  23344289.34206  23344292.86606
  21456985.51006    169470.54006    132054.71509  21456853.47206  21456855.24806
  22288713.21406   2425953.28706   1890351.82009  22288581.49306  22288584.17806
  24407995.13006  -1803054.44206  -1404973.07809  24407863.88006  24407869.29006
  25458310.06706   4395661.51406   3425185.34309  25458178.61006  25458186.80606
  20785077.54306   -271702.26006   -211715.55609  20784945.88506  20784947.84506
 92  8 21  1 44  0.0000000  0  7 23 11 28 17 12 03 21
  21591052.22706   1714703.33506   1336132.09109  21590920.44306  21590922.33406
  23328010.86506  -2896307.04206  -2256860.43609  23327879.16706  23327882.60406
  21459928.99906    184938.90706    144107.97709  21459797.01706  21459798.75006
  22304491.39306   2508868.00706   1954960.66509  22304359.63706  22304362.39106
  24397959.04706  -1855793.10706  -1446068.03409  24397827.96906  24397833.23406
  25485472.15906   4538400.17906   3536410.07009  25485340.96406  25485349.33806
  20784126.92406   -276697.40606   -215607.86209  20783995.33606  20783997.27206
 92  8 21  1 44 30.0000000  0  7 23 11 28 17 12 03 21
  21601709.05606   1770705.89506   1379770.44609  21601577.35106  21601579.25406
  23311669.81206  -2982180.49506  -2323774.78809  23311537.88306  23311541.38706
  21462997.28506    201063.59306    156672.65309  21462865.35406  21462867.22006
  22320331.20606   2592106.69306   2019821.95609  22320199.39706  22320202.12306
  24388004.63206  -1908103.44106  -1486829.22609  24387873.56106  24387878.91406
  25512649.28906   4681216.26506   3647695.13209  25512518.14606  25512526.59706
  20783230.87706   -281406.14606   -219276.98909  20783099.26506  20783101.18306
 92  8 21  1 45  0.0000000  0  7 23 11 28 17 12 03 21
  21612399.95406   1826886.68406   1423547.68109  21612268.17106  21612270.07906
  23295392.53806  -3067717.23406  -2390426.76309  23295260.82506  23295264.34306
  21466187.21106    217828.22406    169735.98309  21466055.30206  21466057.28506
  22336229.85306   2675655.33806   2084924.77909  22336098.24206  22336100.90806
  24378126.70606  -1960011.65406  -1527277.06809  24377995.65406  24378000.96706
  25539835.15306   4824077.10406   3759015.10209  25539703.89406  25539712.26006
  20782383.18106   -285861.06206   -222748.33009  20782251.48606  20782253.37906
 92  8 21  1 45 30.0000000  0  7 23 11 28 17 12 03 21
  21623117.98306   1883209.98806   1467435.96809  21622986.21106  21622988.15606
  23279176.91406  -3152930.82106  -2456826.92609  23279045.20006  23279048.64606
  21469496.09906    235215.21406    183284.26509  21469364.17906  21469366.13106
  22352186.57106   2759508.28806   2150264.72109  22352054.91506  22352057.66806
  24368322.83306  -2011531.22506  -1567422.08609  24368191.73206  24368196.96306
  25567025.49106   4966962.91106   3870354.54909  25566894.34406  25566902.61706
  20781581.21206   -290074.40706   -226031.43409  20781449.69306  20781451.61906
 92  8 21  1 46  0.0000000  0  7 23 11 28 17 12 03 21
  21633853.68806   1939626.82606   1511397.13809  21633721.97706  21633723.89106
  23263020.64206  -3237831.82306  -2522983.50909  23262889.02306  23262892.45606
  21472919.11306    253201.07706    197299.20209  21472787.07506  21472788.85906
  22368201.24206   2843665.92406   2215842.06809  22368069.61506  22368072.34806
  24358590.84906  -2062672.65806  -1607272.45509  24358459.83006  24358465.11006
  25594217.35006   5109856.83606   3981700.33609  25594086.15506  25594094.72806
  20780824.46906   -294052.97806   -229131.59409  20780692.66906  20780694.55306
 92  8 21  1 46 30.0000000  0  7 23 11 28 17 12 03 21
  21644604.72506   1996124.06906   1555420.96509  21644473.02406  21644474.96006
  23246923.80706  -3322421.38406  -2588897.40409  23246792.11206  23246795.53506
  21476455.99206    271787.72406    211782.28609  21476323.96206  21476325.67006
  22384273.29306   2928124.52906   2281653.94709  22384141.60006  22384144.35406
  24348930.75206  -2113437.12906  -1646829.09409  24348799.56906  24348804.90506
  25621409.66006   5252751.60306   4093046.75409  25621278.46406  25621286.71106
  20780108.33706   -297814.24606   -232062.43209  20779976.79706  20779978.68306
 92  8 21  1 47  0.0000000  0  7 23 11 28 17 12 03 21
  21655372.27506   2052707.79006   1599512.17709  21655240.58306  21655242.47706
  23230885.72706  -3406701.57806  -2654570.23109  23230754.10306  23230757.52006
  21480108.22106    290981.73006    226738.63509  21479976.24006  21479977.98906
  22400396.70606   3012853.77306   2347676.70309  22400265.03906  22400267.69806
  24339342.04406  -2163826.46706  -1686093.41409  24339210.72706  24339215.85706
  25648600.30306   5395639.15906   4204387.56409  25648469.10506  25648477.50706
  20779431.58406   -301371.73806   -234834.48309  20779299.88606  20779301.80306
 92  8 21  1 47 30.0000000  0  7 23 11 28 17 12 03 21
  21666156.38306   2109378.69706   1643671.32409  21666024.64106  21666026.53806
  23214906.03406  -3490675.89206  -2720004.70409  23214774.26106  23214777.66706
  21483873.52106    310769.16206    242157.39209  21483741.61506  21483743.50906
  22416564.72106   3097816.62506   2413881.49409  22416432.91006  22416435.62606
  24329823.76806  -2213844.29406  -1725068.24909  24329692.53906  24329697.72806
  25675787.48606   5538509.54806   4315714.93309  25675656.61606  25675664.77206
  20778795.78206   -304712.63406   -237437.76109  20778664.14106  20778666.00306
 92  8 21  1 48  0.0000000  0  7 23 11 28 17 12 03 21
  21676959.01606   2166146.83006   1687906.22809  21676827.26806  21676829.17706
  23198984.77506  -3574341.95606  -2785198.98309  23198853.12106  23198856.52606
  21487753.47106    331157.95806    258044.74409  21487621.57306  21487623.46706
  22432776.29206   3183009.75606   2480265.71909  22432644.60906  22432647.29606
  24320376.73806  -2263488.23306  -1763751.74209  24320245.58206  24320250.61206
  25702971.08806   5681359.06206   4427026.10509  25702839.73406  25702848.43906
  20778201.23606   -307837.09806   -239872.39009  20778069.53506  20778071.43206
 92  8 21  1 48 30.0000000  0  7 23 11 28 12 17 03 21
  21687784.19006   2223033.50406   1732233.50709  21687652.49006  21687654.40606
  23183124.01706  -3657690.61606  -2850145.93309  23182992.40506  23182995.80406
  21491751.33606    352165.95806    274414.60009  21491619.43106  21491621.23406
  24311002.71906  -2312749.00406  -1802136.66109  24310871.56106  24310876.65006
  22449031.13106   3268428.21906   2546825.53009  22448899.30106  22448902.00706
  25730150.80206   5824190.47706   4538323.12709  25730019.91006  25730028.51106
  20777648.44306   -310741.94306   -242135.88609  20777516.76206  20777518.64106
 92  8 21  1 49  0.0000000  0  7 23 11 28 12 17 03 21
  21698636.50906   2280062.69006   1776671.83409  21698504.80906  21698506.64406
  23167327.80106  -3740699.68206  -2914828.26209  23167196.17006  23167199.64006
  21495870.00406    373809.68506    291279.83409  21495738.02506  21495739.87306
  24301705.71206  -2361604.44706  -1840205.74309  24301574.51906  24301579.54106
  22465333.03506   3354095.12206   2613578.92809  22465201.21006  22465203.92506
  25757330.03706   5967019.80206   4649618.53609  25757199.57906  25757208.33106
  20777142.73506   -313398.73606   -244206.09809  20777011.12006  20777013.00506
 92  8 21  1 49 30.0000000  0  6 23 11 28 12 17 21
  21709518.79106   2337249.64406   1821233.09109  21709387.09206  21709388.97406
  23151599.63806  -3823351.86506  -2979232.50209  23151467.97906  23151471.31006
  21500110.58306    396095.20406    308645.16409  21499978.66506  21499980.62006
  24292488.88706  -2410037.37406  -1877945.59509  24292357.98006  24292363.09806
  22481688.93306   3440046.79706   2680554.22309  22481557.29406  22481560.05506
  20776685.96606   -315799.43906   -246076.76209  20776554.30806  20776556.17006
 92  8 21  1 50  0.0000000  0  6 11 23 28 12 17 21
  23135946.66206  -3905608.36806  -3043328.42109  23135815.01906  23135818.37406
  21720436.85606   2394623.74006   1865940.17409  21720305.02606  21720306.91306
  21504481.71806    419066.13306    326544.57509  21504349.85306  21504351.85006
  24283360.32506  -2458009.07706  -1915326.05909  24283229.24706  24283234.15306
  22498110.23506   3526340.72706   2747796.21009  22497978.50906  22497981.31506
  20776280.73406   -317928.27006   -247735.57709  20776149.13306  20776151.01306
 92  8 21  1 50 30.0000000  0  6 23 11 28 12 17 21
  21731388.83206   2452176.76206   1910786.67609  21731257.04606  21731258.91206
  23120368.67906  -3987470.71806  -3107117.21409  23120237.07106  23120240.46506
  21508980.78706    442707.10006    344966.09509  21508848.87606  21508850.76306
  24274319.21006  -2505521.10906  -1952348.34309  24274188.01606  24274192.92906
  22514595.46506   3612970.99406   2815300.28809  22514463.75306  22514466.49906
  20775927.42406   -319785.49506   -249182.75909  20775795.78206  20775797.65206
 92  8 21  1 51  0.0000000  0  6 23 11 28 12 17 21
  21742365.88206   2509862.10006   1955736.28309  21742234.19106  21742236.09206
  23104858.45406  -4068977.08006  -3170628.61509  23104726.83206  23104730.28506
  21513593.83706    466948.91306    363855.81309  21513461.86706  21513463.79306
  24265357.93006  -2552611.66306  -1989042.19909  24265226.87806  24265231.86206
  22531137.59706   3699900.45506   2883037.50209  22531005.93506  22531008.66506
  20775618.05106   -321411.06906   -250449.43009  20775486.41106  20775488.29706
 92  8 21  1 51 30.0000000  0  6 23 11 28 12 17 21
  21753363.00206   2567652.50806   2000767.75809  21753231.25506  21753233.22906
  23089413.60406  -4150140.30106  -3233872.63809  23089281.94106  23089285.36706
  21518317.63706    491773.77506    383199.85009  21518185.71106  21518187.71306
  24256474.69306  -2599293.54706  -2025417.61309  24256343.52706  24256348.44306
  22547732.61906   3787107.84406   2950991.28309  22547600.91406  22547603.72006
  20775346.70606   -322837.21506   -251560.70909  20775215.03906  20775216.90106
 92  8 21  1 52  0.0000000  0  6 11 23 28 12 17 21
  23074035.71306  -4230951.26306  -3296842.17709  23073904.12706  23073907.59706
  21764378.59306   2625539.72306   2045874.66509  21764246.84806  21764248.78506
  21523153.73706    517188.30506    403003.36709  21523021.87606  21523023.69206
  24247670.68806  -2645557.90006  -2061467.67709  24247539.66906  24247544.66306
  22564381.84806   3874600.00606   3019166.96609  22564250.18306  22564252.93206
  20775115.33306   -324052.57606   -252507.74209  20774983.74206  20774985.62106
 92  8 21  1 52 30.0000000  0  6 11 23 28 12 17 21
  23058726.36706  -4311402.01406  -3359531.03909  23058594.85706  23058598.20606
  21775414.43306   2683533.01506   2091064.22809  21775282.67706  21775284.63706
  21528101.57306    543186.98706    423262.07909  21527969.57706  21527971.12006
  24238947.89506  -2691396.80006  -2097186.23109  24238816.80506  24238821.69806
  22581084.40706   3962372.13506   3087560.80109  22580952.69306  22580955.50406
  20774924.55306   -325055.81506   -253289.48709  20774792.85406  20774794.74206
 92  8 21  1 53  0.0000000  0  6 11 23 28 12 17 21
  23043489.86006  -4391470.55806  -3421922.08309  23043358.27006  23043361.70106
  21786475.51206   2741659.53406   2136357.60509  21786343.77206  21786345.68206
  21533165.87906    569799.56306    443999.15609  21533033.86306  21533035.48206
  24230310.11406  -2736788.29806  -2132556.14809  24230178.91306  24230183.91406
  22597841.64906   4050431.77806   3156178.68409  22597709.85806  22597712.64306
  20774775.22506   -325839.86206   -253900.43709  20774643.64406  20774645.50106
 92  8 21  1 53 30.0000000  0  6 11 23 28 12 17 21
  23028326.39906  -4471154.90006  -3484013.75109  23028194.83006  23028198.21006
  21797562.73706   2799923.09606   2181757.76509  21797430.95806  21797432.89206
  21538349.97206    597042.81406    465227.66109  21538217.95506  21538219.79106
  24221757.75006  -2781730.79506  -2167576.20609  24221626.53106  24221631.52806
  22614653.44306   4138779.06806   3225020.70709  22614521.80806  22614524.66006
  20774669.03206   -326398.29206   -254335.57909  20774537.36806  20774539.23206
 92  8 21  1 54  0.0000000  0  6 11 23 28 12 17 21
  23013234.75906  -4550462.12906  -3545811.56809  23013103.09406  23013106.53306
  21808676.05206   2858323.09706   2227264.23509  21808544.15806  21808546.10406
  21543650.44206    624897.29406    486932.43709  21543518.50306  21543520.55306
  24213289.53806  -2826231.01106  -2202251.61809  24213158.25906  24213163.36606
  22631518.52806   4227404.88306   3294079.76609  22631386.79206  22631389.55006
  20774606.74306   -326725.59206   -254590.62309  20774475.09006  20774476.94606
 92  8 21  1 54 30.0000000  0  6 11 23 28 12 17 21
  22998215.20906  -4629389.99406  -3607313.77509  22998083.62106  22998087.02406
  21819818.44206   2916876.94706   2272890.59109  21819686.58506  21819688.54306
  21549065.43106    653354.06406    509106.53609  21548933.52206  21548935.45806
  24204906.07406  -2870287.27206  -2236581.08809  24204774.61506  24204779.64806
  22648434.06306   4316296.74606   3363346.14109  22648302.27006  22648305.07006
  20774589.96406   -326812.88306   -254658.64409  20774458.49606  20774460.34706
 92  8 21  1 55  0.0000000  0  6 23 11 28 12 17 21
  21830986.70106   2975566.87406   2318622.97909  21830854.92106  21830856.90206
  22983266.94006  -4707943.71106  -3668524.44309  22983135.34406  22983138.71506
  21554592.95606    682401.01906    531740.52709  21554461.01106  21554462.73706
  24196605.64306  -2913904.99706  -2270568.84109  24196474.46006  24196479.40806
  22665400.68406   4405457.59206   3432822.10909  22665269.06106  22665271.88006
  20774620.01006   -326655.45106   -254535.96809  20774488.34506  20774490.21906
 92  8 21  1 55 30.0000000  0  6 23 11 28 12 17 21
  21842174.47006   3034359.15306   2364435.12509  21842042.70506  21842044.68306
  22968388.05606  -4786133.75106  -3729451.72309  22968256.27606  22968259.73006
  21560228.17606    712013.46506    554815.16609  21560096.16206  21560097.82506
  24188386.88406  -2957094.48406  -2304222.91209  24188255.83706  24188260.70106
  22682418.83106   4494888.05206   3502508.16909  22682287.15306  22682289.90106
  20774693.64906   -326268.08506   -254234.12209  20774562.04206  20774563.94406
 92  8 21  1 56  0.0000000  0  6 23 11 28 12 17 21
  21853378.06606   3093234.78606   2410312.22209  21853246.32606  21853248.36506
  22953576.62606  -4863967.54606  -3790101.40809  22953444.97306  22953448.28606
  21565968.70906    742180.54406    578321.98809  21565836.74106  21565838.52806
  24180248.04006  -2999863.53306  -2337549.36409  24180117.04106  24180121.93906
  22699484.46906   4584568.25706   3572388.82809  22699352.79406  22699355.56806
  20774807.52006   -325670.62806   -253768.57009  20774675.82606  20774677.71306
 92  8 21  1 56 30.0000000  4  1
 -2240354.0000 -4717758.0000  3651637.0000                  APPROX POSITION XYZ
 92  8 21  1 56 30.0000000  0  6 23 11 12 28 17 21
  21864593.91306   3152173.65706   2456238.59809  21864462.09606  21864464.03406
  22938831.32906  -4941454.08806  -3850480.50409  22938699.76006  22938703.12606
  24172187.50306  -3042221.45806  -2370555.46809  24172056.45906  24172061.39406
  21571816.01006    772909.04806    602266.27709  21571684.03606  21571685.95106
  22716593.04306   4674474.13706   3642445.34309  22716461.28806  22716464.10906
  20774958.09506   -324879.32006   -253151.96309  20774826.42406  20774828.28706
 92  8 21  1 57  0.0000000  0  6 23 11 28 12 17 21
  21875813.22406   3211131.69506   2502179.91009  21875681.43706  21875683.40606
  22924148.89706  -5018610.78806  -3910602.57309  22924017.30806  22924020.70006
  21577768.99106    804191.18306    626641.96609  21577636.98406  21577638.86506
  24164202.03306  -3084185.82606  -2403254.90009  24164070.85906  24164075.76206
  22733740.32206   4764583.68206   3712660.55809  22733608.51206  22733611.31806
  20775138.58506   -323930.24606   -252412.42009  20775007.01806  20775008.89806
 92  8 21  1 57 30.0000000  0  6 23 11 12 28 17 21
  21887039.09006   3270124.44506   2548148.27309  21886907.35506  21886909.36906
  22909531.11206  -5095427.83406  -3970459.97309  22909399.47606  22909402.81306
  24156293.13706  -3125746.99306  -2435640.13409  24156162.02706  24156166.85306
  21583830.73506    836046.12906    651464.00709  21583698.80706  21583700.70806
  22750926.05806   4854894.57506   3783032.66509  22750794.11706  22750796.99106
  20775350.19206   -322819.25406   -251546.70309  20775218.47006  20775220.30606
 92  8 21  1 58  0.0000000  0  6 23 11 12 28 17 21
  21898276.30906   3329175.75406   2594162.26809  21898144.49106  21898146.49006
  22894979.89106  -5171895.09306  -4030044.80609  22894848.28006  22894851.57406
  24148462.86206  -3166895.13206  -2467703.52909  24148331.61806  24148336.52306
  21590004.60406    868489.89506    676744.86809  21589872.63906  21589874.50406
  22768150.56206   4945409.95906   3853564.12109  22768018.68206  22768021.51706
  20775595.66506   -321527.85806   -250540.40809  20775464.12806  20775465.96006
 92  8 21  1 58 30.0000000  0  6 23 11 28 12 17 21
  21909527.97106   3388303.39106   2640235.74509  21909396.15606  21909398.16506
  22880498.39206  -5247996.08706  -4089344.23509  22880366.70806  22880369.97606
  21596292.14306    901531.38906    702491.48609  21596160.24006  21596162.09706
  24140714.27206  -3207613.73606  -2499432.23409  24140583.01406  24140587.97806
  22785417.72406   5036150.36806   3924270.92109  22785285.99106  22785288.88206
  20775878.34506   -320043.45006   -249383.71409  20775746.65706  20775748.50906
 92  8 21  1 59  0.0000000  0  6 23 11 12 28 17 21
  21920797.15206   3447523.73806   2686381.46609  21920665.40806  21920667.35406
  22866089.03006  -5323717.88906  -4148348.18609  22865957.29206  22865960.55906
  24133049.75106  -3247890.59306  -2530816.71909  24132918.60106  24132923.46006
  21602691.14306    935158.12406    728694.13909  21602559.12306  21602560.81506
  22802730.98406   5127132.88506   3995166.36909  22802599.39406  22802602.34706
  20776197.89306   -318363.61806   -248074.74309  20776066.27106  20776068.10906
 92  8 21  1 59 30.0000000  0  6 23 11 12 28 17 21
  21932086.51306   3506850.42306   2732610.04909  21931954.82706  21931956.75006
  22851751.44206  -5399061.67706  -4207057.58209  22851619.79606  22851623.03706
  24125469.08206  -3287726.96306  -2561857.98209  24125337.86606  24125342.78306
  21609197.73206    969350.19506    755337.31709  21609065.76106  21609067.50706
  22820089.17306   5218350.27806   4066244.81809  22819957.46806  22819960.39406
  20776554.54606   -316489.52706   -246614.39809  20776422.88506  20776424.71406
 92  8 21  2  0  0.0000000  0  6 23 11 12 28 17 21
  21943397.93706   3566292.01106   2778928.16809  21943266.20706  21943268.20306
  22837489.79006  -5474006.94306  -4265456.44009  22837358.13106  22837361.33906
  24117976.08806  -3327102.52206  -2592540.15409  24117844.95706  24117849.85406
  21615812.08406   1004109.55006    782422.52809  21615680.13506  21615682.13206
  22837494.04906   5309813.96606   4137515.19809  22837362.48406  22837365.39406
  20776950.15106   -314410.41206   -244994.29009  20776818.50206  20776820.33806
 92  8 21  2  0 30.0000000  0  6 23 11 12 28 17 21
  21954735.15406   3625869.36206   2825352.07609  21954603.36606  21954605.39606
  22823308.89606  -5548527.37306  -4323524.25609  22823177.29706  22823180.55306
  24110575.75506  -3365991.29906  -2622843.00909  24110444.65506  24110449.41706
  21622536.89706   1039448.84206    809959.62809  21622404.97406  21622406.93006
  22854949.87106   5401545.09606   4208993.97709  22854818.31706  22854821.22006
  20777386.83806   -312115.67706   -243206.16609  20777255.15006  20777256.98506
 92  8 21  2  1  0.0000000  0  6 11 23 12 28 17 21
  22809211.16106  -5622611.31906  -4381251.95509  22809079.52306  22809082.78806
  21966100.68406   3685595.59606   2871892.00309  21965968.94606  21965970.91406
  24103270.10606  -3404382.07106  -2652757.81109  24103138.87906  24103143.73606
  21629373.82106   1075376.14006    837954.91809  21629241.80406  21629243.57306
  22872457.77706   5493548.55006   4280684.93909  22872325.99806  22872328.89806
  20777866.13706   -309596.78906   -241243.37609  20777734.49706  20777736.31906
 92  8 21  2  1 30.0000000  0  6 11 23 12 28 17 21
  22795199.52406  -5696243.08306  -4438627.30509  22795067.89306  22795071.05206
  21977496.26306   3745479.65206   2918554.91209  21977364.55606  21977366.50606
  24096062.06106  -3442259.27206  -2682272.42609  24095931.12406  24095935.90906
  21636326.87906   1111914.01906    866425.99009  21636194.82206  21636196.56806
  22890020.01506   5585837.96906   4352598.74509  22889888.16306  22889891.15006
  20778393.13806   -306827.14306   -239085.18909  20778261.49806  20778263.30606
 92  8 21  2  2  0.0000000  0  6 11 23 12 28 17 21
  22781275.17106  -5769416.38806  -4495645.41809  22781143.50206  22781146.56606
  21988921.69006   3805520.26906   2965339.81109  21988789.84706  21988791.82506
  24088952.97106  -3479617.10206  -2711382.34109  24088822.09806  24088826.88906
  21643399.70306   1149082.99906    895388.82209  21643267.76306  21643269.61906
  22907638.12306   5678421.41706   4424741.65209  22907506.21506  22907509.19806
  20778969.36906   -303799.30106   -236725.81209  20778837.69206  20778839.48506
 92  8 21  2  2 30.0000000  0  6 11 23 12 28 17 21
  22767436.10206  -5842141.72606  -4552314.46509  22767304.31806  22767307.38106
  22000374.30406   3865704.53406   3012236.64509  22000242.49006  22000244.49106
  24081940.77806  -3516466.28506  -2740095.91509  24081809.94206  24081814.69306
  21650589.85306   1186867.48606    924831.26309  21650457.85406  21650459.75906
  22925309.00406   5771283.15006   4497101.41809  22925177.25306  22925180.16606
  20779594.40406   -300514.07206   -234165.87409  20779462.84306  20779464.64706
 92  8 21  2  3  0.0000000  0  6 11 23 12 28 17 21
  22753681.10206  -5914424.89906  -4608638.96809  22753549.26306  22753552.30206
  22011850.61906   3926013.26506   3059230.46909  22011718.92906  22011720.91206
  24075024.24706  -3552813.18906  -2768418.09209  24074893.28206  24074897.99306
  21657894.72406   1225254.85106    954743.47609  21657762.70506  21657764.61606
  22943030.38406   5864409.35906   4569667.26509  22942898.59206  22942901.58506
  20780269.80106   -296965.55106   -231400.77209  20780138.06006  20780139.88806
 92  8 21  2  3 30.0000000  0  6 11 23 12 28 17 21
  22740008.76506  -5986272.99806  -4664624.44909  22739876.99306  22739880.01506
  22023344.72106   3986415.54406   3106297.18909  22023213.03206  22023215.02306
  24068201.82406  -3588665.13506  -2796354.59509  24068070.70106  24068075.45506
  21665312.24106   1264234.93506    985117.55009  21665180.26106  21665182.09506
  22960800.38106   5957790.86206   4642432.04409  22960668.49306  22960671.40706
  20780994.72806   -293155.22606   -228431.66709  20780863.13206  20780864.92206
 92  8 21  2  4  0.0000000  0  6 11 23 12 28 17 21
  22726421.33306  -6057675.05006  -4720262.36009  22726289.52906  22726292.56906
  22034856.83106   4046911.91006   3153437.21609  22034725.10206  22034727.08306
  24061475.43406  -3624011.50706  -2823897.14709  24061344.49106  24061349.15306
  21672841.54706   1303801.68006   1015948.76309  21672709.64706  21672711.46806
  22978621.65306   6051441.69706   4715406.69909  22978489.71206  22978492.65706
  20781767.89406   -289092.46606   -225265.86009  20781636.22706  20781638.05406
 92  8 21  2  4 30.0000000  0  6 11 23 12 28 17 21
  22712919.69606  -6128625.98906  -4775548.75509  22712787.94506  22712791.02306
  22046385.53506   4107495.62206   3200645.30709  22046253.81706  22046255.78106
  24054846.44606  -3658847.77406  -2851042.21509  24054715.29006  24054720.03306
  21680478.90206   1343936.72806   1047222.80809  21680346.96206  21680348.81106
  22996495.22106   6145368.28206   4788596.21009  22996363.39706  22996366.32606
  20782588.00506   -284782.45706   -221907.39409  20782456.39406  20782458.14306
 92  8 21  2  5  0.0000000  0  6 11 23 12 28 17 21
  22699501.17806  -6199139.93106  -4830494.63209  22699369.51706  22699372.64806
  22057927.51206   4168148.35406   3247907.17709  22057795.65406  22057797.66706
  24048311.57106  -3693188.36506  -2877801.02709  24048180.48806  24048185.17106
  21688223.37506   1384633.78206   1078934.77909  21688091.40806  21688093.28906
  23014419.95406   6239563.44806   4861995.01909  23014288.16506  23014291.09506
  20783447.61506   -280265.08806   -218387.35109  20783316.01006  20783317.78206
 92  8 21  2  5 30.0000000  0  6 11 23 12 28 17 21
  22686168.23506  -6269204.67906  -4885090.48809  22686036.54006  22686039.72706
  22069487.01706   4228894.59406   3295241.90809  22069355.28006  22069357.18306
  24041873.18906  -3727021.64906  -2904164.54109  24041742.11606  24041746.80506
  21696077.19606   1425905.31706   1111094.39609  21695945.29606  21695947.12106
  23032398.28506   6334040.40306   4935613.39709  23032266.60006  23032269.54706
  20784343.73506   -275556.49306   -214718.29909  20784212.00706  20784213.80006
 92  8 21  2  6  0.0000000  0  6 11 23 12 28 17 21
  22672920.99806  -6338818.77706  -4939335.18709  22672789.40906  22672792.53306
  22081068.29806   4289754.40106   3342665.13109  22080936.59806  22080938.49606
  24035531.75506  -3760346.55306  -2930131.91609  24035400.61506  24035405.14506
  21704039.50606   1467746.63206   1143697.99909  21703907.54306  21703909.30506
  23050429.48106   6428795.66506   5009448.65109  23050297.79206  23050300.80906
  20785273.99306   -270667.09006   -210908.36009  20785142.39706  20785144.19906
 92  8 21  2  6 30.0000000  0  7 11 23 12 28 17 25 21
  22659763.20306  -6407963.22306  -4993213.92409  22659631.63006  22659634.70806
  22092676.08506   4350753.39006   3390196.80509  22092544.26306  22092546.17206
  24029290.37106  -3793144.48106  -2955688.65509  24029159.31306  24029163.87506
  21712116.73106   1510191.54306   1176771.94009  21711984.70906  21711986.56206
  23068513.70706   6523828.65306   5083500.31309  23068382.02306  23068384.97606
  26090981.22416        -0.24616        -0.47719  26090849.72016  26090858.86216
  20786243.92606   -265570.21806   -206936.75409  20786112.30906  20786114.07306
 92  8 21  2  7  0.0000000  0  7 11 23 12 28 17 25 21
  22646696.43406  -6476629.56906  -5046720.11609  22646564.82106  22646567.87506
  22104312.88206   4411905.25706   3437847.60109  22104181.08206  22104183.00306
  24023150.81506  -3825407.40306  -2980828.51709  24023019.86106  24023024.29106
  21720311.07706   1553254.24306   1210327.27209  21720179.09106  21720181.04906
  23086650.07306   6619135.96106   5157765.74109  23086518.42906  23086521.37106
  26075440.51406    -81666.33506    -63636.00209  26075308.95406  26075317.83006
  20787256.35806   -260249.81906   -202790.97209  20787124.70406  20787126.49006
 92  8 21  2  7 30.0000000  0  7 11 23 12 28 17 25 21
  22633720.17606  -6544820.46906  -5099855.83109  22633588.55106  22633591.52206
  22115978.27806   4473207.91306   3485615.91009  22115846.57906  22115848.53506
  24017112.47606  -3857138.55406  -3005554.00009  24016981.47006  24016985.96406
  21728621.72206   1596927.32906   1244358.22109  21728489.69106  21728491.67006
  23104835.83906   6714702.32506   5232233.03009  23104704.03506  23104707.05706
  26059860.93206   -163534.63806   -127429.01809  26059729.40006  26059738.02606
  20788314.07106   -254691.21306   -198459.57709  20788182.47106  20788184.23206
 92  8 21  2  8  0.0000000  0  7 11 23 12 28 17 25 21
  22620833.50606  -6612541.12806  -5152625.12409  22620701.74006  22620704.66306
  22127668.04506   4534637.94406   3533483.45709  22127536.32106  22127538.31106
  24011174.31906  -3888343.47006  -3029869.43509  24011043.35206  24011047.83906
  21737047.45406   1641205.09906   1278860.35809  21736915.55806  21736917.41406
  23123068.17506   6810514.39406   5306891.77109  23122936.49106  23122939.53206
  26044237.58906   -245633.13706   -191401.48509  26044106.40506  26044115.09006
  20789419.01106   -248885.08106   -193935.30409  20789287.33506  20789289.12306
 92  8 21  2  8 30.0000000  0  7 11 23 12 28 17 25 21
  22608037.55606  -6679784.08206  -5205022.18109  22607905.78006  22607908.74506
  22139380.18706   4596185.80306   3581442.81509  22139248.47006  22139250.46606
  24005337.59906  -3919015.37106  -3053769.53909  24005206.53906  24005210.94506
  21745588.07806   1686085.18506   1313831.84009  21745456.06506  21745457.85706
  23141347.24306   6906571.35106   5381741.33709  23141215.45106  23141218.50006
  26028569.25406   -327971.67906   -255560.98109  26028437.39506  26028446.26006
  20790573.67506   -242817.15206   -189207.03609  20790442.03806  20790443.81806
 92  8 21  2  9  0.0000000  0  7 11 23 12 28 17 25 21
  22595333.79906  -6746542.32306  -5257041.54409  22595202.07506  22595204.98106
  22151116.14206   4657858.74306   3629499.64909  22150984.48706  22150986.44006
  23999603.62906  -3949147.70906  -3077249.20109  23999472.61706  23999477.06106
  21754240.91806   1731557.19306   1349264.55909  21754109.01606  21754110.85706
  23159675.08506   7002883.74106   5456789.93809  23159543.33506  23159546.36806
  26012854.05606   -410552.23406   -319909.10209  26012722.78306  26012731.57606
  20791778.07806   -236487.39206   -184274.74109  20791646.49806  20791648.27106
 92  8 21  2  9 30.0000000  0  6 11 23 12 28 17 21
  22582719.30406  -6812831.20206  -5308695.17309  22582587.64006  22582590.53406
  22162872.00606   4719635.40306   3677637.29709  22162740.21706  22162742.18106
  23993969.16806  -3978756.36106  -3100320.80909  23993838.25506  23993842.54506
  21763000.42906   1777588.26806   1385132.91009  21762868.46506  21762870.35506
  23178047.25606   7099430.05606   5532020.81909  23177915.47906  23177918.43206
  20793026.51806   -229927.57206   -179163.17909  20792894.82706  20792896.52006
 92  8 21  2 10  0.0000000  0  6 11 23 12 28 17 21
  22570195.84106  -6878642.40006  -5359976.58809  22570064.08306  22570067.07506
  22174647.89206   4781517.67706   3725857.24009  22174516.06406  22174518.06306
  23988435.93606  -4007833.44006  -3122978.20909  23988304.93606  23988309.34006
  21771862.62806   1824159.20406   1421421.93209  21771730.62006  21771732.51706
  23196465.30606   7196219.03706   5607440.79209  23196333.66506  23196336.60206
  20794317.60306   -223141.98106   -173875.69109  20794186.04906  20794187.79006
 92  8 21  2 11  0.0000000  0  7 11 23 12 28 17 25 21
  22545410.96416        -0.02016        -0.48819  22545279.30316  22545282.40216
  22198246.21116        -0.45416         0.43719  22198114.50316  22198116.45116
  23977662.27716        -0.62316        -0.01219  23977530.97116  23977535.42316
  21789877.85916        -0.18216        -0.42619  21789745.87116  21789747.74916
  23233432.14316        -0.53816        -0.12119  23233300.22116  23233303.32516
  25949554.92816        -0.46716        -0.04719  25949423.55916  25949432.16916
  20797010.32116         0.05416        -0.30519  20796878.71116  20796880.46116
 92  8 21  2 11 30.0000000  0  7 11 23 12 28 17 25 21
  22533146.00706    -64452.80606    -50223.41209  22533014.38906  22533017.42606
  22210059.28506     62077.09506     48372.56109  22209927.47706  22209929.47006
  23972417.47606    -27561.24606    -21475.75009  23972286.28706  23972290.69006
  21799024.81406     48068.23806     37455.48209  21798892.86806  21798894.81606
  23251974.30606     97439.70006     75927.32609  23251842.63306  23251845.63006
  25933626.45506    -83703.18806    -65222.63209  25933495.11706  25933503.77706
  20798405.06906      7329.39806      5710.89509  20798273.41906  20798275.16006
 92  8 21  2 12  0.0000000  0  7 11 23 12 28 17 25 21
  22520966.07306   -128459.18406   -100098.48809  22520834.43106  22520837.35906
  22221879.36706    124192.81906     96774.44009  22221747.63106  22221749.61406
  23967267.75106    -54623.83506    -42563.40409  23967136.46206  23967140.85506
  21808267.16706     96636.39206     75300.79009  21808135.19806  21808137.15906
  23270555.86106    195086.05806    152015.39109  23270424.03706  23270427.08406
  25917656.35406   -167625.87606   -130616.59209  25917524.96406  25917533.39406
  20799831.95706     14827.77206     11553.80709  20799700.33706  20799702.08206
 92  8 21  2 12 30.0000000  0  7 11 23 12 28 17 25 21
  22508873.90906   -192005.61006   -149615.16609  22508741.98806  22508744.90206
  22233709.71506    186361.15206    145217.31209  22233577.93206  22233579.86206
  23962214.98806    -81175.33006    -63252.81409  23962083.78306  23962088.19906
  21817610.15806    145733.32106    113558.12909  21817478.20306  21817480.15606
  23289177.18606    292941.74906    228266.55009  23289045.37506  23289048.45606
  25901646.38406   -251758.55706   -196174.19709  25901514.75906  25901523.01806
  20801294.50706     22513.61806     17542.79409  20801162.86606  20801164.59006
 92  8 21  2 13  0.0000000  0  7 11 23 12 28 17 25 21
  22496874.14406   -255064.85706   -198752.22609  22496742.17706  22496745.03906
  22245556.69506    248618.02006    193729.17009  22245424.95906  22245426.90006
  23957264.48806   -107189.51906    -83523.54609  23957133.45606  23957137.69306
  21827057.51106    195379.37006    152243.35609  21826925.50906  21826927.37206
  23307840.70206    391018.48206    304689.95609  23307708.81006  23307711.82506
  25885596.31306   -336101.44106   -261895.59909  25885464.67306  25885472.70806
  20802797.69506     30413.25806     23698.37609  20802666.12006  20802667.84906
 92  8 21  2 13 30.0000000  0  7 11 23 12 28 17 25 21
  22484969.77606   -317621.33706   -247497.52509  22484837.96406  22484840.97106
  22257427.29806    310997.99306    242336.95509  22257295.59206  22257297.49006
  23952419.09506   -132651.36306   -103363.88709  23952288.16806  23952292.32806
  21836611.55106    245587.93506    191366.91009  21836479.66706  21836481.40606
  23326549.15906    489332.39306    381298.17609  23326417.29806  23326420.36706
  25869507.62906   -420648.19006   -327775.83809  25869375.87406  25869383.70906
  20804344.60106     38541.87406     30032.37609  20804212.89206  20804214.60606
 92  8 21  2 14  0.0000000  0  7 11 23 12 28 17 25 21
  22473165.28506   -379653.09606   -295833.95509  22473033.66006  22473036.65706
  22269328.58406    373539.08906    291070.28609  22269196.76506  22269198.64106
  23947682.99706   -157539.36306   -122757.07609  23947552.09806  23947556.34506
  21846277.33806    296381.75906    230946.51009  21846145.39406  21846147.25506
  23345307.78806    587908.89106    458111.00209  23345175.94806  23345178.93706
  25853382.26106   -505384.46406   -393803.76109  25853250.82306  25853258.65106
  20805938.85306     46920.30006     36561.03109  20805807.26106  20805808.96606
 92  8 21  2 14 30.0000000  0  7 11 23 12 28 17 25 21
  22461462.79406   -441149.33506   -343753.10209  22461331.26806  22461334.27406
  22281262.23106    436251.21006    339936.88009  22281130.43806  22281132.32806
  23943058.21006   -181843.43206   -141695.25709  23942927.19706  23942931.35306
  21856051.42506    347744.82406    270969.67109  21855919.55606  21855921.47406
  23364116.50506    686749.62406    535129.73709  23363984.65606  23363987.70106
  25837222.12306   -590305.71106   -459975.80809  25837090.71806  25837098.54706
  20807582.00506     55554.55906     43289.03509  20807450.33006  20807452.04106
 92  8 21  2 15  0.0000000  0  7 11 23 12 28 17 25 21
  22449861.79606   -502112.62606   -391256.96109  22449730.27606  22449733.35206
  22293227.23206    499127.33206    388931.27109  22293095.32906  22293097.30206
  23938543.57906   -205566.69006   -160180.85209  23938412.66706  23938416.91406
  21865932.20606    399667.35306    311428.77109  21865800.20706  21865802.15706
  23382975.21906    785852.43506    612352.68709  23382843.22106  23382846.38506
  25821026.27606   -675412.49106   -526292.41609  25820895.06306  25820902.93406
  20809270.14206     64426.39706     50202.16509  20809138.52906  20809140.22306
 92  8 21  2 15 30.0000000  0  7 11 23 12 28 17 25 21
  22438359.73306   -562556.87406   -438356.36909  22438228.18306  22438231.17406
  22305218.04106    562140.43106    438032.39509  22305086.27106  22305088.20606
  23934137.00706   -228723.82806   -178225.31409  23934006.01806  23934010.20706
  21875917.91906    452142.91706    352318.80809  21875785.98006  21875787.93406
  23401880.37206    885199.76406    689766.16609  23401748.39406  23401751.50306
  25804796.51506   -760698.03106   -592748.29209  25804665.10906  25804673.26306
  20811000.01406     73516.61906     57285.46409  20810868.35806  20810870.03206
 92  8 21  2 16  0.0000000  0  7 11 23 12 28 17 25 21
  22426954.35806   -622492.89506   -485059.75109  22426822.77206  22426825.76606
  22317230.50806    625266.45506    487221.51009  22317098.82306  22317100.73506
  23929835.91506   -251326.19506   -195837.49209  23929704.95806  23929709.00606
  21886005.56006    505154.55506    393626.56509  21885873.56106  21885875.52706
  23420828.03306    984770.44906    767353.67409  23420696.16606  23420699.25206
  25788531.24406   -846170.08306   -659349.51209  25788400.06906  25788407.88106
  20812768.40406     82809.48906     64526.67309  20812636.70706  20812638.39806
 92  8 21  2 16 30.0000000  0  7 11 23 12 28 17 25 21
  22415644.32906   -681928.25406   -531373.00309  22415512.65106  22415515.60906
  22329261.85406    688491.27306    536487.60909  22329130.04906  22329131.92906
  23925638.95406   -273382.40906   -213024.08909  23925507.83906  23925511.83706
  21896193.34006    558691.05606    435343.30909  21896061.31906  21896063.32406
  23439815.84206   1084552.43506    845105.84409  23439684.04406  23439687.20906
  25772230.71206   -931830.27006   -726097.33609  25772099.30406  25772107.00706
  20814574.20806     92299.29906     71921.34409  20814442.58506  20814444.26706
 92  8 21  2 17  0.0000000  0  7 11 23 12 28 17 25 21
  22404428.39006   -740869.44106   -577301.17909  22404296.57006  22404299.52806
  22341308.62906    751796.88706    585816.66409  22341176.76006  22341178.72606
  23921544.42406   -294899.28206   -229790.42409  23921413.21206  23921417.28906
  21906482.82606    612762.20506    477476.66009  21906350.87606  21906352.85806
  23458842.91106   1184540.68706    923018.74809  23458711.26906  23458714.34206
  25755894.47706  -1017679.13806   -792992.15909  25755762.78906  25755770.05906
  20816418.05006    101988.90206     79471.69709  20816286.41706  20816288.09406
 92  8 21  2 17 30.0000000  0  7 11 23 12 28 17 25 21
  22393305.19306   -799322.38906   -622848.90309  22393173.33706  22393176.32306
  22353368.17606    815170.49606    635198.70009  22353236.27106  22353238.20006
  23917551.03806   -315883.51806   -246141.71609  23917419.90606  23917424.01106
  21916870.14706    667347.10206    520010.33009  21916738.15706  21916740.11606
  23477909.18006   1284733.96106   1001091.39809  23477777.38706  23477780.43206
  25739517.98706  -1103737.42506   -860050.13709  25739386.29406  25739393.22606
  20818300.04606    111878.85506     87178.16409  20818168.38806  20818170.09906
 92  8 21  2 19  0.0000000  0  7 11 23 12 28 17 25 21
  22360485.34416        -0.34616         0.28519  22360353.68216  22360356.72316
  22389604.02616        -0.18416        -0.14019  22389472.24216  22389474.18116
  23906170.97216         0.32816         0.30419  23906039.75116  23906043.89216
  21948588.71116        -0.13816        -0.35919  21948456.75916  21948458.73716
  23535341.82516         0.02516        -0.32719  23535210.06316  23535213.12516
  25690114.51816        -0.00316        -0.28019  25689983.19016  25689989.87916
  20824168.64416         0.31716        -0.36619  20824037.08216  20824038.74916
 92  8 21  2 19 30.0000000  0  7 11 23 12 28 17 25 21
  22349738.21506    -56475.46406    -44006.25509  22349606.78106  22349609.77506
  22401704.68506     63589.81606     49550.50909  22401572.97706  22401574.87106
  23902586.33006    -18835.98206    -14677.27709  23902455.23706  23902459.41306
  21959353.45906     56569.03606     44079.50109  21959221.52006  21959223.52806
  23554569.10206    101039.39306     78731.62509  23554437.24706  23554440.42706
  25673562.97706    -86977.40306    -67774.43809  25673431.47006  25673438.37806
  20826206.41106     10707.79606      8343.14009  20826074.67006  20826076.38906
 92  8 21  2 20  0.0000000  0  7 11 23 12 28 17 25 21
  22339091.53406   -112424.83906    -87603.12209  22338959.93506  22338962.90406
  22413818.38106    127247.20506     99153.67209  22413686.53306  22413688.46206
  23899109.63206    -37106.08006    -28913.65509  23898978.58206  23898982.58406
  21970217.71306    113659.78606     88565.78309  21970085.77706  21970087.63506
  23573839.57506    202306.50306    157641.04209  23573707.86906  23573710.93006
  25656977.59906   -174130.33606   -135685.38609  25656846.35706  25656853.30306
  20828285.82706     21635.99306     16858.63309  20828154.21206  20828155.87506
 92  8 21  2 20 30.0000000  0  7 11 23 12 28 17 25 21
  22328544.49506   -167850.05506   -130791.55009  22328412.90006  22328415.80106
  22425944.64306    190970.43306    148808.13709  22425812.74806  22425814.63406
  23895740.20206    -54812.34106    -42710.67209  23895609.09506  23895613.16906
  21981180.74506    171270.75706    133457.43309  21981048.70106  21981050.57506
  23593151.32706    303790.05506    236719.11709  23593019.49806  23593022.71006
  25640363.60006   -261435.85006   -203715.24609  25640232.39506  25640239.16406
  20830406.07006     32778.04006     25540.76109  20830274.44906  20830276.11606
 92  8 21  2 21  0.0000000  0  7 11 23 12 28 17 25 21
  22318095.64106   -222759.05706   -173577.73409  22317964.03706  22317966.87506
  22438083.93806    254763.66106    198517.14609  22437952.22206  22437954.12706
  23892476.41806    -71963.12406    -56074.84909  23892345.37906  23892349.35506
  21992239.50606    229385.63506    178741.73509  21992107.55706  21992109.46606
  23612502.81506    405483.51706    315960.74909  23612371.16206  23612374.30006
  25623717.68406   -348910.45106   -271876.90009  25623586.21206  25623593.07706
  20832564.28606     44119.44206     34378.23009  20832432.68906  20832434.34006
 92  8 21  2 21 30.0000000  0  7 11 23 12 28 17 25 21
  22307740.16306   -277177.79206   -215981.89309  22307608.45806  22307611.33606
  22450232.55906    318605.54006    248264.06009  22450100.94406  22450102.83306
  23889313.23106    -88585.42906    -69027.22709  23889182.24106  23889186.18406
  22003385.43606    287958.43906    224382.85809  22003253.45006  22003255.44406
  23631889.45506    507361.15706    395345.89209  23631757.88306  23631760.95206
  25607036.15206   -436571.57106   -340183.91409  25606904.56706  25606911.28006
  20834750.36506     55607.69106     43330.12509  20834618.75806  20834620.42506
 92  8 21  2 22  0.0000000  0  7 11 23 12 28 17 25 21
  22297472.91606   -331132.85806   -258024.75109  22297341.13006  22297343.96706
  22462388.32806    382484.35406    298039.75709  22462256.66306  22462258.53906
  23886245.61706   -104706.52706    -81589.05809  23886114.49506  23886118.48906
  22014612.74306    346957.43206    270356.07309  22014480.75306  22014482.76106
  23651303.93606    609384.56006    474844.63409  23651172.25906  23651175.45306
  25590313.61406   -524449.09006   -408659.53609  25590181.89706  25590188.32106
  20836957.27406     67205.05306     52367.04509  20836825.63206  20836827.30106
 92  8 21  2 22 30.0000000  0  7 11 23 12 28 17 25 21
  22287286.83406   -384660.92406   -299734.88709  22287155.06506  22287157.85706
  22474543.41406    446359.32906    347812.46309  22474411.63406  22474413.59306
  23883265.98506   -120364.03106    -93789.64409  23883134.84706  23883138.79006
  22025912.53606    406338.21706    316626.78609  22025780.58806  22025782.66006
  23670735.12906    711496.45806    554412.32809  23670603.48506  23670606.69106
  25573537.01506   -612609.49406   -477355.59209  25573405.32906  25573411.58406
  20839177.80806     78873.97306     61459.72209  20839046.15306  20839047.84806
 92  8 21  2 23  0.0000000  0  7 11 23 12 28 25 17 21
  22277178.00206   -437783.05306   -341128.71209  22277046.21406  22277049.01606
  22486691.08006    510195.66806    397555.05909  22486559.32206  22486561.24506
  23880370.41306   -135579.94706   -105646.14509  23880239.23906  23880243.31506
  22037280.12406    466075.35906    363175.17909  22037148.16306  22037150.18906
  25556698.92706   -701092.24206   -546302.82409  25556567.31106  25556573.40806
  23690177.31706    813664.65606    634023.89409  23690045.61506  23690048.63606
  20841408.06206     90593.72906     70592.01009  20841276.38806  20841278.05106
 92  8 21  2 23 30.0000000  0  7 11 23 12 28 25 17 21
  22267144.85106   -490506.51306   -382211.88909  22267013.21306  22267016.08606
  22498827.80406    573974.66506    447252.97309  22498696.03506  22498698.01106
  23877557.32206   -150362.18506   -117164.71109  23877426.30306  23877430.21206
  22048712.60806    526152.85206    409988.77809  22048580.60206  22048582.56006
  25539800.48706   -789893.35306   -615498.13809  25539668.89406  25539674.95806
  23709627.59806    915877.43506    713670.19009  23709495.96706  23709499.09106
  20843647.22206    102361.12006     79761.41509  20843515.59006  20843517.25306
 92  8 21  2 24  0.0000000  0  7 11 23 12 28 25 17 21
  22257189.20606   -542823.80206   -422978.57409  22257057.51206  22257060.35106
  22510952.04906    637688.00006    496899.72209  22510820.25306  22510822.25306
  23874828.18406   -164704.08006   -128340.15909  23874697.06106  23874701.00406
  22060213.03506    586587.81706    457080.92809  22060081.08306  22060083.00606
  25522841.75206   -879009.73806   -684939.13509  25522710.22906  25522716.23706
  23729088.16506   1018142.47006    793357.20609  23728956.46806  23728959.54006
  20845900.57006    114202.41806     88988.40909  20845768.93106  20845770.57206
 92  8 21  2 24 30.0000000  0  7 11 23 12 28 25 17 21
  22247319.01106   -594691.63006   -463395.03209  22247187.35706  22247190.20506
  22523069.72206    701367.77906    546520.32209  22522938.09106  22522940.09006
  23872190.78706   -178563.19506   -139139.41209  23872059.75006  23872063.65806
  22071787.33806    647411.00406    504475.59109  22071655.31806  22071657.33806
  25505831.02906   -968402.43906   -754595.44709  25505699.14306  25505705.04306
  23748568.88606   1120515.14006    873128.09809  23748437.29806  23748440.41506
  20848175.83406    126159.07606     98305.29309  20848044.21706  20848045.86506
 92  8 21  2 25  0.0000000  0  7 11 23 12 28 25 17 21
  22237544.90906   -646054.36806   -503417.91609  22237413.32506  22237416.18506
  22535193.97306    765080.53606    596166.62209  22535062.29306  22535064.22306
  23869655.93506   -191885.05506   -149520.02709  23869524.66706  23869528.53606
  22083444.62906    708671.28506    552210.84309  22083312.69006  22083314.74006
  25488779.92306  -1058003.06806   -824413.78109  25488648.50206  25488654.22906
  23768082.80406   1223060.35206    953033.44209  23767951.01506  23767954.09306
  20850481.91706    138277.82706    107748.48309  20850350.29006  20850351.92406
 92  8 21  2 25 30.0000000  0  7 11 23 12 28 25 17 21
  22227876.42206   -696862.81606   -543008.89209  22227744.77806  22227747.64706
  22547335.36206    828883.48706    645883.20509  22547203.60206  22547205.55106
  23867232.29306   -204620.99806   -159444.08609  23867101.05006  23867104.88906
  22095194.37506    770417.54906    600324.78009  22095062.47106  22095064.60706
  25471700.19706  -1147756.13506   -894350.90109  25471568.67206  25471574.47106
  23787637.74306   1325821.83706   1033107.31409  23787505.94506  23787508.98706
  20852827.02206    150601.68706    117351.49909  20852695.42806  20852697.06406
 92  8 21  2 26 30.0000000  4  1
 -2240354.0000 -4717758.0000  3651637.0000                  APPROX POSITION XYZ
 92  8 21  2 26  0.0000000  0  7 11 23 12 28 25 17 21
  22218319.64306   -747084.73706   -582142.83209  22218187.94406  22218190.68806
  22559501.79706    892818.41806    695702.62709  22559370.05606  22559372.02106
  23864926.21706   -216739.69206   -168887.16809  23864794.82406  23864798.72106
  22107042.92006    832681.82006    648842.35709  22106910.99506  22106913.02306
  25454596.54806  -1237634.74906   -964385.87909  25454465.12806  25454470.98806
  23807238.97506   1428827.16206   1113371.18709  23807107.07306  23807110.24406
  20855218.08006    163166.28306    127142.10209  20855086.40606  20855088.07706
 92  8 21  2 26 30.0000000  0  7 11 23 12 28 25 17 21
  22208874.74506   -796717.91506   -620818.01309  22208743.07606  22208745.80006
  22571696.01806    956899.17606    745635.68109  22571564.21806  22571566.18406
  23862737.68006   -228239.98106   -177848.38609  23862606.38406  23862610.14506
  22118989.81906    895462.72206    697762.50709  22118857.88806  22118859.85606
  25437469.84006  -1327634.39206  -1034515.17509  25437338.53606  25437344.27306
  23826884.25706   1532063.10206   1193814.75209  23826752.31706  23826755.42806
  20857654.97406    175972.50906    137120.98609  20857523.34606  20857524.98106
 92  8 21  2 27  0.0000000  0  7 11 23 12 28 25 17 21
  22199542.46806   -845759.01806   -659031.83609  22199410.78706  22199413.56506
  22583917.60206   1021123.80806    795680.84909  22583785.68506  22583787.61406
  23860667.30206   -239119.27506   -186325.70709  23860536.10706  23860539.92106
  22131038.07906    958775.20806    747096.88509  22130906.09206  22130908.00306
  25420323.34506  -1417742.14906  -1104728.71609  25420191.61006  25420197.13606
  23846568.58806   1635506.19406   1274419.73109  23846436.90006  23846439.98106
  20860140.41906    189034.04106    147298.81009  20860008.81406  20860010.47206
 92  8 21  2 27 30.0000000  0  7 11 23 12 25 28 17 21
  22190319.95106   -894222.58406   -696795.63109  22190188.34606  22190191.21206
  22596161.06206   1085464.40606    845816.38309  22596029.26906  22596031.20206
  23858712.29006   -249393.25006   -194331.35409  23858580.96906  23858584.79506
  25403151.35106  -1507980.58106  -1175044.08209  25403019.46506  25403024.90506
  22143182.68206   1022595.62306    796827.05509  22143050.70506  22143052.67906
  23866289.55506   1739140.29406   1355173.56109  23866157.90706  23866160.90606
  20862672.60806    202340.81006    157667.72909  20862541.04106  20862542.70706
 92  8 21  2 28  0.0000000  0  7 11 23 12 25 28 17 21
  22181203.99206   -942126.81006   -734123.57509  22181072.45506  22181075.33006
  22608423.13006   1149901.76806    896027.32409  22608291.34406  22608293.24306
  23856868.43806   -259080.83806   -201880.06809  23856737.32706  23856741.14606
  25385950.69906  -1598369.34406  -1245476.60509  25385818.86706  25385824.37606
  22155417.39906   1086890.61206    846927.02509  22155285.47906  22155287.58006
  23886044.17706   1842949.92906   1436064.16909  23885912.24006  23885915.35706
  20865247.36206    215870.83006    168210.61309  20865115.72106  20865117.35106
 92  8 21  2 28 30.0000000  0  7 11 23 12 25 28 17 21
  22172187.27606   -989510.70106   -771046.05809  22172055.65306  22172058.45106
  22620691.58006   1214373.24706    946264.85309  22620559.88406  22620561.80906
  23855128.97506   -268222.15106   -209003.11609  23854997.82806  23855001.58606
  25368713.19406  -1688950.50506  -1316059.08009  25368581.62706  25368587.01306
  22167732.91706   1151608.58006    897356.58509  22167600.93306  22167603.09806
  23905822.27106   1946885.80006   1517053.14109  23905690.51106  23905693.73406
  20867853.77306    229567.51906    178883.37309  20867722.11706  20867723.75606
 92  8 21  2 29  0.0000000  0  7 11 23 12 25 28 17 21
  22163264.82906  -1036398.72306   -807582.15409  22163133.19306  22163135.95806
  22632957.43006   1278830.33906    996491.16309  22632825.69306  22632827.56306
  23853488.59206   -276842.37106   -215720.12609  23853357.40106  23853361.20106
  25351434.76306  -1779745.88506  -1386808.48009  25351303.47106  25351308.95306
  22180119.49606   1216700.21906    948077.31109  22179987.54706  22179989.75206
  23925622.19406   2050935.55306   1598130.85109  23925490.54806  23925493.73306
  20870485.68706    243398.36906    189660.66809  20870354.04006  20870355.71406
 92  8 21  2 29 30.0000000  0  7 11 23 12 25 28 17 21
  22154435.57106  -1082796.89106   -843736.54709  22154303.88406  22154306.65206
  22645219.07806   1343265.58006   1046700.45109  22645087.23306  22645089.18806
  23851945.95206   -284948.57506   -222036.60709  23851814.80406  23851818.67106
  25334114.03106  -1870765.16006  -1457732.34109  25333982.75906  25333988.20606
  22192570.92906   1282132.49306    999063.46909  22192438.99706  22192441.10206
  23945444.47206   2155101.15406   1679298.80709  23945312.71906  23945315.89706
  20873138.82506    257340.96006    200525.03409  20873007.19206  20873008.83106
 92  8 21  2 31  0.0000000  0  7 11 23 12 25 28 17 21
  22128516.78416        -0.49416        -0.13119  22128385.01616  22128387.59116
  22681979.58316         0.23916         0.08719  22681847.90516  22681849.84916
  23847913.01016        -0.04916        -0.05619  23847781.82116  23847785.45016
  25281920.21916        -0.03516        -0.45419  25281788.82116  25281793.76116
  22230331.15916         0.33216        -0.37519  22230199.16116  22230201.21416
  24005035.99516        -0.15916        -0.07919  24004904.28716  24004907.54216
  20881240.01216        -0.62416        -0.83119  20881108.40116  20881110.01416
 92  8 21  2 31 30.0000000  0  7 11 23 12 25 28 17 21
  22120079.15806    -44339.11006    -34549.68509  22119947.50706  22119950.23006
  22694246.69606     64463.71706     50231.36209  22694114.93206  22694116.78206
  23846778.80606     -5959.67806     -4643.88009  23846647.70606  23846651.30706
  25264456.01106    -91776.09406    -71514.07309  25264324.36406  25264329.23206
  22243071.33306     66951.62806     52169.42909  22242939.43906  22242941.46506
  24024956.85906    104685.11106     81572.81209  24024825.19306  24024828.60706
  20883999.88806     14502.30506     11300.15109  20883868.24106  20883869.80106
 92  8 21  2 32  0.0000000  0  7 11 23 12 25 28 17 21
  22111745.99506    -88128.65506    -68671.38709  22111614.50106  22111617.32606
  22706527.17906    128998.43806    100518.15409  22706395.45706  22706397.30206
  23845752.94006    -11351.00406     -8844.85609  23845621.71606  23845625.35106
  25246959.25206   -183719.83906   -143158.32709  25246827.65006  25246832.75806
  22255893.72006    134332.36106    104673.86609  22255761.78006  22255763.85706
  24044910.49506    209542.21606    163279.59909  24044778.87906  24044782.11706
  20886793.41806     29182.48406     22739.26209  20886661.86006  20886663.46406
 92  8 21  2 32 30.0000000  0  7 11 23 12 25 28 17 21
  22103520.80606   -131353.21106   -102352.83709  22103389.23906  22103391.95806
  22718826.57706    193631.54406    150881.60909  22718694.73106  22718696.63406
  23844838.07506    -16159.08706    -12591.35609  23844706.61806  23844710.30006
  25229433.47006   -275817.55306   -214922.55009  25229301.93206  25229306.91306
  22268798.28606    202146.39206    157515.94009  22268666.33306  22268668.43606
  24064900.18006    314589.10106    245134.27009  24064768.59006  24064772.02506
  20889620.29806     44037.79406     34314.84309  20889488.69206  20889490.28506
 92  8 21  2 33  0.0000000  0  7 11 23 12 25 28 17 21
  22095406.47706   -173995.46606   -135580.54309  22095274.76406  22095277.38406
  22731147.61606    258379.35306    201334.44409  22731015.81506  22731017.75906
  23844037.16306    -20367.62806    -15870.68109  23843905.80406  23843909.44706
  25211882.97406   -368045.26106   -286788.07809  25211751.41406  25211756.31906
  22281788.05006    270407.84306    210706.65109  22281656.11606  22281658.21906
  24084927.83506    419833.98406    327143.21309  24084796.08706  24084799.46606
  20892484.09106     59087.68806     46042.04709  20892352.46306  20892354.07506
 92  8 21  2 33 30.0000000  0  7 11 23 25 12 28 17 21
  22087405.91306   -216038.97606   -168341.69309  22087274.15706  22087276.75306
  22743488.76406    323233.06406    251869.80409  22743357.02206  22743358.98906
  25194311.47406   -460383.58106   -358739.81209  25194179.99206  25194184.56406
  23843353.19506    -23961.02006    -18670.67209  23843221.90006  23843225.59406
  22294866.48106    339135.48806    264260.63209  22294734.49606  22294736.63306
  24104991.82406    525270.74506    409301.68709  24104860.04106  24104863.39606
  20895390.21106     74359.63906     57942.28509  20895258.60206  20895260.23906
 92  8 21  2 34  0.0000000  0  7 11 23 25 12 28 17 21
  22079517.06506   -257494.36006   -200644.56709  22079385.33906  22079388.08406
  22755845.17706    388166.64506    302467.39709  22755713.47106  22755715.42206
  25176718.06206   -552836.08406   -430780.54009  25176586.60606  25176591.19406
  23842784.07006    -26951.11806    -21000.56009  23842652.88606  23842656.50806
  22308032.64906    408324.03006    318173.75409  22307900.67306  22307902.81906
  24125084.27106    630855.88706    491575.78409  24124952.29206  24124955.83206
  20898334.63906     89832.69106     69999.23009  20898202.98906  20898204.62906
 92  8 21  2 34 30.0000000  0  7 11 23 25 12 28 17 21
  22071737.55906   -298374.43206   -232499.15209  22071605.99106  22071608.84506
  22768212.58406    453156.59806    353108.91309  22768080.69306  22768082.66106
  25159102.20306   -645407.50106   -502913.91909  25158970.68806  25158975.19606
  23842327.33306    -29351.57706    -22870.98209  23842196.12406  23842199.69706
  22321285.62306    477968.73706    372442.32909  22321153.66906  22321155.80606
  24145202.69806    736580.13206    573958.27209  24145071.00606  24145074.47906
  20901314.34106    105490.88606     82200.44109  20901182.64506  20901184.25406
 92  8 21  2 35  0.0000000  0  7 11 23 25 12 28 17 21
  22064066.36206   -338688.12506   -263912.40409  22063934.64806  22063937.33506
  22780586.53406    518182.71306    403778.60709  22780454.78506  22780456.70106
  25141458.69306   -738125.00506   -575161.13809  25141326.92906  25141331.60306
  23841980.58406    -31172.53306    -24289.84209  23841849.51506  23841853.11506
  22334622.50306    548054.70506    427054.74209  22334490.53706  22334492.72406
  24165345.82406    842433.66806    656441.50809  24165214.18906  24165217.83206
  20904329.13406    121334.12706     94545.84609  20904197.56906  20904199.13006
 92  8 21  2 35 30.0000000  0  7 11 23 25 12 28 17 21
  22056502.45506   -378437.61706   -294886.01109  22056370.64606  22056373.21506
  22792966.98006    583243.04606    454474.96309  22792835.26506  22792837.21106
  25123786.57406   -830992.55306   -647525.27009  25123654.85906  25123659.49006
  23841743.77406    -32417.07906    -25259.55709  23841612.67406  23841616.19306
  22348038.80206    618557.68406    481992.09609  22347906.78606  22347909.00806
  24185512.16806    948409.95406    739020.37009  24185380.67906  24185384.42106
  20907377.79706    137354.36406    107029.17009  20907246.08006  20907247.71106
 92  8 21  2 36  0.0000000  0  7 11 23 25 12 28 17 21
  22049045.58606   -417623.11206   -325420.14109  22048913.78806  22048916.44506
  22805355.47806    648344.82806    505203.61909  22805223.69006  22805225.63506
  25106084.56406   -924015.45306   -720010.47009  25105952.95106  25105957.55406
  23841616.34506    -33086.40306    -25781.04309  23841485.24206  23841488.79906
  22361528.17306    689444.38106    537228.45209  22361396.19206  22361398.39706
  24205706.02206   1054526.50706    821708.54809  24205574.21706  24205577.61606
  20910458.46206    153544.23406    119644.68009  20910326.88906  20910328.44806
 92  8 21  2 36 30.0000000  0  7 11 23 25 12 28 17 21
  22041694.25706   -456253.40706   -355521.65409  22041562.55406  22041565.35206
  22817749.62306    713476.28306    555955.39709  22817617.90506  22817619.77506
  25088350.26406  -1017208.52806   -792628.26509  25088218.79406  25088223.41506
  23841596.47106    -33190.65006    -25862.21609  23841465.26806  23841468.91406
  22375081.93506    760670.13806    592729.01009  22374950.03106  22374952.15006
  24225927.26706   1160788.96106    904510.42209  24225795.32706  24225798.79706
  20913571.62606    169903.70206    132392.34409  20913439.94306  20913441.52806
 92  8 21  2 37  0.0000000  0  7 11 23 25 12 28 17 21
  22034443.08406   -494357.96106   -385213.50209  22034311.53006  22034314.33806
  22830144.53406    778612.19006    606710.64809  22830012.85206  22830014.75306
  25070579.91106  -1110592.07306   -865394.48109  25070448.33606  25070452.96806
  23841678.21706    -32760.04806    -25526.63109  23841547.29606  23841550.77906
  22388690.26306    832181.53306    648452.14909  22388558.36006  22388560.48006
  24246167.00106   1267149.13106    987388.42809  24246035.12406  24246038.47306
  20916711.10506    186402.07106    145248.24409  20916579.53306  20916581.07406
 92  8 21  2 37 30.0000000  0  7 11 23 25 12 28 17 21
  22027293.10506   -531932.96606   -414492.71409  22027161.36206  22027164.03006
  22842541.31306    843757.87806    657473.52109  22842409.60306  22842411.55206
  25052777.44706  -1204142.90506   -938291.03409  25052645.93106  25052650.48906
  23841862.48006    -31792.07506    -24772.31309  23841731.46706  23841734.91606
  22402352.85406    903978.94906    704398.16309  22402220.78506  22402222.97506
  24266425.05906   1373606.19706   1070341.94009  24266293.18306  24266296.57306
  20919875.49106    203030.86806    158205.77409  20919743.81106  20919745.36406
 92  8 21  2 38  0.0000000  0  7 11 23 25 12 28 17 21
  22020249.32406   -568948.53906   -443335.99809  22020117.52706  22020120.09006
  22854944.50606    908936.89606    708262.36809  22854812.72906  22854814.65606
  25034949.59306  -1297829.15206  -1011293.10509  25034818.08406  25034822.37906
  23842154.36106    -30257.81706    -23576.73609  23842023.33206  23842026.86206
  22416077.23006    976100.50906    760596.75309  22415945.23106  22415947.47806
  24286708.13006   1480195.38306   1153398.39609  24286576.54506  24286579.81706
  20923069.68506    219817.08506    171285.96809  20922938.11606  20922939.67106
 92  8 21  2 38 30.0000000  0  7 11 23 25 12 28 17 21
  22013317.88506   -605371.05306   -471717.15909  22013186.33206  22013189.10906
  22867359.17606    974176.71006    759098.59309  22867227.43506  22867229.35606
  25017103.17806  -1391611.22506  -1084369.88209  25016971.83206  25016976.05906
  23842560.28006    -28124.76806    -21914.57209  23842429.21006  23842432.66006
  22429870.82306   1048587.49206    817080.08109  22429738.89706  22429741.22606
  24307019.40206   1586931.26906   1236569.16209  24306887.61906  24306891.08306
  20926299.51906    236789.79606    184511.48109  20926167.89806  20926169.43106
 92  8 21  2 39  0.0000000  0  7 11 23 25 12 28 17 21
  22006500.12206   -641198.87006   -499634.92509  22006368.57706  22006371.32306
  22879785.45606   1039477.33606    809982.20609  22879653.74006  22879655.65206
  24999239.49706  -1485483.99106  -1157517.31309  24999108.11306  24999112.46806
  23843080.32906    -25392.35606    -19785.36309  23842949.14906  23842952.58506
  22443740.47406   1121473.31706    873874.18609  22443608.50106  22443610.91006
  24327355.46806   1693797.76406   1319841.69909  24327223.84006  24327227.08806
  20929563.08206    253939.66706    197875.03809  20929431.39606  20929432.92906
 92  8 21  2 39 30.0000000  0  7 11 23 25 12 28 17 21
  21999795.09106   -676435.60506   -527092.10709  21999663.39706  21999666.02906
  22892222.09606   1104831.75106    860907.73409  22892090.26106  22892092.23206
  24981356.21606  -1579461.03806  -1230746.00609  24981224.76806  24981229.04006
  23843713.38106    -22065.27306    -17192.78609  23843582.23506  23843585.59306
  22457688.96106   1194772.68506    930990.53009  22457557.03206  22457559.37806
  24347716.14006   1800794.61006   1403215.82109  24347584.41206  24347587.94006
  20932859.09906    271260.82906    211372.06609  20932727.52506  20932729.02706
 92  8 21  2 40  0.0000000  0  7 11 23 25 12 28 17 21
  21993200.31006   -711092.08506   -554097.13809  21993068.53206  21993071.07306
  22904665.85706   1170224.89606    911863.44509  22904534.14506  22904536.11706
  24963450.47106  -1673555.10206  -1304065.89309  24963319.24906  24963323.47206
  23844457.32406    -18155.32306    -14146.01809  23844326.27506  23844329.57506
  22471713.89906   1268472.76906    988419.12809  22471581.99906  22471584.18306
  24368098.40206   1907902.21206   1486676.23509  24367966.61306  24367969.89006
  20936184.62306    288736.75906    224989.69109  20936053.03806  20936054.59206
 92  8 21  2 40 30.0000000  0  7 11 25 23 12 28 17 21
  21986719.46206   -745147.75806   -580634.00509  21986587.82006  21986590.43106
  24945524.60806  -1767754.63806  -1377467.96709  24945393.32806  24945397.64106
  22917121.99006   1235682.03606    962869.02409  22916990.27006  22916992.17406
  23845315.86006    -13643.19406    -10630.03309  23845184.81706  23845188.30906
  22485818.07206   1342589.74106   1046172.58509  22485686.07706  22485688.07706
  24388502.02406   2015124.07506   1570225.69309  24388370.21906  24388373.52206
  20939542.28206    306381.15906    238738.58809  20939410.63406  20939412.14906
 92  8 21  2 41  0.0000000  0  7 11 25 23 12 28 17 21
  21980357.35606   -778579.33006   -606684.56509  21980225.84606  21980228.53606
  24927583.09006  -1862039.81506  -1450936.76009  24927451.43606  24927455.66506
  22929595.34906   1301230.43606   1013945.71609  22929463.73006  22929465.60806
  23846293.40306     -8506.60506     -6627.45709  23846162.30206  23846165.57806
  22500004.92706   1417143.10106   1104266.08909  22499872.95506  22499874.90906
  24408935.21406   2122500.86006   1653895.86609  24408803.46906  24408806.76106
  20942936.94006    324220.46306    252639.36009  20942805.33006  20942806.84206
 92  8 21  2 41 30.0000000  0  7 11 25 23 12 28 17 21
  21974114.31506   -811388.09106   -632249.81709  21973982.68606  21973985.20906
  24909622.94006  -1956421.36006  -1524480.66609  24909491.31506  24909495.33706
  22942085.59306   1366866.13506   1065090.43709  22941953.78906  22941955.67806
  23847389.05006     -2748.00606     -2140.20109  23847258.05306  23847261.38206
  22514267.43006   1492094.03706   1162669.38909  22514135.48506  22514137.60006
  24429400.00206   2230045.15606   1737696.55809  24429268.46406  24429271.91306
  20946370.67006    342264.99606    266700.04409  20946239.05906  20946240.56306
 92  8 21  2 42  0.0000000  0  7 11 23 25 12 28 17 21
  21967987.62106   -843584.90706   -657338.22309  21967855.91006  21967858.41806
  22954588.18706   1432567.06206   1116285.98309  22954456.22406  22954458.14906
  24891640.86206  -2050917.38306  -1598113.77709  24891509.18706  24891513.19306
  23848601.09206      3620.48806      2822.29709  23848469.90806  23848473.22306
  22528600.79406   1567415.76706   1221361.60909  22528468.81006  22528471.14106
  24449893.73206   2337739.73706   1821614.34909  24449762.04006  24449765.52606
  20949842.26806    360508.24806    280915.56809  20949710.64406  20949712.15106
 92  8 21  2 42 30.0000000  0  7 11 23 25 12 28 17 21
  21961982.58406   -875141.38706   -681927.66909  21961850.81306  21961853.46906
  22967107.66806   1498358.40206   1167551.98109  22966975.85906  22966977.76306
  24873641.70306  -2145502.37406  -1671816.21709  24873510.03206  24873514.01506
  23849934.33606     10626.27606      8281.38609  23849803.06806  23849806.30806
  22543008.71306   1643129.65806   1280359.39809  22542876.69506  22542879.13006
  24470421.93806   2445615.72806   1905673.51009  24470290.27906  24470293.64506
  20953360.32006    378995.41806    295321.16009  20953228.64606  20953230.17606
 92  8 21  2 43  0.0000000  0  7 11 23 25 12 28 17 21
  21956101.10706   -906047.48606   -706010.32709  21955969.48106  21955972.17606
  22979643.78206   1564235.89706   1218885.11209  22979511.96306  22979513.81706
  24855628.83706  -2240159.12106  -1745574.57009  24855497.29106  24855501.33206
  23851390.40606     18278.30006     14244.03709  23851259.13406  23851262.39606
  22557493.06106   1719244.53506   1339669.64509  22557361.07606  22557363.58006
  24490986.95106   2553687.89306   1989885.53709  24490855.53406  24490859.11806
  20956927.88506    397743.60606    309930.14109  20956796.28206  20956797.79606
 92  8 21  2 43 30.0000000  0  7 11 23 25 12 28 17 21
  21950344.71706   -936296.55406   -729581.01509  21950213.19806  21950215.92906
  22992196.49806   1630201.77706   1270287.10709  22992064.74406  22992066.71406
  24837605.77306  -2334869.81106  -1819374.97009  24837474.35706  24837478.26306
  23852970.39406     26582.06306     20714.53609  23852839.27706  23852842.50906
  22572054.18706   1795764.25506   1399295.35609  22571922.33506  22571924.72806
  24511586.25706   2661935.55806   2074234.29309  24511454.44906  24511458.03606
  20960543.63706    416744.53506    324736.06409  20960412.02306  20960413.58806
 92  8 21  2 44  0.0000000  0  7 11 23 25 12 28 17 21
  21944715.06206   -965881.50406   -752634.20809  21944583.44206  21944586.00906
  23004768.46306   1696268.04806   1321767.32409  23004636.78906  23004638.65606
  24819577.09206  -2429610.38806  -1893198.66509  24819445.69406  24819449.62706
  23854675.62006     35543.55006     27697.55209  23854544.55306  23854547.82006
  22586694.80206   1872700.83106   1459245.89609  22586562.83306  22586565.18806
  24532217.61606   2770352.79406   2158715.18309  24532085.81406  24532089.24506
  20964204.78106    435983.86706    339727.75209  20964073.14206  20964074.69506
 92  8 21  2 44 30.0000000  0  7 11 23 25 12 28 17 21
  21939205.34006   -994836.27706   -775196.35009  21939073.61206  21939076.11306
  23017356.37506   1762418.05406   1373312.78609  23017224.72206  23017226.58606
  24801540.60206  -2524392.08806  -1967054.39309  24801409.24306  24801413.18606
  23856499.41606     45127.61006     35165.68809  23856368.36806  23856371.68806
  22601407.49406   1950016.69106   1519491.99109  22601275.52906  22601277.74306
  24552875.50406   2878910.83306   2243305.80309  24552743.79406  24552747.32006
  20967903.78406    455422.61006    354874.82309  20967772.24306  20967773.77606
 92  8 21  2 45  0.0000000  0  7 11 23 25 12 28 17 21
  21933812.81906  -1023174.45506   -797278.03409  21933681.00606  21933683.62006
  23029960.91106   1828655.93606   1424926.72109  23029829.34506  23029831.16206
  24783495.32906  -2619219.69106  -2040945.89009  24783364.01106  24783367.96506
  23858438.89506     55319.64106     43107.56109  23858307.79406  23858311.08606
  22616187.65106   2027687.46606   1580014.64809  22616055.70006  22616057.85106
  24573557.01706   2987594.33106   2327994.15809  24573425.40106  24573429.16306
  20971636.23806    475036.13406    370158.09309  20971504.58606  20971506.11406
 92  8 21  2 45 30.0000000  0  7 11 23 12 25 28 17 21
  21928537.23906  -1050897.63106   -818880.49909  21928405.45506  21928408.09606
  23042585.46306   1894997.83106   1476621.70709  23042453.77406  23042455.66306
  23860493.53106     66116.84606     51521.00009  23860362.40906  23860365.69306
  24765442.63306  -2714087.19906  -2114868.47909  24765311.21806  24765315.03906
  22631031.64306   2105693.54706   1640798.58509  22630899.71706  22630901.85506
  24594260.80206   3096392.18606   2412771.64109  24594129.09606  24594132.89606
  20975400.13206    494815.96606    385570.95209  20975268.55806  20975270.05406
 92  8 21  2 46  0.0000000  0  7 11 23 12 25 28 17 21
  21923381.60606  -1077989.34106   -839990.91309  21923249.92406  21923252.69506
  23055231.77906   1961454.30606   1528405.97309  23055100.04406  23055101.92806
  23862666.17906     77534.42006     60417.84509  23862535.00106  23862538.32606
  24747383.95506  -2808985.80006  -2188815.31309  24747252.44906  24747256.28006
  22645941.38706   2184044.58206   1701851.31409  22645809.40406  22645811.62806
  24614991.06906   3205329.83606   2497658.03109  24614859.44406  24614863.17006
  20979201.30106    514790.82006    401135.77709  20979069.64406  20979071.16306
 92  8 21  2 46 30.0000000  0  7 11 23 12 25 28 17 21
  21918349.74106  -1104430.76306   -860594.61309  21918218.24206  21918220.96306
  23067902.10506   2028037.45406   1580288.94609  23067770.33606  23067772.25606
  23864960.29806     89590.20406     69811.99409  23864829.11906  23864832.44706
  24729320.43606  -2903909.01806  -2262781.33009  24729189.01306  24729192.83506
  22660920.78806   2262760.97906   1763188.73609  22660788.85306  22660791.12406
  24635750.74206   3314422.52106   2582665.23909  24635618.89906  24635622.68806
  20983045.38706    534991.55006    416876.61209  20982913.71206  20982915.20406
 92  8 21  2 47  0.0000000  0  7 21 11 23 12 25 28 17
  20986935.67106    555435.91106    432807.29209  20986804.12706  20986805.61806
  21913447.61606  -1130192.27706   -880668.51609  21913316.07406  21913318.67506
  23080597.18706   2094750.18506   1632272.89309  23080465.37106  23080467.32406
  23867381.26806    102312.44006     79725.45909  23867250.05906  23867253.42306
  24711254.49206  -2998845.66806  -2336757.81509  24711122.95706  24711126.92906
  22675972.76706   2341858.96706   1824823.49709  22675840.80706  22675843.19106
  24656544.46606   3423694.27306   2667811.99409  24656412.78306  24656416.51906
 92  8 21  2 47 30.0000000  0  8 21 11 23 12 25 28 17 15
  20990865.41506    576086.83806    448898.93909  20990733.82706  20990735.33806
  21908668.94506  -1155305.91106   -900237.57809  21908537.24906  21908539.71306
  23093304.70706   2161528.97506   1684308.31109  23093172.97606  23093174.81406
  23869922.70606    115667.93406     90132.35809  23869791.58706  23869794.83906
  24693178.32106  -3093835.87106  -2410776.01509  24693046.91606  24693050.78106
  22691091.40706   2421307.49906   1886731.40309  22690959.47606  22690961.88406
  24677365.80006   3533110.17106   2753071.05409  24677234.15306  24677237.76306
  25499929.25016        -0.20116        -0.21719  25499797.49416  25499800.57016
 92  8 21  2 48  0.0000000  0  8 21 11 23 12 25 28 17 15
  20994831.97606    596930.92206    465141.09809  20994700.34006  20994701.85706
  21904010.46806  -1179786.84506   -919313.62009  21903878.69306  21903881.15306
  23106018.50206   2228339.99206   1736368.84609  23105886.72606  23105888.60206
  23872581.58906    129640.66906    101020.24309  23872450.51206  23872453.70506
  24675088.12606  -3188899.82806  -2484851.69309  24674956.79606  24674960.58106
  22706274.95406   2501097.98406   1948905.76209  22706142.96906  22706145.42706
  24698214.73106   3642673.19206   2838444.77609  24698083.27506  24698086.95306
  25480752.81706   -100772.48806    -78524.00409  25480621.07106  25480624.13306
 92  8 21  2 48 30.0000000  0  8 21 11 23 12 25 28 17 15
  20998830.65706    617944.29006    481515.32009  20998699.00306  20998700.45806
  21899468.85506  -1203651.41806   -937909.23709  21899337.22606  21899339.84706
  23118735.76506   2295170.33806   1788444.59009  23118604.09206  23118605.95306
  23875354.58206    144213.08806    112375.54809  23875223.46606  23875226.65006
  24656980.33306  -3284056.70306  -2558999.61909  24656848.84906  24656852.61706
  22721519.21006   2581207.18006   2011328.61709  22721387.23506  22721389.61606
  24719090.16906   3752373.16306   2923925.35409  24718958.51106  24718962.39306
  25461565.89406   -201599.66506   -157090.41409  25461434.25406  25461437.37606
 92  8 21  2 49  0.0000000  0  8 21 11 23 12 25 28 17 15
  21002859.20506    639114.64806    498011.78409  21002727.60106  21002729.09306
  21895045.28606  -1226897.36706   -956022.90109  21894913.62306  21894916.36206
  23131457.04706   2362020.55806   1840535.73109  23131325.25206  23131327.17306
  23878242.03206    159386.19306    124198.83009  23878110.82706  23878113.98206
  24638856.44006  -3379297.56706  -2633213.05509  24638724.99906  24638728.79706
  22736823.84106   2661632.74706   2073997.90609  22736691.88206  22736694.28706
  24739991.24806   3862208.84606   3009511.59109  24739859.59106  24739863.44006
  25442369.17806   -302479.36606   -235697.82609  25442237.28006  25442240.69406
 92  8 21  2 49 30.0000000  0  8 21 11 23 25 12 28 17 15
  21006920.64006    660457.73806    514642.77709  21006789.00006  21006790.51106
  21890741.26506  -1249516.08706   -973647.87709  21890609.51106  21890612.11806
  23144187.05906   2428917.70406   1892663.38009  23144055.24106  23144057.24206
  24620719.01506  -3474611.18406  -2707483.26309  24620587.38706  24620591.04806
  23881245.04506    175167.45106    136495.93709  23881113.84606  23881117.04806
  22752192.99506   2742398.48906   2136932.21409  22752061.12206  22752063.44506
  24760917.31106   3972174.90306   3095199.35809  24760785.44006  24760789.24606
  25423163.96306   -403401.90806   -314338.69009  25423032.25406  25423035.74906
 92  8 21  2 50  0.0000000  0  8 21 11 23 25 12 28 17 15
  21011013.82506    681967.64006    531403.75509  21010882.21606  21010883.69806
  21886556.30206  -1271508.77006   -990785.02909  21886424.51706  21886427.06906
  23156928.18206   2495872.98606   1944836.33109  23156796.48006  23156798.40106
  24602566.87606  -3570001.21406  -2781813.01109  24602435.15506  24602438.79306
  23884363.26706    191554.41806    149265.02809  23884232.19106  23884235.45206
  22767626.50306   2823501.07006   2200128.99409  22767494.48406  22767496.76606
  24781865.12806   4082257.22206   3180977.73409  24781733.50006  24781737.34406
  25403950.27006   -504368.13906   -393013.59009  25403818.86006  25403822.63806
 92  8 21  2 50 30.0000000  0  8 21 11 23 25 12 28 17 15
  21015138.95606    703645.58406    548295.68409  21015007.37406  21015008.83706
  21882490.33506  -1292875.44806  -1007434.38609  21882358.55706  21882361.10306
  23169682.45306   2562896.71306   1997062.61909  23169550.70106  23169552.57706
  24584399.12806  -3665470.93006  -2856204.84709  24584267.68706  24584271.36806
  23887596.60306    208545.96206    162505.21009  23887465.53406  23887468.79606
  22783124.26606   2904942.56406   2263589.85909  22782992.33906  22782994.60806
  24802829.53506   4192425.33506   3266822.93709  24802697.73906  24802701.79706
  25384729.39706   -605377.49206   -471722.09009  25384597.51506  25384601.05206
 92  8 21  2 51  0.0000000  0  8 21 11 23 25 12 28 17 15
  21019297.17606    725497.11906    565322.87409  21019165.53106  21019167.00906
  21878542.76506  -1313619.10806  -1023598.27309  21878411.07606  21878413.64406
  23182447.65206   2629978.23006   2049333.94209  23182315.84006  23182317.74306
  24566218.34606  -3761012.28106  -2930652.51009  24566086.73606  24566090.28306
  23890944.39006    226137.96206    176213.29009  23890813.23206  23890816.42406
  22798686.70606   2986723.61506   2327315.31009  22798554.74406  22798557.09806
  24823806.66706   4302659.70906   3352719.74709  24823674.92806  24823678.83406
  25365499.08006   -706432.24706   -550465.97509  25365367.36506  25365370.61906
 92  8 21  2 51 30.0000000  0  8 21 11 23 25 12 28 17 15
  21023493.97506    747551.77106    582508.34209  21023362.42606  21023363.85806
  21874714.45206  -1333736.52206  -1039274.17409  21874582.86006  21874585.45006
  23195224.44406   2697121.57706   2101653.44309  23195092.70706  23195094.65206
  24548024.19006  -3856621.46206  -3005153.04009  24547892.76606  24547896.23606
  23894406.63106    244332.42606    190390.81909  23894275.44306  23894278.69206
  22814310.33906   3068826.89606   2391291.84509  22814178.31606  22814180.69506
  24844797.28406   4412964.18006   3438671.21809  24844665.33706  24844668.95606
  25346260.98306   -807528.49206   -629242.19709  25346129.18406  25346132.36806
 92  8 21  2 52  0.0000000  0  8 21 11 23 25 12 28 17 15
  21027730.73906    769815.93506    599857.05909  21027599.13206  21027600.59806
  21871006.12006  -1353224.64306  -1054459.71409  21870874.44306  21870877.01506
  23208011.89806   2764319.79706   2154015.70709  23207880.18906  23207882.11606
  24529820.38106  -3952283.79906  -3079694.98409  24529688.84706  24529692.30506
  23897983.77006    263131.21806    205039.25009  23897852.75106  23897855.86106
  22829991.29206   3151230.83206   2455502.65109  22829859.34406  22829861.84806
  24865802.38706   4523347.92706   3524684.50209  24865670.49706  24865674.14306
  25327015.72806   -908662.68806   -708048.01309  25326883.98806  25326887.41806
 92  8 21  2 52 30.0000000  0  8 21 11 23 25 12 28 17 15
  21032015.51406    792332.63406    617402.56109  21031883.88306  21031885.35006
  21867424.26506  -1372047.09806  -1069126.55809  21867292.63906  21867295.31806
  23220817.11506   2831611.87606   2206451.10709  23220685.43806  23220687.34306
  24511615.27506  -4047952.32306  -3154241.74809  24511483.58406  24511487.03306
  23901682.81006    282569.55606    220186.01909  23901551.68306  23901554.86306
  22845734.57306   3233961.85506   2519968.32509  22845602.61506  22845605.20706
  24886831.04506   4633854.43906   3610793.39809  24886699.03206  24886703.30806
  25307770.57506  -1009797.57106   -786854.36209  25307638.60006  25307641.95206
 92  8 21  2 53  0.0000000  0  8 21 11 23 25 12 28 17 15
  21036350.43506    815113.03806    635153.54609  21036218.85706  21036220.30306
  21863973.56906  -1390180.42506  -1083256.41809  21863841.91206  21863844.65006
  23233643.72406   2899015.39306   2258973.34109  23233511.95406  23233513.80106
  24493415.24206  -4143593.54606  -3228767.24009  24493283.57706  24493287.03806
  23905507.89106    302669.66606    235848.46509  23905376.58406  23905379.88006
  22861539.59206   3317017.25506   2584686.75909  22861407.63506  22861410.19906
  24907888.36006   4744510.81106   3697019.05309  24907756.60006  24907760.43506
  25288529.47606  -1110908.94306   -865642.38209  25288397.74506  25288401.08306
 92  8 21  2 53 30.0000000  0  8 21 11 23 25 12 28 17 15
  21040731.39206    838135.12706    653092.85409  21040599.76306  21040601.22606
  21860653.04506  -1407629.47006  -1096853.07209  21860521.44706  21860524.11806
  23246492.95906   2966538.76306   2311588.96109  23246361.26806  23246363.12206
  24475220.40106  -4239208.45106  -3303272.22209  24475088.70906  24475091.90406
  23909457.46206    323425.50306    252021.86909  23909326.32206  23909329.45506
  22877403.57106   3400382.72706   2649646.80909  22877271.57306  22877274.10206
  24928974.65206   4855319.54806   3783363.45609  24928842.93006  24928846.66206
  25269292.64106  -1212000.84206   -944415.23109  25269160.62106  25269163.81306
 92  8 21  2 54  0.0000000  0  8 21 11 25 23 12 28 17 15
  21045154.12206    861377.06506    671203.47309  21045022.56406  21045023.99006
  21857463.48006  -1424391.49806  -1109914.38009  21857331.77806  21857334.32406
  24457032.73006  -4334783.17706  -3377745.91509  24456901.39306  24456904.56506
  23259366.88406   3034192.15606   2364305.90009  23259235.27206  23259237.12306
  23913532.03106    344838.80406    268707.58709  23913401.12806  23913404.27706
  22893331.77206   3484085.05806   2714869.35109  22893199.78806  22893202.34706
  24950091.14306   4966288.68406   3869832.85709  24949959.73406  24949963.50006
  25250059.99406  -1313069.63306  -1023170.06709  25249927.95406  25249931.03306
 92  8 21  2 54 30.0000000  0  8 21 11 25 23 12 28 17 15
  21049614.89106    884817.93906    689469.10709  21049483.19106  21049484.62106
  21854400.76206  -1440485.88706  -1122455.44509  21854269.02306  21854271.63906
  24438848.77606  -4430338.72506  -3452204.65909  24438717.47506  24438720.63806
  23272264.45306   3101969.06606   2417119.08209  23272132.68406  23272134.53406
  23917728.03606    366888.92206    285889.52309  23917597.07906  23917600.21206
  22909321.66606   3568113.42806   2780345.95209  22909189.77606  22909192.31806
  24971234.43606   5077397.57506   3956411.14709  24971103.04806  24971106.85206
  25230827.81506  -1414133.84206  -1101921.33709  25230696.09306  25230698.92306
 92  8 21  2 55  0.0000000  0  8 21 11 25 23 12 28 17 15
  21054113.80406    908460.57806    707891.95409  21053982.25106  21053983.63806
  21851465.37506  -1455910.85006  -1134474.88409  21851333.73006  21851336.41106
  24420670.15006  -4525868.62906  -3526643.43409  24420538.68606  24420541.90206
  23285184.32906   3169863.68206   2470023.98709  23285052.60106  23285054.47906
  23922045.57806    389576.45306    303568.13809  23921914.42206  23921917.47706
  22925375.28306   3652475.55306   2846082.62209  22925243.37906  22925245.97806
  24992404.22906   5188644.88606   4043097.28509  24992272.58306  24992276.54806
  25211597.19706  -1515190.37906  -1180666.62709  25211465.50606  25211468.55806
 92  8 21  2 55 30.0000000  0  8 21 11 25 23 12 28 17 15
  21058655.50406    932327.25606    726489.38009  21058523.86806  21058525.33606
  21848659.87806  -1470655.01506  -1145963.82909  21848528.09906  21848530.74206
  24402496.92006  -4621367.92006  -3601058.35309  24402365.49406  24402368.97806
  23298127.34606   3237880.30206   2523023.95509  23297995.70006  23297997.65006
  23926485.85706    412911.60506    321751.40309  23926354.88306  23926358.04606
  22941497.38806   3737197.27206   2912099.49109  22941365.49206  22941368.08706
  25013604.00506   5300047.78606   4129904.67709  25013472.08806  25013475.89106
  25192370.49506  -1616226.70806  -1259396.17009  25192238.82006  25192241.75806
 92  8 21  2 56  0.0000000  0  8 21 11 25 23 12 28 17 15
  21063236.97506    956403.49306    745250.09609  21063105.40506  21063106.83206
  21845979.63406  -1484739.00706  -1156938.35009  21845848.01006  21845850.61906
  24384324.06706  -4716870.09306  -3675475.51909  24384192.29606  24384195.31806
  23311085.87306   3305977.52106   2576086.72909  23310954.15806  23310956.13106
  23931045.50706    436872.62506    340422.35209  23930914.40906  23930917.67106
  22957681.98406   3822247.74706   2978372.53509  22957549.96906  22957552.52506
  25034824.42606   5411563.51006   4216799.97909  25034692.82206  25034696.76806
  25173144.05406  -1717262.52606  -1338125.29909  25173012.37906  25173015.50806
 92  8 21  2 56 30.0000000  4  1
 -2240354.0000 -4717758.0000  3651637.0000                  APPROX POSITION XYZ
 92  8 21  2 56 30.0000000  0  8 21 11 25 23 12 28 17 15
  21067854.70006    980670.23906    764159.25709  21067723.17806  21067724.58406
  21843419.70006  -1498190.50406  -1167420.02009  21843288.17906  21843290.80706
  24366142.35306  -4812414.83106  -3749925.87209  24366010.60206  24366013.59106
  23324048.50806   3374096.75506   2629166.65609  23323916.86606  23323918.69406
  23935718.88506    461430.51706    359558.40109  23935587.66806  23935590.80206
  22973917.94706   3907568.04906   3044855.83009  22973785.99306  22973788.68306
  25056057.92606   5523145.32206   4303746.75609  25055925.97806  25055930.24206
  25153912.53606  -1818324.50006  -1416874.80509  25153780.66006  25153783.80206
 92  8 21  2 57  0.0000000  0  8 21 11 25 23 12 28 17 15
  21072503.72706   1005100.20706    783195.60409  21072372.05106  21072373.52206
  21840977.40106  -1511025.10006  -1177420.98409  21840845.84206  21840848.44306
  24347948.79006  -4908020.84406  -3824423.97009  24347817.29906  24347820.40006
  23337007.59706   3442196.89906   2682231.70809  23336875.84806  23336877.71406
  23940502.37106    486568.62806    379146.56809  23940371.21006  23940374.37906
  22990198.34206   3993122.51006   3111521.59209  22990066.38806  22990069.08206
  25077301.08906   5634779.85006   4390734.62309  25077169.41506  25077173.29606
  25134673.51506  -1919426.77806  -1495655.71309  25134541.64906  25134544.55206
 92  8 21  2 57 30.0000000  0  8 21 11 25 23 12 28 17 15
  21077182.34806   1029687.02006    802354.16209  21077050.81806  21077052.24206
  21838652.32406  -1523243.40006  -1186941.72209  21838520.71906  21838523.38006
  24329743.22506  -5003690.29906  -3898971.49709  24329611.90406  24329614.94206
  23349962.97606   3510277.85906   2735281.80509  23349831.25606  23349833.08006
  23945396.10506    512285.26106    399185.52609  23945264.89506  23945268.00206
  23006518.07006   4078884.43906   3178349.02009  23006386.23606  23006388.86706
  25098554.29606   5746465.28406   4477762.17009  25098422.61506  25098426.61406
  25115426.60606  -2020568.88206  -1574467.65409  25115294.88106  25115297.83406
 92  8 21  2 58  0.0000000  0  8 21 11 25 23 12 28 17 15
  21081888.48406   1054417.26306    821624.48409  21081756.85406  21081758.26506
  21836441.73006  -1534860.96506  -1195994.35709  21836309.99806  21836312.64506
  24311523.75906  -5099432.99706  -3973576.09609  24311392.51206  24311395.57506
  23362914.33706   3578337.77106   2788315.50209  23362782.60406  23362784.49206
  23950396.46706    538563.49406    419662.09609  23950265.43706  23950268.62206
  23022871.60106   4164820.88806   3245312.44409  23022739.58206  23022742.24606
  25119812.47206   5858178.75006   4564811.54109  25119681.04206  25119685.11006
  25096169.59906  -2121765.43106  -1653322.01909  25096037.73806  25096040.69006
 92  8 21  2 58 30.0000000  0  8 21 11 25 23 12 28 17 15
  21086624.37406   1079304.36206    841017.03209  21086492.70606  21086494.14606
  21834347.69406  -1545865.72106  -1204569.47909  21834215.91706  21834218.47506
  24293295.96006  -5195220.87406  -4048215.91209  24293164.70206  24293167.66906
  23375867.37506   3646406.83006   2841356.33009  23375735.75006  23375737.60606
  23955506.12806    565414.37406    440584.88609  23955374.98306  23955378.08706
  23039260.76106   4250945.97406   3312422.86409  23039128.79806  23039131.40106
  25141081.10506   5969944.94506   4651901.99409  25140949.50306  25140953.53806
  25076904.60606  -2223003.08106  -1732208.41409  25076772.75406  25076775.58706
 92  8 21  2 59  0.0000000  0  8 21 11 25 23 12 28 17 15
  21091392.28906   1104360.33406    860541.16909  21091260.66906  21091262.10206
  21832373.10706  -1556242.42706  -1212655.21109  21832241.32106  21832243.82006
  24275064.22106  -5291029.77906  -4122872.10609  24274932.77506  24274935.83706
  23388831.18406   3714531.64606   2894440.60609  23388699.41306  23388701.29606
  23960727.31806    592851.89906    461964.80909  23960596.15406  23960599.30306
  23055691.21606   4337288.97206   3379703.09009  23055559.21806  23055561.85606
  25162362.21006   6081777.93106   4739044.46909  25162230.71206  25162234.91406
  25057635.12106  -2324265.31406  -1811113.97409  25057503.25606  25057505.93806
 92  8 21  2 59 30.0000000  0  8 21 11 25 23 12 28 17 15
  21096197.49706   1129611.93906    880217.74809  21096065.87006  21096067.26306
  21830521.93406  -1565969.92006  -1220235.06309  21830390.22806  21830392.67606
  24256832.36806  -5386839.48006  -4197528.93109  24256700.68706  24256703.77406
  23401813.09906   3782752.14106   2947599.43409  23401681.33706  23401683.26606
  23966063.99506    620896.16606    483817.51109  23965932.80806  23965935.96406
  23072170.88406   4423889.77006   3447184.20309  23072038.80506  23072041.37406
  25183656.78706   6193680.64106   4826241.30209  25183524.90406  25183529.08906
  25038365.12006  -2425529.59906  -1890021.13509  25038233.25306  25038236.05006
 92  8 21  3  0  0.0000000  0  8 21 11 25 23 12 28 17 15
  21101041.65906   1155068.35806    900053.92209  21100910.08006  21100911.46506
  21828797.34506  -1575031.70506  -1227296.18609  21828665.72406  21828668.30406
  24238602.38106  -5482638.73306  -4272177.61009  24238470.66106  24238473.62506
  23414815.99806   3851083.21606   3000844.43109  23414684.32606  23414686.15806
  23971519.08506    649562.44406    506154.89909  23971387.80606  23971390.92906
  23088706.67706   4510785.89106   3514895.44209  23088574.72306  23088577.27306
  25204966.33706   6305660.67006   4913498.38209  25204834.34606  25204838.21606
  25019098.12006  -2526778.07606  -1968915.98709  25018966.27306  25018968.98106
 92  8 21  3  0 30.0000000  0  8 21 11 25 23 12 28 17 15
  21105921.85106   1180714.00106    920037.54609  21105790.26006  21105791.67606
  21827198.92806  -1583431.30306  -1233841.32309  21827067.31806  21827069.92106
  24220374.11806  -5578428.53706  -4346818.93109  24220242.52606  24220245.36906
  23427835.41606   3919500.72806   3054156.78409  23427703.75006  23427705.57906
  23977091.43606    678846.00706    528973.28009  23976960.23206  23976963.33906
  23105299.68906   4597982.88206   3582841.12509  23105167.68906  23105170.31706
  25226289.71306   6417717.33506   5000815.19309  25226157.99406  25226162.02406
  24999833.73806  -2628012.70906  -2047800.06009  24999701.97106  24999704.65406
 92  8 21  3  1  0.0000000  0  8 21 11 25 23 12 28 17 15
  21110841.65406   1206567.92206    940183.46209  21110710.11106  21110711.47806
  21825730.57906  -1591148.28306  -1239854.55209  21825598.83406  21825601.40606
  24202150.64806  -5674192.04106  -4421439.75909  24202019.01606  24202022.02706
  23440872.23306   3988010.60706   3107541.11109  23440740.74306  23440742.55706
  23982785.01506    708766.08506    552287.65009  23982653.87206  23982656.92006
  23121953.14006   4685497.33506   3651034.18509  23121821.19006  23121823.77606
  25247633.78806   6529881.66906   5088215.89309  25247502.23206  25247506.19906
  24980576.09706  -2729211.75206  -2126656.40509  24980444.41906  24980447.19706
 92  8 21  3  1 30.0000000  0  8 21 11 25 23 12 28 17 15
  21115805.43006   1232652.61406    960509.20309  21115673.81306  21115675.21206
  21824396.25106  -1598161.08106  -1245319.06809  21824264.46906  21824266.89006
  24183936.63506  -5769905.58006  -4496021.63909  24183805.32706  24183808.37906
  23453928.30206   4056620.25206   3161003.17609  23453796.72506  23453798.68606
  23988603.72106    739343.36306    576114.12809  23988472.58806  23988475.52906
  23138669.07406   4773340.77506   3719483.59209  23138537.20706  23138539.92006
  25269004.65306   6642185.32006   5175725.16209  25268872.91406  25268876.97406
  24961329.70406  -2830351.74606  -2205466.75909  24961198.09106  24961200.80506
 92  8 21  3  2  0.0000000  0  8 21 11 25 23 12 28 17 15
  21120816.88906   1258987.76106    981030.10709  21120685.25906  21120686.67806
  21823196.35606  -1604466.40706  -1250232.30109  21823064.57406  21823067.04906
  24165734.70106  -5865555.25706  -4570553.76209  24165603.71706  24165606.72306
  23467002.96206   4125328.45906   3214542.04209  23466871.41806  23466873.36806
  23994547.90206    770579.68606    600454.14509  23994416.52206  23994419.56306
  23155444.66506   4861496.94406   3788176.68809  23155312.78606  23155315.42306
  25290404.30306   6754642.53406   5263354.08109  25290272.92406  25290277.12106
  24942095.42106  -2931427.98906  -2284227.43509  24941963.82706  24941966.73906
 92  8 21  3  2 30.0000000  0  8 21 11 25 23 12 28 17 15
  21125881.04406   1285600.32306   1001767.17509  21125749.45606  21125750.87206
  21822132.50906  -1610054.70506  -1254586.81809  21822000.98306  21822003.66906
  24147551.02806  -5961112.42306  -4645013.79109  24147419.65006  24147422.74606
  23480099.48406   4194150.61006   3268169.69709  23479967.83506  23479969.71206
  24000618.70806    802483.51206    625314.29709  24000487.59406  24000490.68406
  23172278.70906   4949960.10406   3857108.99309  23172146.73706  23172149.40106
  25311835.79006   6867264.18706   5351111.14309  25311704.20606  25311708.31406
  24922875.53706  -3032429.16706  -2362929.62509  24922743.92306  24922746.80806
 92  8 21  3  3  0.0000000  0  8 21 11 25 23 12 28 17 15
  21130996.18306   1312480.32506   1022712.63909  21130864.51906  21130865.92906
  21821203.31606  -1614938.06106  -1258392.04009  21821071.72506  21821074.40106
  24129383.20706  -6056586.79106  -4719409.29909  24129251.68706  24129254.53106
  23493219.50106   4263096.25306   3321893.57609  23493087.86506  23493089.71506
  24006814.22306    835041.76306    650684.38309  24006683.23106  24006686.20206
  23189165.96206   5038702.76106   3926259.08909  23189034.03306  23189036.79306
  25333293.69206   6980025.27606   5438976.85009  25333161.91706  25333166.12106
  24903668.00006  -3133365.76706  -2441581.49809  24903536.40106  24903539.12506
 92  8 21  3  3 30.0000000  0  8 21 11 25 23 12 28 17 15
  21136160.80606   1339621.34206   1043861.49409  21136029.27306  21136030.70406
  21820407.35206  -1619122.78806  -1261652.87009  21820275.58306  21820278.07406
  24111230.21706  -6151981.03406  -4793742.37809  24111098.62406  24111101.49206
  23506364.50806   4332173.51506   3375720.01409  23506232.87206  23506234.67506
  24013133.21506    868246.98606    676558.59909  24013001.94806  24013004.99406
  23206103.23206   5127707.49206   3995613.39509  23205971.30506  23205973.99906
  25354771.07506   7092890.13906   5526923.42909  25354639.34806  25354643.48106
  24884471.81806  -3234242.40406  -2520186.64509  24884340.20406  24884342.90606
 92  8 21  3  4  0.0000000  0  8 21 11 25 23 12 28 17 15
  21141371.78006   1367004.82206   1065199.28609  21141240.17606  21141241.58806
  21819742.10706  -1622619.17706  -1264377.32509  21819610.24706  21819612.58906
  24093092.11006  -6247298.26506  -4868015.44809  24092960.30906  24092963.00806
  23519531.19806   4401366.41706   3429636.56309  23519399.83406  23519401.63706
  24019572.93406    902087.37006    702927.75509  24019441.53206  24019444.53806
  23223085.79006   5216951.98306   4065154.52609  23222953.90206  23222956.67606
  25376263.71606   7205834.83006   5614932.21709  25376131.95306  25376136.28606
  24865285.61606  -3335067.46806  -2598751.59809  24865153.80906  24865156.51706
 92  8 21  3  4 30.0000000  0  8 21 11 25 23 12 28 17 15
  21146622.71506   1394598.66806   1086701.00109  21146491.10606  21146492.51206
  21819207.69006  -1625425.92306  -1266564.39709  21819076.01006  21819078.48606
  24074967.35506  -6342542.71706  -4942231.81309  24074835.67806  24074838.34906
  23532719.96806   4470674.36106   3483642.75509  23532588.56206  23532590.33706
  24026133.47506    936563.50506    729792.29609  24026002.08306  24026005.05706
  23240113.23706   5306432.35706   4134879.45709  23239981.36306  23239984.05706
  25397770.89506   7318856.11406   5703000.67009  25397639.20106  25397643.40806
  24846109.67206  -3435837.97206  -2677274.02809  24845977.73706  24845980.44806
 92  8 21  3  5  0.0000000  0  8 21 11 25 23 12 28 17 15
  21151906.24706   1422364.38706   1108336.64109  21151774.76306  21151776.15506
  21818801.60806  -1627558.53606  -1268226.17809  21818670.08906  21818672.76506
  24056849.84906  -6437749.03306  -5016418.44709  24056718.30806  24056721.32906
  23545927.42006   4540078.86706   3537724.18809  23545795.80806  23545797.74106
  24032811.61006    971658.66106    757139.19409  24032680.42906  24032683.51506
  23257182.17806   5396130.45306   4204774.04009  23257050.20606  23257052.95106
  25419290.55606   7431942.91106   5791120.19809  25419159.22906  25419163.36306
  24826941.43706  -3536567.29906  -2755764.36409  24826809.52106  24826812.30206
 92  8 21  3  5 30.0000000  0  8 21 11 25 23 12 28 17 15
  21157221.97806   1450297.83906   1130102.98109  21157090.28606  21157091.68206
  21818522.95906  -1629023.65306  -1269367.83709  21818391.36906  21818394.04506
  24038737.10306  -6532931.98306  -5090586.87009  24038605.70006  24038608.44506
  23559149.44706   4609561.85806   3591866.78409  23559017.95406  23559019.79106
  24039606.21806   1007364.95806    784962.31009  24039475.08906  24039478.21906
  23274292.90806   5486046.72706   4274838.62609  23274160.86906  23274163.69006
  25440822.42406   7545093.02906   5879289.09309  25440691.10406  25440695.04406
  24807780.04206  -3637260.42106  -2834226.47409  24807648.26906  24807651.01806
 92  8 21  3  6  0.0000000  0  8 21 11 25 23 12 28 17 15
  21162570.88306   1478406.69706   1152006.00409  21162439.20306  21162440.57406
  21818372.60206  -1629815.16106  -1269984.60409  21818240.87406  21818243.39106
  24020628.12106  -6628095.19406  -5164739.91409  24020496.67406  24020499.32206
  23572385.53406   4679117.05806   3646065.64309  23572253.85306  23572255.72906
  24046518.25606   1043687.46906    813265.59009  24046387.01806  24046390.02706
  23291448.28606   5576198.69306   4345086.87209  23291316.22406  23291318.97106
  25462370.56306   7658327.75006   5967523.86609  25462238.78106  25462243.04106
  24788627.02306  -3737909.39206  -2912654.17809  24788495.33306  24788498.04606
 92  8 21  3  6 30.0000000  0  8 21 11 25 23 12 28 17 15
  21167958.96506   1506721.85306   1174069.77809  21167827.43106  21167828.78506
  21818353.93406  -1629913.21606  -1270061.01409  21818222.20206  21818224.66906
  24002525.47806  -6723225.48406  -5238867.30509  24002393.94406  24002396.63706
  23585640.95406   4748774.60806   3700344.25409  23585509.27006  23585511.19206
  24053550.93506   1080644.68006    842063.43409  24053419.83006  24053422.80106
  23308654.18906   5666617.39506   4415542.95509  23308522.20206  23308525.07606
  25483940.97606   7771678.18006   6055848.80909  25483809.06606  25483813.08706
  24769486.45306  -3838492.21806  -2991030.33209  24769354.95306  24769357.65706
 92  8 21  3  7  0.0000000  0  8 21 11 25 23 12 28 17 15
  21173390.39406   1535264.26406   1196310.63309  21173258.79306  21173260.17106
  21818465.12006  -1629328.23706  -1269605.19109  21818333.44706  21818335.97706
  23984429.44006  -6818319.83506  -5312966.68109  23984297.88806  23984300.66306
  23598913.79606   4818524.47506   3754694.80009  23598782.18906  23598784.05706
  24060702.26406   1118225.34106    871347.08509  24060571.11206  24060574.14906
  23325911.49206   5757304.22406   4486207.96709  23325779.47506  23325782.36006
  25505529.62906   7885126.97906   6144250.42209  25505397.56806  25505401.62406
  24750357.05406  -3939017.36206  -3069361.54409  24750225.46706  24750228.26706
 92  8 21  3  7 30.0000000  0  8 21 11 25 23 12 28 17 15
  21178870.29806   1564061.41906   1218749.99009  21178738.70106  21178740.09206
  21818706.60406  -1628058.43806  -1268615.74609  21818575.03106  21818577.67306
  23966345.64906  -6913350.06106  -5387016.09809  23966214.09706  23966216.76906
  23612202.22506   4888355.27506   3809108.41109  23612070.62906  23612072.46406
  24067972.35006   1156430.17406    901117.11309  24067841.16906  24067844.28506
  23343218.00506   5848251.78506   4557076.14309  23343086.15006  23343089.02106
  25527134.63106   7998664.25806   6232721.00009  25527002.71306  25527007.00106
  24731239.40506  -4039481.01006  -3147644.84509  24731107.88806  24731110.67606
 92  8 21  3  8  0.0000000  0  8 21 11 25 23 12 28 17 15
  21184398.53306   1593112.18706   1241386.96409  21184266.88606  21184268.26706
  21819078.93806  -1626102.64006  -1267091.76209  21818947.30406  21818949.90506
  23948279.41306  -7008287.97306  -5460993.57709  23948147.94006  23948150.59306
  23625506.10906   4958268.19706   3863586.01309  23625374.54406  23625376.42506
  24075361.19006   1195258.90106    931373.29009  24075230.02406  24075233.11206
  23360573.20006   5939452.93006   4628141.91809  23360441.30406  23360444.17506
  25548757.43606   8112293.89406   6321263.56709  25548625.84806  25548630.16106
  24712134.12106  -4139879.72306  -3225877.55009  24712002.54606  24712005.27206
 92  8 21  3  8 30.0000000  0  8 21 11 25 23 12 28 17 15
  21189973.82606   1622410.67306   1264216.96609  21189842.18706  21189843.56306
  21819581.26406  -1623463.66906  -1265035.43009  21819449.47506  21819452.03406
  23930234.69706  -7103114.70306  -5534884.42809  23930103.09806  23930105.54906
  23638828.00406   5028274.48006   3918136.36409  23638696.28406  23638698.15606
  24082868.14206   1234707.93306    962112.81009  24082736.87506  24082739.99606
  23377972.80406   6030887.40606   4699389.50109  23377840.85906  23377843.73906
  25570395.31806   8226002.25606   6409867.43709  25570263.80906  25570268.21206
  24693041.12806  -4240214.26106  -3304060.24409  24692909.50006  24692912.33206
 92  8 21  3  9  0.0000000  0  8 21 11 25 23 12 28 17 15
  21195594.45206   1651947.67106   1287232.81809  21195462.86206  21195464.21506
  21820211.93206  -1620148.48906  -1262452.18009  21820080.27206  21820082.84606
  23912211.06206  -7197828.20206  -5608687.04909  23912079.51506  23912082.10106
  23652164.58606   5098358.55806   3972747.34109  23652032.81406  23652034.71106
  24090491.24206   1274768.96006    993329.21709  24090360.19606  24090363.34506
  23395411.56606   6122528.92506   4770798.42209  23395279.68706  23395282.51406
  25592044.55006   8339768.61006   6498516.48609  25591913.13006  25591917.39706
  24673959.41206  -4340489.52706  -3382196.75509  24673827.76506  24673830.50206
 92  8 21  3  9 30.0000000  0  8 21 11 25 23 12 28 17 15
  21201254.38606   1681691.08506   1310409.51409  21201122.80506  21201124.17706
  21820969.87406  -1616164.93406  -1259348.12109  21820838.31406  21820840.93106
  23894207.38206  -7292438.13606  -5682408.96809  23894075.83706  23894078.40806
  23665514.31306   5168511.81406   4027412.22109  23665382.54806  23665384.39706
  24098229.38606   1315433.16206   1025015.63809  24098098.42206  24098101.40306
  23412886.60106   6214360.39606   4842355.35509  23412754.61206  23412757.57906
  25613702.92306   8453583.48806   6587203.38009  25613571.27406  25613575.60906
  24654887.88706  -4440710.85406  -3460291.23709  24654756.24306  24654758.95606
 92  8 21  3 10  0.0000000  0  8 21 11 25 23 12 28 17 15
  21206951.88806   1711631.21106   1333739.49009  21206820.28606  21206821.69106
  21821857.11006  -1611503.03706  -1255715.48509  21821725.55506  21821728.04806
  23876221.55206  -7386953.09106  -5756056.88509  23876090.09606  23876092.65406
  23678882.77306   5238763.91706   4082154.12509  23678751.02206  23678752.90306
  24106084.01206   1356709.47706   1057179.02909  24105952.96306  24105955.99106
  23430401.26206   6306399.76306   4914074.28409  23430269.12906  23430272.05306
  25635371.79606   8567455.97006   6675935.14109  25635240.53706  25635244.96606
  24635829.00406  -4540866.13906  -3538334.25509  24635697.29006  24635699.96606
 92  8 21  3 10 30.0000000  0  8 21 11 25 23 12 28 17 15
  21212690.87806   1741789.51606   1357239.47409  21212559.18806  21212560.58506
  21822875.99606  -1606150.03106  -1251544.31809  21822744.23406  21822746.75306
  23858252.98006  -7481377.63406  -5829634.35209  23858121.59406  23858124.15206
  23692271.20406   5309120.98006   4136977.81509  23692139.61206  23692141.44506
  24114057.36106   1398609.57106   1089828.47309  24113926.26806  24113929.37006
  23447957.52606   6398658.91706   4985964.47509  23447825.51206  23447828.36006
  25657052.93106   8681390.10306   6764714.91109  25656921.42006  25656925.80806
  24616785.44206  -4640940.21306  -3616313.99009  24616653.67906  24616656.43006
 92  8 21  3 11  0.0000000  0  8 21 11 25 23 12 28 17 15
  21218473.34006   1772176.75206   1380917.84609  21218341.71006  21218343.07006
  21824028.36706  -1600094.03906  -1246825.37109  21823896.62206  21823899.23906
  23840302.52006  -7575708.06506  -5903138.49209  23840171.09406  23840173.45906
  23705679.84006   5379583.69806   4191883.83509  23705548.19806  23705549.99306
  24122151.61906   1441144.11106   1122972.29409  24122020.35106  24122023.38106
  23465557.77506   6491147.14306   5058033.15809  23465425.64906  23465428.59506
  25678749.55506   8795407.47906   6853559.56609  25678618.26606  25678622.50906
  24597759.98706  -4740918.85906  -3694219.36109  24597628.28306  24597631.08506
 92  8 21  3 11 30.0000000  0  8 21 11 25 23 12 28 17 15
  21224295.93806   1802775.08606   1404760.70609  21224164.35006  21224165.74506
  21825310.48406  -1593356.07006  -1241575.01709  21825178.84506  21825181.47706
  23822364.64306  -7669972.85806  -5976591.49009  23822233.06806  23822235.38806
  23719106.24906   5450139.18006   4246862.13509  23718974.55206  23718976.35206
  24130362.39006   1484291.21706   1156593.44009  24130231.03006  24130233.92006
  23483197.15506   6583842.96006   5130263.59809  23483065.14306  23483068.05206
  25700460.78006   8909499.00806   6942462.04509  25700329.05706  25700333.57606
  24578749.30906  -4840820.39506  -3772064.64909  24578617.53606  24578620.31006
 92  8 21  3 12  0.0000000  0  8 21 11 25 23 12 28 17 15
  21230161.96206   1833600.90706   1428780.83109  21230030.33306  21230031.72606
  21826721.61106  -1585940.36706  -1235796.55709  21826589.98206  21826592.58306
  23804437.69306  -7764179.80106  -6049999.41109  23804306.09906  23804308.40706
  23732549.06006   5520782.45706   4301908.84109  23732417.43306  23732419.27806
  24138688.41906   1528045.47606   1190687.69209  24138557.18806  24138560.09806
  23500872.65306   6676728.47806   5202641.85709  23500740.65906  23500743.67206
  25722185.74506   9023665.08906   7031422.61009  25722054.22006  25722058.65106
  24559752.87806  -4940646.83206  -3849851.42109  24559621.14306  24559623.95506
 92  8 21  3 12 30.0000000  0  8 21 11 25 23 12 28 17 15
  21236072.47906   1864660.92106   1452983.43809  21235940.82206  21235942.23006
  21828260.80206  -1577851.70706  -1229493.71209  21828129.13006  21828131.75306
  23786522.86606  -7858321.87406  -6123356.78409  23786391.23206  23786393.66706
  23746006.49206   5591501.32906   4357014.45709  23745874.81606  23745876.63306
  24147129.11106   1572401.01906   1225250.47209  24146997.71106  24147000.67706
  23518580.44906   6769783.41506   5275152.13009  23518448.43306  23518451.51306
  25743924.60406   9137902.95106   7120439.10709  25743792.88906  25743797.44706
  24540770.36706  -5040400.38006  -3927581.39509  24540638.59406  24540641.32906
 92  8 21  3 13  0.0000000  0  8 21 11 25 23 12 28 17 15
  21242028.07906   1895958.54106   1477371.19609  21241896.55206  21241897.94306
  21829929.72806  -1569081.25306  -1222659.59909  21829798.06006  21829800.70306
  23768623.13906  -7952383.58406  -6196651.54109  23768491.88006  23768494.20806
  23759481.46606   5662313.17806   4412192.52809  23759349.77706  23759351.66306
  24155685.31206   1617365.66306   1260287.87309  24155554.17006  24155557.10706
  23536321.62506   6863013.39506   5347798.80009  23536189.63406  23536192.69506
  25765678.65406   9252220.44406   7209517.66009  25765546.92406  25765551.34006
  24521803.90606  -5140069.62606  -4005245.67909  24521672.22506  24521674.89306
 92  8 21  3 13 30.0000000  0  8 21 11 25 23 12 28 17 15
  21248029.98006   1927498.83706   1501948.05509  21247898.46206  21247899.88606
  21831728.82306  -1559626.90806  -1215292.58109  21831597.25206  21831599.85906
  23750741.32106  -8046353.41906  -6269874.70309  23750609.91206  23750612.25006
  23772973.24106   5733213.14606   4467439.26009  23772841.52306  23772843.45706
  24164357.92206   1662940.40606   1295800.67709  24164226.78106  24164229.67706
  23554097.44606   6956427.05106   5420588.59509  23553965.57306  23553968.59006
  25787444.09806   9366603.28006   7298647.11209  25787313.13406  25787317.86806
  24502854.40406  -5239649.83706  -4082840.59609  24502722.76706  24502725.31806
 92  8 21  3 14  0.0000000  0  8 21 11 25 23 12 28 17 15
  21254071.42906   1959246.24006   1526686.29609  21253939.81406  21253941.18206
  21833652.58806  -1549518.50206  -1207415.90309  21833520.90006  21833523.48306
  23732874.01806  -8140246.48206  -6343038.05409  23732742.53606  23732744.91006
  23786475.31006   5804166.92106   4522727.91609  23786343.59106  23786345.53906
  24173140.73206   1709094.37306   1331764.82709  24173009.53806  24173012.40206
  23571903.81706   7049999.20106   5493501.89509  23571771.88406  23571774.98006
  25809213.31606   9481002.40606   7387789.24609  25809082.56406  25809087.25606
  24483916.77806  -5339168.10106  -4160387.24809  24483785.05706  24483787.53406
 92  8 21  3 14 30.0000000  0  8 21 11 25 23 12 28 17 15
  21260152.03706   1991200.32206   1551585.58309  21260020.43506  21260021.82506
  21835703.34606  -1538741.53506  -1199018.26909  21835571.60606  21835574.27906
  23715026.99906  -8234033.42706  -6416118.71809  23714895.49206  23714897.82406
  23799991.13306   5875193.10406   4578072.98909  23799859.43306  23799861.37106
  24182036.29206   1755841.19806   1368190.94209  24181905.05406  24181908.07306
  23589744.88606   7143753.77306   5566557.33709  23589612.87406  23589615.89206
  25830988.55806   9595426.75206   7476951.01209  25830856.92606  25830861.57406
  24464994.19006  -5438607.29206  -4237872.28409  24464862.32106  24464864.86506
 92  8 21  3 15  0.0000000  0  8 21 11 25 23 12 28 17 15
  21266271.03506   2023355.78006   1576641.78609  21266139.42806  21266140.80606
  21837881.87506  -1527292.36106  -1190096.83909  21837750.23906  21837752.91106
  23697201.31706  -8327708.99506  -6489112.59209  23697069.59506  23697071.85006
  23813520.22706   5946288.67006   4633472.12809  23813388.51106  23813390.37506
  24191045.16306   1803183.53606   1405081.09109  24190914.07606  24190916.98706
  23607621.89206   7237697.64106   5639760.28709  23607489.86306  23607492.84806
  25852766.80006   9709870.99106   7566128.26909  25852635.11806  25852639.83206
  24446087.55406  -5537961.36906  -4315291.00509  24445955.88806  24445958.38806
 92  8 21  3 15 30.0000000  0  8 21 11 25 23 12 28 17 15
  21272426.92206   2055705.28806   1601849.19709  21272295.33606  21272296.74006
  21840188.33206  -1515172.55806  -1180652.83609  21840056.65406  21840059.22906
  23679396.72706  -8421270.76906  -6562017.79609  23679265.24606  23679267.54206
  23827062.79906   6017455.24506   4688926.60609  23826931.14606  23826933.01506
  24200166.82706   1851118.63306   1442433.13009  24200035.77506  24200038.68806
  23625532.14506   7331817.50506   5713100.37709  23625400.22606  23625403.34706
  25874549.39606   9824339.84106   7655324.69809  25874417.68806  25874422.42906
  24427197.44406  -5637229.03206  -4392642.38809  24427065.81706  24427068.31906
 92  8 21  3 16  0.0000000  0  8 21 11 25 23 12 28 17 15
  21278616.95306   2088234.46206   1627196.60809  21278485.39906  21278486.76406
  21842620.73506  -1502390.75906  -1170692.99009  21842488.98306  21842491.57806
  23661611.19006  -8514733.57306  -6634845.87809  23661479.77906  23661482.21806
  23840619.87506   6088698.78006   4744441.04309  23840488.25106  23840490.06706
  24209399.70706   1899636.62606   1480239.37509  24209268.46806  24209271.30706
  23643474.10906   7426101.69106   5786568.50609  23643342.06206  23643345.15906
  25896339.53406   9938845.29106   7744549.63209  25896207.39906  25896212.10806
  24408322.51306  -5736416.38106  -4469931.18709  24408191.06506  24408193.56206
 92  8 21  3 16 30.0000000  0  8 21 11 25 23 12 28 17 15
  21284839.32206   2120932.52206   1652675.62009  21284707.68906  21284709.04206
  21845177.66506  -1488953.24706  -1160222.20009  21845045.96106  21845048.66106
  23643843.64006  -8608103.07106  -6707601.25609  23643712.23506  23643714.40406
  23854189.53806   6160006.80606   4800005.73809  23854057.75206  23854059.67506
  24218741.89106   1948730.55206   1518494.39309  24218610.68706  24218613.57706
  23661443.75406   7520533.42706   5860151.61109  23661311.70606  23661314.86406
  25918138.18006  10053397.97506   7833811.34709  25918006.28306  25918010.77506
  24389462.62006  -5835526.50806  -4547159.81909  24389330.85406  24389333.51106
 92  8 21  3 17  0.0000000  0  8 21 11 25 23 12 28 17 15
  21291095.36306   2153808.31206   1678293.12609  21290963.72906  21290965.10706
  21847860.13106  -1474855.94506  -1149237.28909  21847728.50406  21847731.25406
  23626092.54506  -8701385.82106  -6780289.03809  23625961.09206  23625963.25006
  23867771.53706   6231380.98406   4855621.97609  23867639.84406  23867641.66606
  24228194.45206   1998403.50906   1557200.60309  24228063.19606  24228066.01606
  23679440.26406   7615105.88806   5933844.36809  23679308.30106  23679311.47206
  25939947.67306  10168007.27906   7923117.17809  25939815.78106  25939820.31806
  24370618.62006  -5934552.46706  -4624322.86609  24370486.85106  24370489.40206
 92  8 21  3 17 30.0000000  0  8 21 11 25 23 12 28 17 15
  21297388.99506   2186882.24606   1704065.03009  21297257.49206  21297258.83606
  21850670.78406  -1460085.80006  -1137728.08809  21850539.17306  21850541.88906
  23608361.05406  -8794564.57806  -6852895.78709  23608229.60606  23608231.78806
  23881370.08906   6302842.34306   4911306.15809  23881238.45406  23881240.31906
  24237759.31006   2048667.48106   1596367.35409  24237628.06106  24237630.90706
  23697464.85106   7709824.99206   6007651.39409  23697332.93906  23697336.03906
  25961771.87306  10282693.45306   8012482.94109  25961640.03106  25961644.39906
  24351793.63006  -6033478.24606  -4701407.85509  24351661.96506  24351664.43406
 92  8 21  3 18  0.0000000  0  8 21 11 25 23 12 28 17 15
  21303723.11606   2220167.52106   1730001.61509  21303591.47306  21303592.82606
  21853611.40006  -1444633.65506  -1125687.45709  21853479.71506  21853482.36406
  23590653.78706  -8887616.11606  -6925403.40309  23590522.41106  23590524.63306
  23894986.48206   6374397.76806   4967063.63009  23894854.85006  23894856.90406
  24247438.20606   2099530.58706   1636000.95409  24247307.02406  24247309.79606
  23715519.30706   7804701.15306   6081580.80909  23715387.32706  23715390.38906
  25983609.69806  10397451.25806   8101904.43709  25983477.77306  25983482.67306
  24332990.17206  -6132291.81106  -4778405.40509  24332858.41906  24332860.82106
 92  8 21  3 18 30.0000000  0  8 21 11 25 23 12 28 17 15
  21310102.91306   2253694.19306   1756126.30309  21309971.34106  21309972.71406
  21856684.09706  -1428487.23706  -1113105.83009  21856552.36306  21856554.94406
  23572975.53606  -8980515.12506  -6997792.16209  23572844.25806  23572846.51206
  23908623.77606   6446061.57406   5022905.56609  23908492.09906  23908494.01106
  24257233.20106   2151004.22106   1676110.29109  24257102.13006  24257104.99106
  23733604.45706   7899738.14506   6155635.53709  23733472.40606  23733475.38106
  26005456.91906  10512262.20106   8191367.32609  26005325.57706  26005330.67606
  24314210.93106  -6230977.59906  -4855303.39309  24314079.17206  24314081.46706
 92  8 21  3 19  0.0000000  0  7 21 11 25 23 12 28 15
  21316532.13006   2287479.81906   1782452.77409  21316400.54906  21316401.88306
  21859889.09806  -1411644.72806  -1099981.79809  21859757.39606  21859759.97006
  23555327.84206  -9073255.57406  -7070057.36609  23555196.32306  23555198.52606
  23922285.16306   6517853.65806   5078847.44909  23922153.62206  23922155.59506
  24267144.70306   2203089.21706   1716696.01709  24267013.55806  24267016.34706
  23751720.68506   7994940.15106   6229818.85309  23751588.69806  23751591.78706
  24295456.81906  -6329530.73806  -4932098.01709  24295324.99606  24295327.36706
 92  8 21  3 19 30.0000000  0  7 21 11 25 23 12 28 15
  21323011.45506   2321528.45606   1808984.18509  21322879.80506  21322881.15006
  21863227.40906  -1394101.64106  -1086311.86309  21863095.66606  21863098.31906
  23537713.39806  -9165819.69606  -7142185.17009  23537581.93606  23537584.01206
  23935972.58606   6589781.10906   5134894.80909  23935841.03906  23935842.87706
  24277173.03706   2255789.10406   1757760.88509  24277041.92306  24277044.73306
  23769869.41406   8090313.85906   6304135.95709  23769737.58106  23769740.63006
  24276729.25006  -6427943.82306  -5008783.50609  24276597.62306  24276599.90606
 92  8 21  3 20  0.0000000  0  7 21 11 25 23 12 28 15
  21329537.90406   2355825.90506   1835709.47709  21329406.31206  21329407.65806
  21866695.89806  -1375873.57406  -1072108.18209  21866564.30206  21866566.90106
  23520131.73306  -9258212.09606  -7214179.16809  23520000.11206  23520002.24106
  23949681.87506   6661822.53506   5191030.99609  23949550.02806  23949551.97206
  24287315.41406   2309087.26306   1799291.93609  24287184.23706  24287187.11206
  23788051.14706   8185859.24006   6378586.84109  23787919.33406  23787922.47706
  24258026.06606  -6526229.35906  -5085369.60609  24257894.44506  24257896.84606
 92  8 21  3 20 30.0000000  0  7 21 11 25 23 12 28 15
  21336112.11406   2390373.52906   1862629.71009  21335980.52606  21335981.83706
  21870293.85806  -1356966.77606  -1057375.61609  21870162.21706  21870164.68906
  23502579.07906  -9350451.43406  -7286053.89509  23502447.47606  23502449.59006
  23963408.79806   6733958.85806   5247241.12109  23963277.05506  23963278.99306
  24297570.25506   2362976.68706   1841283.71409  24297439.10106  24297441.87906
  23806264.53906   8281569.81906   6453166.44409  23806132.55606  23806135.79106
  24239346.65006  -6624390.08306  -5161858.44809  24239215.00206  24239217.42006
 92  8 21  3 21  0.0000000  0  7 21 11 25 23 12 28 15
  21342728.20106   2425140.80206   1889721.09609  21342596.53006  21342597.86706
  21874018.94206  -1337391.97206  -1042122.52509  21873887.22506  21873889.76806
  23485052.39806  -9442554.68406  -7357822.58109  23484920.83206  23484922.86306
  23977149.04406   6806163.26606   5303504.29909  23977017.25506  23977019.08006
  24307935.36006   2417445.65006   1883727.07109  24307804.23806  24307807.01806
  23824506.75006   8377432.91006   6527864.88209  23824374.77406  23824377.96006
  24220689.54706  -6722433.25706  -5238255.69009  24220557.89306  24220560.37406
 92  8 21  3 21 30.0000000  0  7 21 11 25 23 12 28 15
  21349383.36006   2460114.61906   1916973.42309  21349251.81906  21349253.13106
  21877869.50406  -1317155.96006  -1026354.21809  21877737.88306  21877740.70406
  23467551.15606  -9534523.44106  -7429486.46509  23467419.69506  23467421.73506
  23990897.94006   6878415.14406   5359804.46709  23990766.23606  23990768.14506
  24318408.93406   2472486.42806   1926616.00209  24318278.05106  24318280.89906
  23842775.90106   8473437.75306   6602673.78509  23842643.90706  23842647.02706
  24202054.11706  -6820362.82706  -5314564.40409  24201922.54706  24201924.92206
 92  8 21  3 22  0.0000000  0  7 21 11 25 23 12 28 15
  21356086.53506   2495339.77406   1944421.60009  21355954.95806  21355956.25306
  21881851.42906  -1296230.82806  -1010048.94709  21881719.85606  21881722.61006
  23450080.86406  -9626328.75306  -7501022.99509  23449949.52006  23449951.64506
  24004661.93206   6950744.86906   5416165.29009  24004530.16106  24004532.04506
  24328996.86306   2528126.05206   1969971.57009  24328865.83706  24328868.87806
  23861076.42906   8569607.47806   6677611.16809  23860944.53506  23860947.79606
  24183446.50906  -6918147.44406  -5390760.16309  24183314.70006  24183317.12406
 92  8 21  3 22 30.0000000  0  7 21 11 25 23 12 28 15
  21362839.83306   2530828.31306   1972075.00809  21362708.19906  21362709.51006
  21885967.76106  -1274600.75706   -993194.36809  21885836.04106  21885838.64706
  23432642.84906  -9717966.11806  -7572428.65509  23432511.50506  23432513.51306
  24018446.72506   7023184.89106   5472612.07009  24018315.03406  24018316.97706
  24339701.76906   2584379.21806   2013805.22309  24339570.46406  24339573.43806
  23879408.20506   8665940.14506   6752675.51609  23879276.23506  23879279.39406
  24164869.94906  -7015768.19806  -5466828.23409  24164738.13106  24164740.44006
 92  8 21  3 23  0.0000000  0  7 21 11 25 23 12 28 15
  21369643.48106   2566581.97506   1999935.00509  21369511.88206  21369513.19106
  21890218.31906  -1252264.08806   -975789.19109  21890086.58506  21890089.14006
  23415239.95906  -9809419.37906  -7643690.85809  23415108.53606  23415110.58906
  24032258.54106   7095766.66606   5529169.30809  24032126.92006  24032128.71906
  24350523.42306   2641247.04206   2058117.82309  24350392.11906  24350394.95306
  23897770.77106   8762436.77706   6827867.63209  23897638.76406  23897642.06306
  24146325.38706  -7113219.92906  -5542764.59709  24146193.65906  24146195.96606
 92  8 21  3 23 30.0000000  0  7 21 11 25 23 12 28 15
  21376497.79206   2602601.61106   2028002.25609  21376366.17406  21376367.50806
  21894600.66406  -1229233.94306   -957843.64809  21894468.97906  21894471.63906
  23397872.87406  -9900684.51506  -7714806.47409  23397741.32406  23397743.40606
  24046097.88406   7168492.69906   5585838.95109  24045966.10606  24045968.01006
  24361459.23306   2698715.15706   2102898.18109  24361327.90606  24361330.76606
  23916161.15106   8859079.22906   6903173.38209  23916029.24406  23916032.48106
  24127811.18606  -7210512.39206  -5618576.85409  24127679.43306  24127681.77306
 92  8 21  3 24  0.0000000  0  7 21 11 25 23 12 28 15
  21383401.01606   2638878.21406   2056269.73909  21383269.42106  21383270.75406
  21899114.12906  -1205515.62606   -939361.87409  21898982.47506  21898985.12306
  23380539.67306  -9991770.11306  -7785782.19109  23380408.28006  23380410.24806
  24059964.24106   7241360.45406   5642619.02009  24059832.38906  24059834.20406
  24372508.01306   2756777.66706   2148141.70409  24372376.83106  24372379.70706
  23934578.30206   8955860.35106   6978587.17909  23934446.32906  23934449.59806
  24109327.17706  -7307646.91906  -5694266.04309  24109195.27506  24109197.65206
 92  8 21  3 24 30.0000000  0  7 21 11 25 23 12 28 15
  21390346.28906   2675376.18206   2084709.71109  21390214.70706  21390216.05906
  21903755.41406  -1181126.54806   -920357.42709  21903623.69906  21903626.28506
  23363238.70906 -10082686.33606  -7856625.92609  23363107.33906  23363109.36806
  24073853.72706   7314349.80706   5699493.83909  24073721.86606  24073723.65506
  24383666.60806   2815416.34706   2193834.19409  24383535.41406  24383538.33806
  23953017.79306   9052760.01906   7054093.35509  23952885.82106  23952889.05506
  24090870.44506  -7404637.41706  -5769842.99609  24090738.51006  24090740.93706
 92  8 21  3 25  0.0000000  0  7 21 11 25 23 12 28 15
  21397332.35606   2712087.99006   2113316.31609  21397200.74106  21397202.07206
  21908521.45506  -1156079.93006   -900840.60909  21908389.81706  21908392.51106
  23345971.11506 -10173428.59506  -7927334.10709  23345839.75206  23345841.60906
  24087760.48206   7387429.68406   5756439.18909  24087628.55306  24087630.35906
  24394932.04206   2874616.95006   2239964.54309  24394800.87206  24394803.64506
  23971475.71006   9149758.04406   7129676.16309  23971343.80206  23971347.12006
  24072439.00206  -7501493.86706  -5845315.49909  24072307.31406  24072309.68106
 92  8 21  3 25 30.0000000  0  7 21 11 25 23 12 28 15
  21404356.20506   2748998.77706   2142077.96709  21404224.60406  21404225.95006
  21913410.97006  -1130384.35906   -880818.12309  21913279.40906  21913282.22006
  23328733.56906 -10264012.85206  -7997919.17209  23328601.99606  23328603.80706
  24101679.76406   7460576.34006   5813436.59209  24101547.89406  24101549.67406
  24406302.70806   2934370.07806   2286525.43509  24406171.49806  24406174.36506
  23989948.46506   9246833.22906   7205319.10509  23989816.64406  23989819.90206
  24054032.38406  -7598220.89706  -5920687.15409  24053900.68306  24053903.07606
 92  8 21  3 26  0.0000000  0  7 21 11 25 23 12 28 15
  21411419.28506   2786115.33406   2170999.96209  21411287.68306  21411289.04906
  21918426.73206  -1104028.13706   -860280.84209  21918295.03206  21918297.69906
  23311527.08106 -10354433.49006  -8068376.74709  23311395.56206  23311397.37706
  24115613.31106   7533797.37906   5870491.94609  24115481.38406  24115483.14806
  24417780.57006   2994686.50306   2333525.24609  24417649.35106  24417652.17906
  24008437.30706   9343992.07606   7281027.23909  24008305.29906  24008308.76506
  24035653.32306  -7694803.33306  -5995946.14209  24035521.63506  24035524.00406
 92  8 21  3 26 30.0000000  4  1
 -2240354.0000 -4717758.0000  3651637.0000                  APPROX POSITION XYZ
 92  8 21  3 26 30.0000000  0  7 21 11 25 23 12 28 15
  21418524.14006   2823452.19106   2200093.61909  21418392.60206  21418393.99406
  21923568.57506  -1077008.11206   -839226.30609  21923436.88306  21923439.40706
  23294353.74006 -10444677.91006  -8138697.00209  23294222.41006  23294224.33906
  24129563.17706   7607103.89906   5927613.90209  24129431.17506  24129433.02406
  24429366.09706   3055568.68606   2380965.91409  24429234.86806  24429237.70206
  24026941.79906   9441232.99606   7356799.31509  24026809.71406  24026813.26106
  24017302.96706  -7791234.59106  -6071087.33709  24017171.40006  24017173.67006
 92  8 21  3 27  0.0000000  0  7 21 11 25 23 12 28 15
  21425675.28006   2861031.65706   2229376.32309  21425543.71806  21425545.08706
  21928838.10006  -1049316.47306   -817648.43609  21928706.34406  21928708.94206
  23277216.01006 -10534737.72306  -8208873.40209  23277084.51406  23277086.52806
  24143530.75706   7680505.97106   5984810.31809  24143399.15606  24143400.86606
  24441060.49706   3117023.63106   2428852.89709  24440929.38006  24440932.15306
  24045462.05906   9538557.71406   7432636.68709  24045330.02406  24045333.64506
  23998983.83906  -7887502.73806  -6146101.43809  23998852.17906  23998854.41406
 92  8 21  3 27 30.0000000  0  7 21 11 25 23 12 28 15
  21432872.79406   2898854.77906   2258848.88909  21432741.21806  21432742.61006
  21934236.12106  -1020950.54206   -795545.14209  21934104.37206  21934106.98706
  23260113.86606 -10624610.39106  -8278903.98009  23259982.29206  23259984.15806
  24157517.83906   7754008.18906   6042084.76609  24157386.15506  24157387.95706
  24452864.12606   3179053.05706   2477187.52509  24452733.12106  24452735.96806
  24064001.68006   9635984.13806   7508553.31809  24063869.73506  24063873.19706
  23980696.88406  -7983601.64906  -6220983.67209  23980565.06306  23980567.35106
 92  8 21  3 28  0.0000000  0  7 21 11 25 23 12 28 15
  21440122.44406   2936951.44906   2288534.61309  21439990.81706  21439992.16706
  21939764.82106   -991896.74106   -772905.84509  21939633.11506  21939635.87606
  23243052.81106 -10714267.19306  -8348766.35009  23242921.23706  23242922.99006
  24171524.97106   7827615.19006   6099440.86209  24171393.18606  24171394.94306
  24464779.79406   3241670.08506   2525980.02109  24464648.65006  24464651.48506
  24082566.70306   9733542.39006   7584572.66909  24082434.51106  24082437.99606
  23962445.41706  -8079513.84306  -6295720.42209  23962313.57906  23962315.85006
 92  8 21  3 28 30.0000000  0  7 21 11 25 23 12 28 15
  21447427.02306   2975337.87406   2318446.11909  21447295.49006  21447296.80806
  21945425.58506   -962147.80806   -749724.89509  21945293.96906  21945296.85506
  23226035.51506 -10803693.27006  -8418448.93409  23225903.92706  23225905.70906
  24185554.12806   7901339.24106   6156888.16009  24185422.26706  24185424.15106
  24476808.31506   3304880.91306   2575235.22009  24476677.21606  24476680.16906
  24101159.68006   9831249.99506   7660708.39909  24101027.72906  24101031.25706
  23944231.39806  -8175228.05006  -6370302.90009  23944099.79706  23944102.03606
 92  8 21  3 29  0.0000000  0  7 21 11 25 23 12 28 15
  21454781.62406   3013985.92006   2348561.48909  21454650.03506  21454651.34206
  21951215.83806   -931720.93006   -726015.67309  21951084.12806  21951086.73506
  23209057.80406 -10892909.08306  -8487967.67109  23208926.44306  23208928.21206
  24199602.11606   7975163.15206   6214413.27209  24199470.48506  24199472.43106
  24488946.56806   3368667.59406   2624939.14309  24488815.43506  24488818.35006
  24119779.20606   9929095.42306   7736951.53209  24119647.13406  24119650.68906
  23926052.85106  -8270757.42506  -6444741.35809  23925921.06806  23925923.34406
 92  8 21  3 29 30.0000000  0  7 21 11 25 23 12 28 15
  21462178.66506   3052858.13306   2378851.53409  21462047.10106  21462048.44506
  21957130.50206   -900640.12406   -701796.87709  21956998.75606  21957001.24106
  23192116.54906 -10981936.01106  -8557339.22409  23191985.22406  23191987.01506
  24213667.65006   8049077.45906   6272008.82609  24213535.93106  24213537.95106
  24501189.79906   3433005.44306   2675072.54609  24501058.63406  24501061.44106
  24138420.97106  10027059.29406   7813286.96109  24138288.85306  24138292.47806
  23907905.51306  -8366122.05406  -6519051.45009  23907773.74506  23907776.06006
 92  8 21  3 30  0.0000000  0  7 21 25 11 23 12 28 15
  21469617.82806   3091951.20006   2409313.67209  21469486.28806  21469487.58806
  23175211.30906 -11070774.22906  -8626563.73209  23175079.82306  23175081.58306
  21963170.01506   -868901.70506   -677065.66009  21963038.27706  21963040.98206
  24227754.75806   8123106.35106   6329693.65909  24227623.14406  24227625.18406
  24513538.15906   3497897.35906   2725637.69009  24513407.11106  24513409.93406
  24157082.66006  10125125.92606   7889702.45009  24156950.50406  24156954.12406
  23889791.10506  -8461314.40106  -6593227.30109  23889659.30306  23889661.56706
 92  8 21  3 30 30.0000000  0  7 21 11 25 23 12 28 15
  21477091.96606   3131227.61806   2439918.68109  21476960.30606  21476961.62606
  21969332.30706   -836517.76606   -651831.45109  21969200.64606  21969203.52706
  23158340.42806 -11159430.62806  -8695646.56309  23158208.90306  23158210.70506
  24241866.16306   8197260.72006   6387476.26509  24241734.38806  24241736.23906
  24525989.78306   3563330.54406   2776624.59709  24525858.60406  24525861.42106
  24175757.33906  10223262.42906   7966172.38409  24175625.35106  24175629.02306
  23871707.78806  -8556342.67706  -6667275.30409  23871576.00606  23871578.26406
 92  8 21  3 31  0.0000000  0  7 21 11 25 23 12 28 15
  21484601.53706   3170690.95806   2470669.34309  21484469.94606  21484471.27106
  21975619.23406   -803480.59706   -626088.22609  21975487.53206  21975490.15706
  23141506.99506 -11247890.85206  -8764576.52509  23141375.50206  23141377.31906
  24256001.71106   8271544.95006   6445360.07809  24255870.09006  24255872.00606
  24538545.47406   3629311.76506   2828038.54309  24538414.42006  24538417.28106
  24194443.58706  10321458.95706   8042689.08909  24194311.54106  24194315.02706
  23853657.94306  -8651195.12406  -6741186.30009  23853526.14006  23853528.37006
 92  8 21  3 31 30.0000000  0  7 21 11 25 23 12 28 15
  21492149.92606   3210358.11406   2501578.82009  21492018.34806  21492019.70606
  21982031.61906   -769783.57406   -599830.81409  21981899.92506  21981902.50906
  23124714.90206 -11336132.85306  -8833336.44609  23124583.51806  23124585.36006
  24270164.84606   8345972.24606   6503355.36809  24270033.15906  24270035.05706
  24551206.79406   3695847.31306   2879884.41909  24551075.71806  24551078.55706
  24213139.41906  10419707.12606   8119246.04309  24213007.55406  24213011.26506
  23835643.69506  -8745860.96406  -6814951.88609  23835511.83706  23835514.10206
 92  8 21  3 32  0.0000000  0  7 21 11 25 23 12 28 15
  21499740.70106   3250247.51306   2532661.47209  21499609.05506  21499610.36606
  21988569.03506   -735429.24106   -573061.21209  21988437.29906  21988440.00806
  23107966.81906 -11424144.46606  -8901916.84409  23107835.40606  23107837.18006
  24284350.74906   8420519.87806   6561444.41609  24284219.13606  24284221.08606
  24563972.78006   3762933.75806   2932159.56409  24563841.80606  24563844.53306
  24231844.02106  10518000.00306   8195837.83109  24231712.10506  24231715.71306
  23817665.08406  -8840338.52106  -6888570.75509  23817533.35206  23817535.64806
 92  8 21  3 32 30.0000000  0  7 21 11 25 23 12 28 15
  21507379.40306   3290389.25306   2563940.75109  21507247.77306  21507249.08806
  21995231.63306   -700416.57706   -545778.63609  21995099.94306  21995102.81906
  23091264.58506 -11511916.15006  -8970310.28609  23091133.01706  23091134.60906
  24298555.71906   8495167.49106   6619611.38009  24298424.09106  24298426.00206
  24576843.81606   3830571.25706   2984864.12709  24576712.81406  24576715.66206
  24250556.74706  10616335.44606   8272462.78909  24250424.90206  24250428.48806
  23799723.24306  -8934622.97506  -6962039.14409  23799591.61406  23799593.89806
 92  8 21  3 33  0.0000000  0  7 21 11 25 23 12 28 15
  21515066.14806   3330783.77906   2595417.00709  21514934.55706  21514935.93006
  22002014.21606   -664774.15006   -518005.33309  22001882.55406  22001885.32406
  23074601.30806 -11599482.54106  -9038543.76509  23074469.73506  23074471.34006
  24312771.72006   8569872.73606   6677823.24109  24312640.08506  24312641.97606
  24589814.16006   3898730.95306   3037975.59309  24589683.18606  24589685.91806
  24269274.64506  10714697.61706   8349108.57009  24269142.55706  24269146.38706
  23781813.76806  -9028738.05706  -7035375.55109  23781682.07906  23781684.33306
 92  8 21  3 33 30.0000000  0  7 21 11 25 23 12 28 15
  21522803.51506   3371444.19706   2627100.45709  21522671.96006  21522673.27006
  22008918.97206   -628489.70606   -489731.75209  22008787.21406  22008789.98506
  23057979.14206 -11686830.25906  -9106606.84209  23057847.81706  23057849.51806
  24326999.55806   8644639.87106   6736083.34709  24326867.86506  24326869.65706
  24602886.18806   3967424.02206   3091502.66709  24602755.00606  24602757.77806
  24288001.69606  10813109.38806   8425792.99709  24287869.67906  24287873.37006
  23763939.44806  -9122667.45406  -7108567.25509  23763807.85106  23763810.15206
 92  8 21  3 34  0.0000000  0  7 21 11 25 23 12 28 15
  21530596.57506   3412396.60506   2659011.42509  21530464.97006  21530466.31006
  22015951.22606   -591534.51706   -460935.51409  22015819.51706  22015822.27406
  23041403.92906 -11773934.26506  -9174480.01809  23041272.41706  23041274.10706
  24341239.97906   8719472.88506   6794394.78509  24341108.13106  24341109.97406
  24616064.94106   4036678.67806   3145467.34209  24615933.76506  24615936.55506
  24306745.94506  10911611.48906   8502547.81609  24306614.20906  24306617.88306
  23746107.08206  -9216378.10406  -7181588.50309  23745975.40306  23745977.61406
 92  8 21  3 34 30.0000000  0  7 21 25 11 23 12 28 15
  21538443.88406   3453634.70706   2691145.01309  21538312.30506  21538313.65206
  23024876.18506 -11860788.07106  -9242158.23209  23024744.75706  23024746.37406
  22023113.83906   -553894.58506   -431605.70909  22022982.20506  22022984.86906
  24355499.04906   8794405.72906   6852784.02109  24355367.32506  24355369.15106
  24629353.09006   4106508.40906   3199880.11809  24629221.79206  24629224.66306
  24325512.18206  11010226.89106   8579390.93009  24325380.14106  24325383.84906
  23728319.65806  -9309851.52606  -7254424.88909  23728187.98506  23728190.13406
 92  8 21  3 35  0.0000000  0  7 21 25 11 23 12 28 15
  21546340.84706   3495133.36106   2723481.62709  21546209.27506  21546210.63506
  23008395.94306 -11947391.71506  -9309641.51909  23008264.50506  23008266.16906
  22030405.69906   -515576.05606   -401747.12309  22030274.01906  22030276.68806
  24369779.72106   8869450.83906   6911260.73209  24369647.90306  24369649.77306
  24642749.23206   4176906.31406   3254735.62409  24642618.11306  24642620.98706
  24344301.29806  11108963.81606   8656328.73209  24344169.18706  24344172.91706
  23710577.22606  -9403089.69506  -7327077.95509  23710445.36006  23710447.49106
 92  8 21  3 35 30.0000000  0  7 21 25 11 23 12 28 15
  21554279.08306   3536848.72606   2755987.10609  21554147.42406  21554148.78706
  22991959.85006 -12033763.59206  -9376944.20609  22991828.43006  22991830.08606
  22037820.90606   -476609.40306   -371383.51309  22037689.16306  22037691.87206
  24384077.97206   8944588.60206   6969809.64509  24383946.16606  24383948.01806
  24656247.80606   4247841.35606   3310009.69009  24656116.70906  24656119.37306
  24363104.94406  11207779.37506   8733327.79909  24362973.07706  24362977.03906
  23692874.23106  -9496118.54306  -7399567.90509  23692742.38806  23692744.60806
 92  8 21  3 36  0.0000000  0  7 21 25 11 23 12 28 15
  21562260.08806   3578789.80806   2788668.46809  21562128.53506  21562129.85606
  22975567.27106 -12119906.41206  -9444068.40909  22975435.88106  22975437.52406
  22045358.53306   -436999.57906   -340518.73209  22045226.73806  22045229.39906
  24398396.81906   9019834.56506   7028442.86009  24398264.95206  24398266.89706
  24669847.47906   4319307.96006   3365697.96009  24669716.35506  24669719.05406
  24381921.74906  11306661.40206   8810378.66409  24381789.96706  24381793.60906
  23675211.04606  -9588938.86106  -7471895.36309  23675079.30606  23675081.45506
 92  8 21  3 36 30.0000000  0  7 21 25 11 23 12 28 15
  21570284.21306   3620956.78206   2821525.85009  21570152.65506  21570153.95106
  22959216.98106 -12205828.28206  -9511020.44109  22959085.53106  22959087.07706
  22053016.46206   -396756.57506   -309160.55809  22052884.74906  22052887.37806
  24412740.19406   9095209.96506   7087176.92609  24412608.38406  24412610.33206
  24683546.47906   4391295.41806   3421792.09509  24683415.07506  24683417.71006
  24400745.99006  11405584.29406   8887461.38209  24400614.19906  24400617.90206
  23657586.45006  -9681556.09006  -7544064.56409  23657454.73206  23657456.84606
 92  8 21  3 37  0.0000000  0  7 21 25 11 23 12 28 15
  21578355.30006   3663370.62606   2854575.59909  21578223.75306  21578225.06706
  22942911.45106 -12291514.28806  -9577788.68809  22942779.98806  22942781.42906
  22060794.58706   -355881.04906   -277309.51709  22060662.89606  22060665.79306
  24427106.05306   9170703.96406   7146003.41409  24426974.49306  24426976.36306
  24697344.09306   4463802.47506   3478291.11709  24697212.70006  24697215.49406
  24419576.20506  11504536.67106   8964567.05309  24419444.22006  24419448.12606
  23640001.16606  -9773966.65706  -7616072.73009  23639869.49806  23639871.58506
 92  8 21  3 37 30.0000000  0  7 21 25 11 23 12 28 15
  21586474.59106   3706038.09506   2887822.97609  21586343.06506  21586344.38006
  22926653.23406 -12376951.61806  -9644363.16109  22926521.71906  22926523.24806
  22068693.55506   -314371.93706   -244964.78209  22068561.87906  22068564.76506
  24441493.95006   9246312.38706   7204919.07309  24441362.19006  24441364.10006
  24711240.42006   4536829.91006   3535195.62109  24711109.22006  24711112.05706
  24438409.70006  11603505.64706   9041685.66609  24438277.72406  24438281.43306
  23622456.30606  -9866164.35106  -7687915.02109  23622324.80006  23622326.93806
 92  8 21  3 38  0.0000000  0  7 21 25 11 23 12 28 15
  21594644.80106   3748972.47106   2921278.33409  21594513.26406  21594514.52906
  22910443.14606 -12462136.14106  -9710740.63909  22910311.57106  22910313.05906
  22076713.80506   -272225.93006   -212123.75809  22076582.11906  22076584.81806
  24455905.50206   9322045.76306   7263932.09409  24455773.78206  24455775.66006
  24725236.70706   4610380.12906   3592507.47309  24725105.45006  24725108.19806
  24457247.37906  11702498.21706   9118822.67209  24457115.50306  24457119.14206
  23604953.79306  -9958141.79706  -7759585.69109  23604822.04706  23604824.11606
 92  8 21  3 38 30.0000000  0  7 21 25 11 23 12 28 15
  21602863.30506   3792160.85406   2954931.62309  21602731.70006  21602732.98906
  22894284.66806 -12547049.35606  -9776906.70909  22894153.13006  22894154.58106
  22084854.84906   -229444.09706   -178787.28309  22084723.14006  22084725.93006
  24470340.67106   9397903.20606   7323041.78709  24470208.97606  24470210.86006
  24739331.99506   4684451.59106   3650225.49409  24739200.72106  24739203.58906
  24476091.22206  11801522.14206   9195984.09309  24475959.16206  24475962.90606
  23587493.72106 -10049895.40706  -7831081.94809  23587361.89106  23587363.88106
 92  8 21  3 39  0.0000000  0  7 21 25 11 23 12 28 15
  21611128.66006   3835595.62406   2988776.90209  21610997.06206  21610998.35206
  22878180.06506 -12631679.66006  -9842852.33209  22878048.51806  22878049.86706
  22093116.95306   -186026.62006   -144955.50609  22092985.25606  22092988.04506
  24484797.85806   9473875.49506   7382240.97209  24484666.11606  24484667.96306
  24753526.44306   4759043.63106   3708349.14909  24753395.14606  24753398.01506
  24494941.89006  11900583.36106   9273174.58009  24494809.95706  24494813.63406
  23570077.09006 -10141420.70106  -7902400.29809  23569945.21806  23569947.18906
 92  8 21  3 39 30.0000000  0  7 21 25 11 23 12 28 15
  21619440.02006   3879272.36006   3022810.72309  21619308.46506  21619309.78306
  22862128.48206 -12716030.87106  -9908580.48309  22861996.93906  22861998.26006
  22101500.88006   -141969.18406   -110625.06109  22101369.21806  22101371.98506
  24499278.13306   9549971.11306   7441536.24609  24499146.65206  24499148.40506
  24767820.57606   4834160.11806   3766881.48009  24767689.41906  24767692.12106
  24513798.96806  11999677.13606   9350390.44009  24513666.87406  24513670.57406
  23552705.72606 -10232708.26606  -7973533.40409  23552573.69906  23552575.71906
 92  8 21  3 40  0.0000000  0  7 21 25 11 23 12 28 15
  21627797.42006   3923190.36206   3057032.54209  21627665.84006  21627667.12106
  22846129.04006 -12800106.95906  -9974094.25309  22845997.59806  22845998.96206
  22110006.69706    -97270.53406    -75794.97209  22109875.01006  22109877.86606
  24513781.74506   9626187.87306   7500925.90309  24513650.21006  24513652.04706
  24782214.70906   4909801.75206   3825823.02609  24782083.47806  24782086.19806
  24532663.03206  12098810.31106   9427636.99409  24532531.25406  24532535.09706
  23535380.51706 -10323752.59406  -8044476.98509  23535248.58406  23535250.50906
 92  8 21  3 40 30.0000000  0  7 25 21 11 23 12 28 15
  22830181.83506 -12883910.06606 -10039395.30809  22830050.40906  22830051.78706
  21636197.71506   3967334.18406   3091430.32509  21636066.08506  21636067.43706
  22118633.72206    -51935.44606    -40468.95609  22118502.00106  22118504.74906
  24528304.42606   9702505.21606   7560393.95209  24528172.84906  24528174.74406
  24796707.76106   4985963.13106   3885169.58409  24796576.45606  24796579.31806
  24551534.25206  12197978.12206   9504910.53609  24551402.40506  24551406.11006
  23518101.65806 -10414553.71206  -8115231.05109  23517969.60706  23517971.55006
 92  8 21  3 41  0.0000000  0  7 25 21 11 23 12 28 15
  22814281.07906 -12967470.27706 -10104507.09209  22814149.39306  22814150.77406
  21644639.84606   4011698.12206   3125999.63109  21644508.26606  21644509.58406
  22127378.91106     -5979.18906     -4658.90909  22127247.26306  22127250.02006
  24542842.20006   9778901.31706   7619923.36209  24542710.57106  24542712.55506
  24811296.51106   5062628.53706   3944908.86709  24811165.36906  24811168.22606
  24570405.68706  12297148.27206   9582185.90209  24570273.82506  24570277.72206
  23500866.91306 -10505121.74106  -8185803.49209  23500735.07906  23500737.02606
 92  8 21  3 41 30.0000000  0  7 25 21 11 23 12 28 15
  22798430.32006 -13050766.17306 -10169412.91609  22798298.64706  22798300.04806
  21653127.21606   4056300.05606   3160754.38909  21652995.69706  21652997.03206
  22136245.03406     40612.34706     31646.15709  22136113.33806  22136116.18606
  24557397.53806   9855389.85506   7679524.80709  24557265.89106  24557267.82806
  24825983.99806   5139811.57606   4005051.50109  24825852.84006  24825855.57306
  24589281.40406  12396340.72506   9659478.63609  24589149.61306  24589153.50106
  23483680.14406 -10595437.95006  -8256179.71409  23483548.35906  23483550.38606
 92  8 21  3 42  0.0000000  0  7 25 21 11 15 23 12 28
  22782630.25106 -13133794.92206 -10234110.57509  22782498.77206  22782500.05306
  21661658.34306   4101130.73006   3195687.38209  21661526.70106  21661528.01606
  22145229.58806     87826.85406     68436.64809  22145097.91106  22145100.88106
  23466540.02606 -10685509.91306  -8326365.62009  23466408.11606  23466410.17906
  24571969.49906   9931966.02606   7739194.53009  24571837.77406  24571839.71706
  24840767.36006   5217499.51206   4065587.55509  24840636.35906  24840639.20406
  24608161.95606  12495557.30606   9736790.16909  24608029.98706  24608033.81406
 92  8 21  3 42 30.0000000  0  7 25 21 11 23 12 28 15
  22766884.17206 -13216540.24806 -10298587.39009  22766752.75906  22766753.99906
  21670236.44806   4146208.86206   3230813.20209  21670104.81106  21670106.15106
  22154333.82206    135669.18806    105716.35809  22154202.08706  22154204.93806
  24586562.12006  10008648.34906   7798946.97609  24586430.09606  24586432.03106
  24855648.00506   5295696.80706   4126520.51209  24855516.72406  24855519.61406
  24627045.30206  12594790.04206   9814114.30409  24626913.44106  24626917.28806
  23449448.11506 -10775327.55306  -8396353.36109  23449316.35106  23449318.42806
 92  8 21  3 43  0.0000000  0  7 25 21 11 23 12 28 15
  22751191.61706 -13299005.49306 -10362845.96009  22751060.13506  22751061.41506
  21678860.71806   4191530.55406   3266128.81309  21678729.18006  21678730.45706
  22163553.93406    184120.89806    143470.91609  22163422.24306  22163424.94906
  24601171.91606  10085424.07106   7858772.19609  24601039.99306  24601041.89806
  24870621.74706   5374384.61206   4187835.68909  24870490.57006  24870493.37806
  24645926.89306  12694013.50506   9891431.20009  24645795.05706  24645798.97506
  23432402.18506 -10864904.41806  -8466153.48309  23432270.41006  23432272.45806
 92  8 21  3 43 30.0000000  0  7 25 21 11 23 12 28 15
  22735553.27306 -13381184.87006 -10426881.77509  22735421.88406  22735423.20906
  21687530.74706   4237091.28406   3301630.68309  21687399.09306  21687400.42406
  22172888.33606    233173.35806    181693.59309  22172756.64806  22172759.38106
  24615799.39906  10162293.47506   7918670.40809  24615667.61706  24615669.68506
  24885687.17606   5453553.56406   4249525.78509  24885555.95806  24885558.81606
  24664806.74006  12793227.05406   9968740.38009  24664674.85606  24664678.90006
  23415401.44606 -10954244.65406  -8535769.22609  23415269.56606  23415271.55906
 92  8 21  3 44  0.0000000  0  7 25 21 11 15 23 12 28
  22719965.87206 -13463097.01506 -10490709.35109  22719834.38206  22719835.79206
  21696245.76606   4282889.09606   3337317.29109  21696114.08406  21696115.46206
  22182334.68606    282814.39706    220374.90309  22182202.96306  22182205.76806
  23398444.34506 -11043355.11206  -8605205.92209  23398312.50106  23398314.39006
  24630444.17806  10239251.54206   7978637.70309  24630312.31206  24630314.36106
  24900841.57706   5533191.21306   4311581.10509  24900710.46206  24900713.23106
  24683678.41006  12892398.43206  10046016.68809  24683546.58906  24683550.61406
 92  8 21  3 44 30.0000000  0  7 25 21 11 15 23 12 28
  22704432.07606 -13544728.13806 -10554317.95509  22704300.46606  22704301.77906
  21705010.85906   4328949.47606   3373208.49909  21704879.16006  21704880.45706
  22191895.45506    333057.16806    259525.09409  22191763.79806  22191766.60106
  23381534.44606 -11132217.63906  -8674449.42909  23381402.56406  23381404.38606
  24645106.37306  10316301.10506   8038676.29809  24644974.46206  24644976.34406
  24916087.98606   5613310.49706   4374011.71609  24915956.69706  24915959.47006
  24702542.16806  12991527.65706  10123260.13709  24702410.14806  24702414.21506
 92  8 21  3 45  0.0000000  0  7 25 21 11 15 23 12 28
  22688950.58506 -13626083.68106 -10617711.82409  22688819.05606  22688820.18206
  21713825.70006   4375272.87406   3409304.65709  21713694.16906  21713695.49406
  22201571.58306    383905.00006    299146.76609  22201439.87406  22201442.71906
  23364673.04306 -11220823.57706  -8743493.00009  23364541.29906  23364543.14006
  24659787.68706  10393452.01206   8098793.87209  24659655.81806  24659657.67906
  24931426.34106   5693914.12006   4436819.74009  24931294.97606  24931297.81606
  24721401.13906  13090631.54906  10200483.85909  24721269.27306  24721273.29306
 92  8 21  3 45 30.0000000  0  7 25 21 11 15 23 12 28
  22673521.97506 -13707160.70706 -10680888.67109  22673390.54206  22673391.64706
  21722691.94606   4421865.16906   3445610.34609  21722560.40106  21722561.70106
  22211364.77206    435368.48306    339248.16809  22211233.13606  22211235.96806
  23347863.53506 -11309157.42006  -8812324.54909  23347731.84506  23347733.72906
  24674492.79606  10470728.53006   8159009.33209  24674361.21206  24674363.12706
  24946858.74006   5775012.49506   4500013.28209  24946727.49206  24946730.24206
  24740258.77206  13189727.29706  10277701.23109  24740126.67306  24740130.52406
 92  8 21  3 46  0.0000000  0  7 25 21 11 15 23 12 28
  22658145.78406 -13787962.58606 -10743851.11609  22658014.32406  22658015.57306
  21731605.37406   4468705.22106   3482109.09509  21731473.81606  21731475.10206
  22221273.95806    487441.28206    379824.36509  22221142.21806  22221145.08506
  23331105.63106 -11397220.50206  -8880945.11609  23330974.00206  23330975.92606
  24689220.49706  10548123.19006   8219316.85609  24689088.98306  24689090.82006
  24962383.93406   5856598.71706   4563586.96609  24962252.77006  24962255.57406
  24759114.22506  13288813.36406  10354911.04809  24758982.23206  24758986.19706
 92  8 21  3 46 30.0000000  0  7 25 21 11 15 23 12 28
  22642823.53506 -13868482.23906 -10806593.64109  22642691.99506  22642693.21906
  21740561.42106   4515769.62506   3518782.66409  21740429.83806  21740431.13006
  22231297.90406    540118.36806    420871.42909  22231166.28206  22231169.18206
  23314399.11106 -11485013.06406  -8949354.89109  23314267.52506  23314269.53206
  24703971.24506  10625639.60006   8279719.24809  24703839.78306  24703841.66406
  24978001.06106   5938667.46806   4627536.65109  24977870.00006  24977872.75406
  24777971.91806  13387910.75906  10432129.71209  24777839.78406  24777843.93206
 92  8 21  3 47  0.0000000  0  7 25 21 11 15 23 12 28
  22627554.01006 -13948724.03206 -10869119.65109  22627422.49506  22627423.65606
  21749555.93306   4563036.00006   3555613.61309  21749424.29106  21749425.58506
  22241434.85106    593387.57006    462379.88609  22241303.15306  22241305.93606
  23297743.11606 -11572542.13606  -9017559.35509  23297611.38606  23297613.31106
  24718745.08706  10703275.94906   8340215.10009  24718613.36806  24718615.29606
  24993707.82306   6021206.31106   4691852.63409  24993576.61906  24993579.36206
  24796831.39006  13487018.83706  10509356.68209  24796699.48206  24796703.73806
 92  8 21  3 47 30.0000000  0  7 25 21 11 15 23 12 28
  22612340.03206 -14028672.84106 -10931417.36609  22612208.60606  22612209.77106
  21758588.53406   4610503.09606   3592600.96609  21758457.00806  21758458.30206
  22251683.57606    647244.72506    504346.49609  22251551.87106  22251554.57206
  23281137.28506 -11659806.45306  -9085557.51809  23281005.55906  23281007.46406
  24733538.56706  10781016.17606   8400791.88209  24733406.97706  24733408.85206
  25009503.07406   6104210.59506   4756531.29009  25009371.80906  25009374.66906
  24815692.60606  13586134.06006  10586589.21809  24815560.60006  24815564.85006
 92  8 21  3 48  0.0000000  0  7 25 21 11 15 23 12 28
  22597184.20906 -14108316.91506 -10993477.62609  22597052.82606  22597053.88706
  21767662.64906   4658187.81906   3629757.89809  21767531.08506  21767532.38206
  22262044.07906    701690.12006    546771.47209  22261912.39906  22261915.28106
  23264582.84806 -11746800.54706  -9153345.12009  23264451.18306  23264453.05806
  24748351.17206  10858856.11606   8461446.36409  24748219.44906  24748221.29506
  25025386.87706   6187680.58106   4821572.83309  25025255.54906  25025258.50306
  24834554.87306  13685255.55406  10663826.64709  24834422.78306  24834427.15406
 92  8 21  3 48 30.0000000  0  7 25 21 11 15 23 12 28
  22582086.77006 -14187655.30006 -11055299.69109  22581955.26106  22581956.26606
  21776783.33206   4706117.18706   3667105.47009  21776651.73706  21776652.98406
  22272515.21706    756716.15106    589648.88209  22272383.49206  22272386.40106
  23248079.62106 -11833526.63306  -9220923.88909  23247947.78306  23247949.62106
  24763180.76606  10936786.26606   8522171.15209  24763049.12806  24763050.88706
  25041357.71406   6271608.16306   4886970.94309  25041226.45906  25041229.32906
  24853414.20506  13784360.94706  10741051.54009  24853282.13406  24853286.34406
 92  8 21  3 49  0.0000000  0  7 25 21 11 15 23 12 28
  22567047.15806 -14266689.32906 -11116884.59409  22566915.49206  22566916.58906
  21785955.44806   4754316.60706   3704663.46609  21785823.81106  21785825.07906
  22283095.44606    812314.90906    632972.58109  22282963.71106  22282966.41806
  23231626.54806 -11919987.69806  -9288296.14709  23231494.76606  23231496.61406
  24778024.55306  11014791.12306   8582954.16009  24777892.89106  24777894.57106
  25057413.74906   6355984.95706   4952719.09309  25057282.80906  25057285.67206
  24872265.71606  13883426.80106  10818245.62309  24872133.53906  24872137.78406
 92  8 21  3 49 30.0000000  0  7 25 21 11 15 23 12 28
  22552066.96806 -14345410.11406 -11178225.40909  22551935.39906  22551936.51806
  21795181.42306   4802799.75806   3742442.55309  21795049.84506  21795051.12006
  22293784.68906    868487.28606    676743.26009  22293652.95106  22293655.65606
  23215225.21006 -12006177.38106  -9355456.93509  23215093.36006  23215095.25706
  24792883.53406  11092876.21406   8643799.67509  24792751.91406  24792753.78006
  25073555.95706   6440811.83606   5018817.96409  25073424.78106  25073427.74606
  24891106.98006  13982437.27906  10895396.54309  24890974.93706  24890979.14706
 92  8 21  3 50  0.0000000  0  7 25 21 11 15 23 12 28
  22537148.19206 -14423807.33306 -11239314.09609  22537016.80706  22537017.91906
  21804460.22106   4851561.06406   3780438.37709  21804328.77806  21804330.01506
  22304582.65706    925231.65106    720959.63409  22304450.94106  22304453.89206
  23198876.12706 -12092091.76206  -9422403.20309  23198744.37206  23198746.25706
  24807758.34106  11171043.58806   8704709.32409  24807626.68006  24807628.57206
  25089783.09606   6526086.90406   5085266.07409  25089652.11406  25089655.01306
  24909933.37206  14081371.70506  10972488.22209  24909801.33506  24909805.52406
 92  8 21  3 50 30.0000000  0  7 25 21 11 15 23 12 28
  22522295.90306 -14501856.95506 -11300131.93109  22522164.44306  22522165.47206
  21813791.60106   4900597.16406   3818648.33109  21813660.06206  21813661.31506
  22315492.21106    982561.58406    765632.28609  22315360.51306  22315363.38406
  23182583.00106 -12177712.37606  -9489120.55809  23182451.38106  23182453.15806
  24822651.85806  11249309.05506   8765695.40009  24822520.15606  24822521.91906
  25106098.26506   6611823.28206   5152073.63809  25105967.20606  25105970.13206
  24928746.29006  14180233.31106  11049523.14609  24928614.27006  24928618.69606
 92  8 21  3 51  0.0000000  0  7 25 21 11 15 23 12 28
  22507509.17006 -14579561.69006 -11360681.02309  22507377.70806  22507378.66706
  21823170.64206   4949884.35206   3857053.93709  21823039.07306  21823040.34606
  22326512.00406   1040470.34506    810755.98309  22326380.29906  22326382.99006
  23166345.45806 -12263040.38806  -9555609.90609  23166213.95806  23166215.77206
  24837564.30606  11327675.55706   8826760.21709  24837432.67006  24837434.50306
  25122499.91106   6698014.08806   5219235.31009  25122368.83506  25122371.69506
  24947544.97206  14279020.35906  11126499.96709  24947412.97406  24947417.25306
 92  8 21  3 52 30.0000000  0  7 25 15 21 11 23 12 28
  22463519.55616        -0.38116        -0.27619  22463388.10516  22463389.29116
  23117961.11216        -0.17816         0.01819  23117829.30116  23117831.17516
  21851568.43416         0.21716         0.22219  21851436.85116  21851438.25516
  22360214.57616        -0.77216        -0.45819  22360082.86716  22360085.98216
  24882408.06416         0.47016         0.12719  24882276.42416  24882278.27016
  25172205.69716        -0.21816        -0.27619  25172074.71916  25172077.72216
  25003860.29916         0.26516         0.31919  25003728.13416  25003732.67716
 92  8 21  3 53  0.0000000  0  7 25 15 21 11 23 12 28
  22448977.51506    -76419.61806    -59547.68009  22448846.03906  22448847.17506
  23101947.69906    -84151.79706    -65572.63509  23101815.78006  23101817.60706
  21861129.26406     50242.55206     39150.09609  21860997.70806  21860999.05506
  22371665.65306     60174.07906     46889.00209  22371533.85706  22371536.85206
  24897396.15206     78763.19006     61373.68109  24897264.33306  24897266.34806
  25188943.42406     87956.90706     68537.73909  25188812.30606  25188815.31206
  25022616.88606     98566.46506     76805.07609  25022484.89506  25022489.20306
 92  8 21  3 53 30.0000000  0  7 25 15 21 11 23 12 28
  22434493.20706   -152534.66106   -118858.05309  22434361.78206  22434362.80106
  23085991.84906   -168000.46206   -130909.21309  23085859.94006  23085861.74906
  21870736.27706    100727.40706     78488.94309  21870604.64806  21870606.03706
  22383223.39606    120910.63006     94216.15509  22383091.72506  22383094.60206
  24912402.06306    157620.84706    122821.19709  24912270.47106  24912272.55906
  25205764.42906    176350.43306    137415.81809  25205633.12106  25205636.02306
  25041365.33106    197092.07906    153578.20309  25041233.50706  25041238.18806
 92  8 21  3 54  0.0000000  0  7 25 15 21 11 23 12 28
  22420070.52906   -228325.59606   -177915.87609  22419939.17906  22419940.23506
  23070095.72906   -251534.04506   -196000.26509  23069963.94106  23069965.80006
  21880389.41106    151455.52506    118017.35009  21880257.89106  21880259.24506
  22394889.40006    182215.56506    141986.21309  22394757.65706  22394760.55806
  24927429.07506    236586.63806    184352.97609  24927297.23406  24927299.29406
  25222669.35006    265186.94106    206639.06809  25222538.22906  25222541.11606
  25060105.69106    295571.37206    230315.21809  25059973.42706  25059978.04606
 92  8 21  3 54 30.0000000  0  7 25 15 21 11 23 12 28
  22405710.39406   -303788.63206   -236718.18909  22405578.93806  22405580.07506
  23054260.10006   -334750.69006   -260844.35009  23054128.32106  23054130.08706
  21890086.55806    202414.34406    157725.52209  21889955.03706  21889956.38306
  22406662.79406    244085.21806    190196.30709  22406531.08506  22406534.05806
  24942477.01406    315663.94606    245971.64909  24942345.19206  24942347.14206
  25239657.84506    354462.23506    276204.22609  25239526.79106  25239529.73406
  25078830.07906    393970.20206    306989.54609  25078698.32106  25078702.98906
 92  8 21  3 55  0.0000000  0  7 25 15 21 11 23 12 28
  22391414.75206   -378913.89106   -295257.29909  22391283.12006  22391284.20106
  23038484.53906   -417651.39606   -325442.24809  23038352.79506  23038354.53406
  21899825.52806    253593.30806    197605.23609  21899694.08206  21899695.41906
  22418542.44406    306512.88306    238841.20609  22418410.67106  22418413.75806
  24957546.02206    394852.30106    307676.87209  24957414.13206  24957416.03406
  25256728.53106    444169.58906    346106.05309  25256597.48006  25256600.26606
  25097538.38606    492282.38506    383596.34209  25097406.33706  25097411.20306
 92  8 21  3 55 30.0000000  0  7 25 15 21 11 23 12 28
  22377186.12206   -453685.53206   -353520.86609  22377054.52906  22377055.62006
  23022769.90106   -500232.48106   -389791.08809  23022638.17506  23022639.87406
  21909607.67806    304998.47906    237661.21309  21909476.16206  21909477.49106
  22430527.71706    369496.55906    287919.35509  22430396.08106  22430399.11906
  24972637.34906    474158.42506    369473.84209  24972505.55306  24972507.62806
  25273881.07106    534307.01706    416342.99809  25273750.12006  25273753.03906
  25116231.58106    590514.09006    460140.45609  25116099.56906  25116104.03506
 92  8 21  3 56  0.0000000  0  8 25 15 21 11 23 12 20 28
  22363030.34406   -528073.30306   -411485.31409  22362898.82406  22362899.95106
  23007118.79806   -582479.69106   -453879.76809  23006986.99806  23006988.66506
  21919438.09506    356657.38306    277914.90409  21919306.53406  21919307.87806
  22442620.63406    433044.88806    337437.49909  22442488.96806  22442491.90606
  24987756.04106    553606.62606    431381.51709  24987624.20106  24987626.01906
  25291116.90806    624882.91006    486921.62009  25290986.13406  25290989.05906
  26121107.87216        -0.87216        -0.59719  26120976.64916  26120978.51016
  25134909.49506    688666.73706    536622.98809  25134777.49006  25134782.15406
 92  8 21  3 56 30.0000000  4  1
 -2240354.0000 -4717758.0000  3651637.0000                  APPROX POSITION XYZ
 92  8 21  3 56 30.0000000  0  8 25 15 21 11 23 12 20 28
  22348943.32206   -602099.86306   -469168.29609  22348811.91506  22348812.97206
  22991528.02806   -664410.03706   -517721.53909  22991396.12706  22991397.75706
  21929315.41406    408563.40606    318361.15609  21929183.89206  21929185.28606
  22454816.75206    497135.42006    387378.13709  22454685.00006  22454687.95206
  25002896.71406    633172.62606    493380.99509  25002765.04906  25002766.91506
  25308432.30206    715874.77506    557824.36809  25308301.36006  25308304.16706
  26109947.84806    -58647.40706    -45699.21209  26109816.37706  26109818.74406
  25153571.85506    786738.26706    613042.28209  25153439.98706  25153444.65506
 92  8 21  3 57  0.0000000  0  8 25 15 21 11 23 12 20 28
  22334926.50706   -675759.65206   -526565.48709  22334795.07706  22334796.08406
  22975998.50206   -746017.49706   -581311.71509  22975866.64606  22975868.31706
  21939242.95706    460732.92006    359012.72509  21939111.35406  21939112.72806
  22467116.00006    561768.55506    437741.58309  22466984.30206  22466987.41406
  25018059.85406    712854.97006    555471.12609  25017928.12406  25017929.97706
  25325826.82906    807282.94506    629051.52009  25325695.75806  25325698.60106
  26098809.55906   -117179.22906    -91308.29509  26098678.18306  26098680.47306
  25172221.77406    884744.27606    689410.52709  25172089.74906  25172094.72506
 92  8 21  3 57 30.0000000  0  8 25 15 21 11 23 12 20 28
  22320978.87606   -749055.39206   -583679.00509  22320847.42806  22320848.33506
  22960531.65306   -827295.62606   -644645.27309  22960399.90306  22960401.59506
  21949221.43106    513170.07506    399872.84309  21949089.92306  21949091.23706
  22479518.73806    626944.98106    488528.36409  22479386.99306  22479390.07106
  25033244.08906    792647.99206    617647.50409  25033112.26606  25033114.20106
  25343300.81206    899107.80206    700603.35309  25343169.44706  25343172.30606
  26087694.43206   -175589.81406   -136822.98809  26087562.84706  26087565.17906
  25190857.89806    982676.32306    765721.12009  25190725.88506  25190730.59006
 92  8 21  3 58  0.0000000  0  8 25 15 21 11 23 12 20 28
  22307097.92406   -822000.14506   -640519.02709  22306966.42206  22306967.37506
  22945127.98906   -908242.10406   -707720.40709  22944996.25606  22944997.94406
  21959248.11006    565860.72906    440930.48909  21959116.59806  21959117.94206
  22492024.22306    692661.33306    539735.87109  22491892.49306  22491895.50706
  25048447.72506    872543.92106    679904.05809  25048315.93606  25048317.96306
  25360852.81906    991346.14306    772477.38509  25360721.81706  25360724.58006
  26076602.54306   -233876.75006   -182241.40409  26076471.15906  26076473.47506
  25209478.63606   1080530.42406    841971.02009  25209346.85806  25209351.75106
 92  8 21  3 59  0.0000000  0  8 25 15 21 11 20 23 12 28
  22279536.67816        -0.58816        -0.70619  22279405.20616  22279406.03016
  22914514.38216        -0.89616        -0.86519  22914382.54816  22914384.19616
  21979441.03516         0.28316        -0.39119  21979309.30916  21979310.61416
  22517343.07916         0.04116        -0.30319  22517211.32116  22517214.27916
  26054494.31516        -0.01716        -0.46119  26054363.02616  26054365.26216
  25078909.94216        -0.00916        -0.25719  25078778.36116  25078780.28116
  25396193.97316         0.25516         0.45219  25396062.49416  25396065.25916
  25246678.13816        -0.03516        -0.05019  25246546.23616  25246551.09616
 92  8 21  3 59 30.0000000  0  8 25 15 21 11 20 23 12 28
  22265860.82006    -71867.83706    -56001.11209  22265729.39006  22265730.17106
  22899305.26806    -79924.47706    -62278.95609  22899173.55906  22899175.23406
  21989606.29306     53419.45106     41624.93709  21989474.66206  21989476.00906
  22530155.47006     67329.51306     52464.18809  22530023.76006  22530026.73106
  26043479.17206    -57886.54406    -45106.76809  26043347.64006  26043349.85806
  25094167.07206     80174.94306     62473.71109  25094035.26106  25094036.99606
  25413980.83306     93472.05606     72835.62209  25413849.58806  25413852.32006
  25265253.96906     97614.42006     76063.10209  25265122.03206  25265126.61406
 92  8 21  4  0  0.0000000  0  8 25 15 21 11 20 23 12 28
  22252258.04406   -143351.08606   -111702.30109  22252126.57806  22252127.32806
  22884161.69206   -159503.75706   -124288.76409  22884030.03506  22884031.82506
  21999818.97906    107087.83106     83444.45809  21999687.39706  21999688.71906
  22543068.77706    135188.58606    105341.35609  22542937.02006  22542939.98706
  26032489.59706   -115635.61706    -90105.90009  26032358.19506  26032360.47706
  25109443.14506    160450.15906    125025.82409  25109311.10906  25109312.97906
  25431844.25606    187346.72506    145984.70809  25431713.24506  25431716.10706
  25283813.65406    195146.42406    152062.00409  25283681.56806  25283686.14506
 92  8 21  4  0 30.0000000  0  8 25 15 21 11 20 23 12 28
  22238729.43306   -214443.97706   -167099.31709  22238597.90406  22238598.74906
  22869082.95806   -238742.17706   -186032.97209  22868951.40706  22868953.25506
  22010082.80906    161024.43206    125472.98209  22009951.18306  22009952.48706
  22556080.99206    203567.93206    158623.93109  22555949.30106  22555952.23306
  26021525.76106   -173251.00206   -135000.92909  26021394.35106  26021396.21506
  25124737.02106    240821.77006    187653.05609  25124605.24506  25124607.26106
  25449782.87006    281615.19206    219440.65709  25449651.95606  25449654.73406
  25302353.73606    292576.90606    227981.80609  25302221.87306  25302226.46606
 92  8 21  4  1  0.0000000  0  8 25 15 21 11 20 23 12 28
  22225275.28106   -285145.97506   -222191.74109  22225143.74806  22225144.59006
  22854070.63706   -317632.04406   -247505.58609  22853939.14706  22853940.98606
  22020399.10106    215237.35506    167716.82009  22020267.54006  22020268.85806
  22569192.48006    272469.25906    212313.24709  22569060.74706  22569063.73306
  26010589.11106   -230724.80106   -179785.68709  26010457.32106  26010459.46006
  25140052.38206    321303.69906    250366.23109  25139920.33906  25139922.45406
  25467796.45806    376278.79506    293204.51109  25467665.85406  25467668.57606
  25320874.90606    389905.09106    303821.89809  25320742.75706  25320747.48706
 92  8 21  4  1 30.0000000  0  8 25 15 21 11 20 23 12 28
  22211895.24606   -355459.00406   -276981.07309  22211763.67506  22211764.44806
  22839126.80006   -396162.95906   -308698.49809  22838995.21406  22838997.04406
  22030768.02106    269726.30106    210175.74509  22030636.44206  22030637.69106
  22582404.13306    341896.98006    266412.73409  22582272.37206  22582275.33906
  25999680.65906   -288046.56706   -224451.92809  25999549.27506  25999551.20306
  25155394.61006    401926.63006    313189.25609  25155262.54106  25155264.45106
  25485886.95006    471342.20806    367279.89909  25485755.72006  25485758.47006
  25339378.25806    487140.81006    379589.91509  25339246.49906  25339250.99406
 92  8 21  4  2  0.0000000  0  8 25 15 21 11 20 23 12 28
  22198589.48606   -425380.40806   -331465.24509  22198458.01306  22198458.78706
  22824252.95706   -474326.26606   -369604.96309  22824121.30206  22824123.05706
  22041187.96606    324483.04106    252843.34009  22041056.34306  22041057.67006
  22595716.52706    411854.02206    320924.68709  22595584.76206  22595587.75606
  25988803.29006   -345207.58406   -268992.92909  25988671.84806  25988673.67206
  25170765.37606    482701.68706    376130.88509  25170633.57706  25170635.39006
  25504053.95006    566808.24206    441669.02209  25503922.41806  25503925.08106
  25357861.88306    584270.81506    455275.55609  25357729.91706  25357734.51006
 92  8 21  4  2 30.0000000  0  8 25 15 21 11 20 23 12 28
  22185358.58806   -494909.63106   -385643.82309  22185227.02306  22185227.78606
  22809451.43106   -552109.44506   -430215.22709  22809319.65306  22809321.36706
  22051657.59006    379501.96206    295715.23109  22051526.08706  22051527.38406
  22609130.82606    482347.08006    375854.32009  22608999.20306  22609002.12306
  25977958.78006   -402194.78606   -313398.45409  25977827.51306  25977829.35506
  25186162.91706    563617.37306    439182.04809  25186031.18606  25186033.29406
  25522297.94906    662683.75506    516377.21309  25522166.84106  25522169.55006
  25376323.81406    681288.99706    530874.06309  25376191.96306  25376196.62206
 92  8 21  4  3  0.0000000  0  8 25 15 21 11 20 23 12 28
  22172198.98706   -564063.87206   -439530.21009  22172067.47506  22172068.22706
  22794719.61306   -629525.54906   -490539.45609  22794587.81106  22794589.53106
  22062171.12806    434750.84206    338766.31009  22062039.57406  22062040.85106
  22622643.70406    553357.23606    431186.88809  22622511.98406  22622514.98406
  25967144.98306   -459020.98406   -357678.56509  25967013.80606  25967015.60906
  25201584.56306    644657.86306    502330.48309  25201452.73506  25201454.69206
  25540617.07806    758949.88106    591389.77709  25540485.85206  25540488.38806
  25394763.86706    778191.40906    606382.36609  25394631.98506  25394636.59506
 92  8 21  4  3 30.0000000  0  8 25 15 21 11 20 23 12 28
  22159112.87506   -632831.17606   -493115.08809  22158981.41106  22158982.18106
  22780057.02806   -706578.20206   -550580.47209  22779925.24606  22779926.92306
  22072729.77506    490236.59606    382001.96909  22072598.18706  22072599.45506
  22636253.16106    624875.16106    486915.11909  22636121.42506  22636124.41906
  25956361.26706   -515689.49106   -401835.79409  25956229.84206  25956232.00806
  25217024.99206    725799.44906    565557.69709  25216893.26806  25216895.50206
  25559008.49606    855597.32906    666699.47709  25558877.22706  25558879.76906
  25413179.49606    874965.96906    681791.00909  25413047.36806  25413052.10306
 92  8 21  4  4  0.0000000  0  8 25 15 21 11 20 23 12 28
  22146101.79506   -701203.98706   -546392.57009  22145970.35106  22145971.14806
  22765465.50606   -783257.50106   -610330.55809  22765333.67106  22765335.28506
  22083338.07406    545983.63006    425441.21909  22083206.51206  22083207.71406
  22649959.99106    696904.76606    543042.05709  22649828.22106  22649831.23406
  25945609.67606   -572190.41506   -445862.42909  25945478.17406  25945480.32206
  25232481.35106    807023.39706    628849.08409  25232349.71106  25232351.92506
  25577473.24906    952630.00206    742309.34109  25577341.94806  25577344.48106
  25431571.23906    971616.69706    757103.17409  25431439.30906  25431444.23106
 92  8 21  4  4 30.0000000  0  8 25 15 21 11 20 23 12 28
  22133165.98306   -769182.03706   -599362.44509  22133034.54506  22133035.35806
  22750944.57006   -859565.60706   -669791.39609  22750812.70906  22750814.33006
  22093998.90806    602006.63906    469095.51709  22093867.32906  22093868.61406
  22663762.64006    769437.98406    599561.42309  22663630.88606  22663633.89206
  25934889.29406   -628525.66206   -489760.01109  25934757.77606  25934760.21706
  25247950.83406    888316.77806    692194.54809  25247819.43106  25247821.42906
  25596009.74606   1050039.95306    818213.16909  25595878.36206  25595881.13606
  25449940.60206   1068146.86706    832321.40009  25449808.48806  25449813.37506
 92  8 21  4  5  0.0000000  0  8 25 15 21 11 20 23 12 28
  22120305.26706   -836765.09106   -652024.53109  22120173.90206  22120174.70906
  22736494.53506   -935500.59406   -728961.48709  22736362.73706  22736364.30006
  22104713.93706    658314.56506    512971.82109  22104582.35306  22104583.64006
  22677660.21406    842470.67706    656469.98809  22677528.53906  22677531.62206
  25924200.98206   -684693.06906   -533526.78609  25924069.63306  25924071.85606
  25263436.31806    969694.61606    755605.84109  25263305.01806  25263307.23506
  25614617.26306   1147823.09806    894407.80509  25614486.01806  25614488.43606
  25468288.19706   1164564.27506    907451.73209  25468156.15706  25468161.27206
 92  8 21  4  5 30.0000000  0  8 25 15 21 11 20 23 12 28
  22107518.99906   -903958.14406   -704382.72009  22107387.53506  22107388.28806
  22722115.15406  -1011064.14006   -787842.13909  22721983.39306  22721985.00306
  22115482.94006    714906.32906    557069.29809  22115351.37606  22115352.67606
  22691651.54506    915995.27606    713761.85909  22691519.84106  22691522.87206
  25913544.37706   -740694.02506   -577163.87309  25913412.95906  25913415.00706
  25278937.60806   1051151.43006    819078.65709  25278805.74506  25278807.94306
  25633294.47806   1245972.14706    970887.57409  25633163.19906  25633165.57506
  25486609.43106   1260842.34006    982473.50009  25486477.55706  25486482.38006
